[[{"header":{"parameterUnit":"m.s-1","parameterCategory":1,"la1":30.6,"la2":28.766,"lo1":-90.7593,"lo2":-88.6598,"dy":0.0162,"dx":0.0183,"nx":116,"ny":114,"refTime":"2023-03-27T06:00:00:Z","depth":0,"parameterNumber":2,"parameterNumberName":"U-component_of_WINDS"},"data":[0.0,0.0,0.0,0.0,0.0,0.0,0.0,0.0,0.0,0.0,0.0,0.0,0.0,0.0,0.0,0.0,0.0,0.0,0.0,0.0,0.0,0.0,0.0,0.0,0.0,0.0,0.0,0.0,0.0,0.0,0.0,0.0,0.0,0.0,0.0,0.0,0.0,0.0,0.0,0.0,0.0,0.0,0.0,0.0,0.0,0.0,0.0,0.0,0.0,0.0,0.0,0.0,0.0,0.0,0.0,0.0,0.0,0.0,0.0,0.0,0.0,0.0,0.0,0.0,0.0,0.0,0.0,0.0,0.0,0.0,0.0,0.0,0.0,0.0,0.0,0.0,0.0,0.0,0.0,0.0,0.0,0.0,0.0,0.0,0.0,0.0,0.0,0.0,0.0,0.0,0.0,0.0,0.0,0.0,0.0,0.0,0.0,0.0,0.0,0.0,0.0,0.0,0.0,0.0,0.0,0.0,0.0,0.0,0.0,0.0,0.0,0.0,0.0,0.0,0.0,0.0,0.0,0.0,0.0,0.0,0.0,0.0,0.0,0.0,0.0,0.0,0.0,0.0,0.0,0.0,0.0,0.0,0.0,0.0,0.0,0.0,0.0,0.0,0.0,0.0,0.0,0.0,0.0,0.0,0.0,0.0,0.0,0.0,0.0,0.0,0.0,0.0,0.0,0.0,0.0,0.0,0.0,0.0,0.0,0.0,0.0,0.0,0.0,0.0,0.0,0.0,0.0,0.0,0.0,0.0,0.0,0.0,0.0,0.0,0.0,0.0,0.0,0.0,0.0,0.0,0.0,0.0,0.0,0.0,0.0,0.0,0.0,0.0,0.0,0.0,0.0,0.0,0.0,0.0,0.0,0.0,0.0,0.0,0.0,0.0,0.0,0.0,0.0,0.0,0.0,0.0,0.0,0.0,0.0,0.0,0.0,0.0,0.0,0.0,0.0,0.0,0.0,0.0,0.0,0.0,0.0,0.0,0.0,0.0,0.0,0.0,0.0,0.0,0.0,0.0,0.0,0.0,0.0,0.0,0.0,0.0,0.0,0.0,0.0,0.0,0.0,0.0,0.0,0.0,0.0,0.0,0.0,0.0,0.0,0.0,0.0,0.0,0.0,0.0,0.0,0.0,0.0,0.0,0.0,0.0,0.0,0.0,0.0,0.0,0.0,0.0,0.0,0.0,0.0,0.0,0.0,0.0,0.0,0.0,0.0,0.0,0.0,0.0,0.0,0.0,0.0,0.0,0.0,0.0,0.0,0.0,0.0,0.0,0.0,0.0,0.0,0.0,0.0,0.0,0.0,0.0,0.0,0.0,0.0,0.0,0.0,0.0,0.0,0.0,0.0,0.0,0.0,0.0,0.0,0.0,0.0,0.0,0.0,0.0,0.0,0.0,0.0,0.0,0.0,0.0,0.0,0.0,0.0,0.0,0.0,0.0,0.0,0.0,0.0,0.0,0.0,0.0,0.0,0.0,0.0,0.0,0.0,0.0,0.0,0.0,0.0,0.0,0.0,0.0,0.0,0.0,0.0,0.0,0.0,0.0,0.0,0.0,0.0,0.0,0.0,0.0,0.0,0.0,0.0,0.0,0.0,0.0,0.0,0.0,0.0,0.0,0.0,0.0,0.0,0.0,0.0,0.0,0.0,0.0,0.0,0.0,0.0,0.0,0.0,0.0,0.0,0.0,0.0,0.0,0.0,0.0,0.0,0.0,0.0,0.0,0.0,0.0,0.0,0.0,0.0,0.0,0.0,0.0,0.0,0.0,0.0,0.0,0.0,0.0,0.0,0.0,0.0,0.0,0.0,0.0,0.0,0.0,0.0,0.0,0.0,0.0,0.0,0.0,0.0,0.0,0.0,0.0,0.0,0.0,0.0,0.0,0.0,0.0,0.0,0.0,0.0,0.0,0.0,0.0,0.0,0.0,0.0,0.0,0.0,0.0,0.0,0.0,0.0,0.0,0.0,0.0,0.0,0.0,0.0,0.0,0.0,0.0,0.0,0.0,0.0,0.0,0.0,0.0,0.0,0.0,0.0,0.0,0.0,0.0,0.0,0.0,0.0,0.0,0.0,0.0,0.0,0.0,0.0,0.0,0.0,0.0,0.0,0.0,0.0,0.0,0.0,0.0,0.0,0.0,0.0,0.0,0.0,0.0,0.0,0.0,0.0,0.0,0.0,0.0,0.0,0.0,0.0,0.0,0.0,0.0,0.0,0.0,0.0,0.0,0.0,0.0,0.0,0.0,0.0,0.0,0.0,0.0,0.0,0.0,0.0,0.0,0.0,0.0,0.0,0.0,0.0,0.0,0.0,0.0,0.0,0.0,0.0,0.0,0.0,0.0,0.0,0.0,0.0,0.0,0.0,0.0,0.0,0.0,0.0,0.0,0.0,0.0,0.0,0.0,0.0,0.0,0.0,0.0,0.0,0.0,0.0,0.0,0.0,0.0,0.0,0.0,0.0,0.0,0.0,0.0,0.0,0.0,0.0,0.0,0.0,0.0,0.0,0.0,0.0,0.0,0.0,0.0,0.0,0.0,0.0,0.0,0.0,0.0,0.0,0.0,0.0,0.0,0.0,0.0,0.0,0.0,0.0,0.0,0.0,0.0,0.0,0.0,0.0,0.0,0.0,0.0,0.0,0.0,0.0,0.0,0.0,0.0,0.0,0.0,0.0,0.0,0.0,0.0,0.0,0.0,0.0,0.0,0.0,0.0,0.0,0.0,0.0,0.0,0.0,0.0,0.0,0.0,0.0,0.0,0.0,0.0,0.0,0.0,0.0,0.0,0.0,0.0,0.0,0.0,0.0,0.0,0.0,0.0,0.0,0.0,0.0,0.0,0.0,0.0,0.0,0.0,0.0,0.0,0.0,0.0,0.0,0.0,0.0,0.0,0.0,0.0,0.0,0.0,0.0,0.0,0.0,0.0,0.0,0.0,0.0,0.0,0.0,0.0,0.0,0.0,0.0,0.0,0.0,0.0,0.0,0.0,0.0,0.0,0.0,0.0,0.0,0.0,0.0,0.0,0.0,0.0,0.0,0.0,0.0,0.0,0.0,0.0,0.0,0.0,0.0,0.0,0.0,0.0,0.0,0.0,0.0,0.0,0.0,0.0,0.0,0.0,0.0,0.0,0.0,0.0,0.0,0.0,0.0,0.0,0.0,0.0,0.0,0.0,0.0,0.0,0.0,0.0,0.0,0.0,0.0,0.0,0.0,0.0,0.0,0.0,0.0,0.0,0.0,0.0,0.0,0.0,0.0,0.0,0.0,0.0,0.0,0.0,0.0,0.0,0.0,0.0,0.0,0.0,0.0,0.0,0.0,0.0,0.0,0.0,0.0,0.0,0.0,0.0,0.0,0.0,0.0,0.0,0.0,0.0,0.0,0.0,0.0,0.0,0.0,0.0,0.0,0.0,0.0,0.0,0.0,0.0,0.0,0.0,0.0,0.0,0.0,0.0,0.0,0.0,0.0,0.0,0.0,0.0,0.0,0.0,0.0,0.0,0.0,0.0,0.0,0.0,0.0,0.0,0.0,0.0,0.0,0.0,0.0,0.0,0.0,0.0,0.0,0.0,0.0,0.0,0.0,0.0,0.0,0.0,0.0,0.0,0.0,0.0,0.0,0.0,0.0,0.0,0.0,0.0,0.0,0.0,0.0,0.0,0.0,0.0,0.0,0.0,0.0,0.0,0.0,0.0,0.0,0.0,0.0,0.0,0.0,0.0,0.0,0.0,0.0,0.0,0.0,0.0,0.0,0.0,0.0,0.0,0.0,0.0,0.0,0.0,0.0,0.0,0.0,0.0,0.0,0.0,0.0,0.0,0.0,0.0,0.0,0.0,0.0,0.0,0.0,0.0,0.0,0.0,0.0,0.0,0.0,0.0,0.0,0.0,0.0,0.0,0.0,0.0,0.0,0.0,0.0,0.0,0.0,0.0,0.0,0.0,0.0,0.0,0.0,0.0,0.0,0.0,0.0,0.0,0.0,0.0,0.0,0.0,0.0,0.0,0.0,0.0,0.0,0.0,0.0,0.0,0.0,0.0,0.0,0.0,0.0,0.0,0.0,0.0,0.0,0.0,0.0,0.0,0.0,0.0,0.0,0.0,0.0,0.0,0.0,0.0,0.0,0.0,0.0,0.0,0.0,0.0,0.0,0.0,0.0,0.0,0.0,0.0,0.0,0.0,0.0,0.0,0.0,0.0,0.0,0.0,0.0,0.0,0.0,0.0,0.0,0.0,0.0,0.0,0.0,0.0,0.0,0.0,0.0,0.0,0.0,0.0,0.0,0.0,0.0,0.0,0.0,0.0,0.0,0.0,0.0,0.0,0.0,0.0,0.0,0.0,0.0,0.0,0.0,0.0,0.0,0.0,0.0,0.0,0.0,0.0,0.0,0.0,0.0,0.0,0.0,0.0,0.0,0.0,0.0,0.0,0.0,0.0,0.0,0.0,0.0,0.0,0.0,0.0,0.0,0.0,0.0,0.0,0.0,0.0,0.0,0.0,0.0,0.0,0.0,0.0,0.0,0.0,0.0,0.0,0.0,0.0,0.0,0.0,0.0,0.0,0.0,0.0,0.0,0.0,0.0,0.0,0.0,0.0,0.0,0.0,0.0,0.0,0.0,0.0,0.0,0.0,0.0,0.0,0.0,0.0,0.0,0.0,0.0,0.0,0.0,0.0,0.0,0.0,0.0,0.0,0.0,0.0,0.0,0.0,0.0,0.0,0.0,0.0,0.0,0.0,0.0,0.0,0.0,0.0,0.0,0.0,0.0,0.0,0.0,0.0,0.0,0.0,0.0,0.0,0.0,0.0,0.0,0.0,0.0,0.0,0.0,0.0,0.0,0.0,0.0,0.0,0.0,0.0,0.0,0.0,0.0,0.0,0.0,0.0,0.0,0.0,0.0,0.0,0.0,0.0,0.0,0.0,0.0,0.0,0.0,0.0,0.0,0.0,0.0,0.0,0.0,0.0,0.0,0.0,0.0,0.0,0.0,0.0,0.0,0.0,0.0,0.0,0.0,0.0,0.0,0.0,0.0,0.0,0.0,0.0,0.0,0.0,0.0,0.0,0.0,0.0,0.0,0.0,0.0,0.0,0.0,0.0,0.0,0.0,0.0,0.0,0.0,0.0,0.0,0.0,0.0,0.0,0.0,0.0,0.0,0.0,0.0,0.0,0.0,0.0,0.0,0.0,0.0,0.0,0.0,0.0,0.0,0.0,0.0,0.0,0.0,0.0,0.0,0.0,0.0,0.0,0.0,0.0,0.0,0.0,0.0,0.0,0.0,0.0,0.0,0.0,0.0,0.0,0.0,0.0,0.0,0.0,0.0,0.0,0.0,0.0,0.0,0.0,0.0,0.0,0.0,0.0,0.0,0.0,0.0,0.0,0.0,0.0,0.0,0.0,0.0,0.0,0.0,0.0,0.0,0.0,0.0,0.0,0.0,0.0,0.0,0.0,0.0,0.0,0.0,0.0,0.0,0.0,0.0,0.0,0.0,0.0,0.0,0.0,0.0,0.0,0.0,0.0,0.0,0.0,0.0,0.0,0.0,0.0,0.0,0.0,0.0,0.0,0.0,0.0,0.0,0.0,0.0,0.0,0.0,0.0,0.0,0.0,0.0,0.0,0.0,0.0,0.0,0.0,0.0,0.0,0.0,0.0,0.0,0.0,0.0,0.0,0.0,0.0,0.0,0.0,0.0,0.0,0.0,0.0,0.0,0.0,0.0,0.0,0.0,0.0,0.0,0.0,0.0,0.0,0.0,0.0,0.0,0.0,0.0,0.0,0.0,0.0,0.0,0.0,0.0,0.0,0.0,0.0,0.0,0.0,0.0,0.0,0.0,0.0,0.0,0.0,0.0,0.0,0.0,0.0,0.0,0.0,0.0,0.0,0.0,0.0,0.0,0.0,0.0,0.0,0.0,0.0,0.0,0.0,0.0,0.0,0.0,0.0,0.0,0.0,0.0,0.0,0.0,0.0,0.0,0.0,0.0,0.0,0.0,0.0,0.0,0.0,0.0,0.0,0.0,0.0,0.0,0.0,0.0,0.0,0.0,0.0,0.0,0.0,0.0,0.0,0.0,0.0,0.0,0.0,0.0,0.0,1.2987,0.0,0.0,0.0,0.0,0.0,0.0,0.0,0.0,0.0,0.0,0.0,0.0,0.0,0.0,0.0,0.0,0.0,0.0,0.0,0.0,0.0,0.0,0.0,0.0,0.0,0.0,0.0,0.0,0.0,0.0,0.0,0.0,0.0,0.0,0.0,0.0,0.0,0.0,0.0,0.0,0.0,0.0,0.0,0.0,0.0,0.0,0.0,0.0,0.0,0.0,0.0,0.0,0.0,0.0,0.0,0.0,0.0,0.0,0.0,0.0,0.0,0.0,0.0,0.0,0.0,0.0,0.0,0.0,0.0,0.0,0.0,0.0,0.0,0.0,0.0,0.0,0.0,0.0,0.0,0.0,0.0,0.0,0.0,0.0,0.0,0.0,0.0,0.0,0.0,0.0,0.0,0.0,0.0,0.0,0.0,0.0,0.0,0.0,0.0,0.0,0.0,0.0,0.0,0.0,0.0,0.0,0.0,0.0,0.0,0.0,0.0,0.0,0.0,0.0,0.0,0.0,1.3013,0.0,0.0,0.0,0.0,0.0,0.0,0.0,0.0,0.0,0.0,0.0,0.0,0.0,0.0,0.0,0.0,0.0,0.0,0.0,0.0,0.0,0.0,0.0,0.0,0.0,0.0,0.0,0.0,0.0,0.0,0.0,0.0,0.0,0.0,0.0,0.0,0.0,0.0,0.0,0.0,0.0,0.0,0.0,0.0,0.0,0.0,0.0,0.0,0.0,0.0,0.0,0.0,0.0,0.0,0.0,0.0,0.0,0.0,0.0,0.0,0.0,0.0,0.0,0.0,0.0,0.0,0.0,0.0,0.0,0.0,0.0,0.0,0.0,0.0,0.0,0.0,0.0,0.0,0.0,0.0,0.0,0.0,0.0,0.0,0.0,0.0,0.0,0.0,0.0,0.0,0.0,0.0,0.0,0.0,0.0,0.0,0.0,0.0,0.0,0.0,0.0,0.0,0.0,0.0,0.0,0.0,0.0,0.0,1.1732,1.1798,1.1804,1.1846,1.1962,1.2168,1.2469,1.2986,1.365,0.0,0.0,0.0,0.0,0.0,0.0,0.0,0.0,0.0,0.0,0.0,0.0,0.0,0.0,0.0,0.0,0.0,0.0,0.0,0.0,0.0,0.0,0.0,0.0,0.0,0.0,0.0,0.0,0.0,0.0,0.0,0.0,0.0,0.0,0.0,0.0,0.0,0.0,0.0,0.4783,0.5243,0.6095,0.723,0.6923,0.0,0.0,0.0,0.0,0.0,0.0,0.0,0.0,0.0,0.0,0.0,0.0,0.0,0.0,0.0,0.0,0.0,0.0,0.0,0.0,0.0,0.0,0.0,0.0,0.0,0.0,0.0,0.0,0.0,0.0,0.0,0.0,0.0,0.0,0.0,0.0,0.0,0.0,0.0,0.0,0.0,0.0,0.0,0.8994,0.9755,0.0,0.0,0.0,0.0,0.0,0.0,0.0,0.0,0.0,0.0,0.0,0.0,0.0,0.0,1.1887,1.209,1.2177,1.2177,1.2218,1.2209,1.2188,1.1599,1.1807,1.2653,1.2029,0.0,1.2243,1.2084,0.0,0.0,0.0,0.0,0.0,0.0,0.0,0.0,0.0,0.0,0.0,0.0,0.0,0.0,0.0,0.0,0.0,0.0,0.0,0.0,0.0,0.0,0.0,0.0,0.0,0.0,0.0,0.0,0.0,0.0,0.0,0.0,0.0,0.0,0.0,0.0,0.3985,0.4607,0.4981,0.5461,0.6241,0.723,0.6926,0.7471,0.8597,0.8365,0.0,0.0,0.0,0.0,0.0,0.0,0.0,0.0,0.0,0.0,0.0,0.0,0.0,0.0,0.0,0.0,0.0,0.0,0.0,0.0,0.0,0.0,0.0,0.0,0.0,0.0,0.0,0.0,0.0,0.0,0.0,0.0,0.0,0.0,0.0,0.0,0.0,0.0,0.0,0.868,0.8957,0.9194,0.9019,0.9189,0.0,0.0,0.0,0.0,0.0,0.0,0.0,0.0,0.0,1.1407,1.1069,1.0889,1.0889,1.1087,1.118,1.1185,1.1283,1.1396,1.1503,1.1305,1.1529,1.2046,1.1694,1.1559,1.1573,1.1979,1.2273,1.2486,0.0,0.0,0.0,0.0,1.2546,1.2457,0.0,0.0,0.0,0.0,0.0,0.0,0.0,0.0,0.0,0.0,0.0,0.0,0.0,0.0,0.0,0.2275,0.0,0.0,0.0,0.0,0.0,0.0,0.0,0.0,0.0,0.0,0.0,0.374,0.4681,0.5242,0.5479,0.5846,0.6464,0.7216,0.7061,0.773,0.8952,0.8798,0.8522,0.0,0.0,0.0,0.0,0.0,0.0,0.0,0.0,0.0,0.0,0.0,0.0,0.0,0.0,0.0,0.0,0.0,0.0,0.0,0.0,0.0,0.0,0.0,0.0,0.0,0.0,0.0,0.0,0.0,0.0,0.0,0.0,0.0,0.0,0.0,0.0,0.0,0.0,0.8887,0.9024,0.8878,0.9033,0.9377,0.0,0.0,0.0,0.0,0.0,0.0,1.066,1.0343,1.044,1.111,1.0597,1.0318,1.0375,1.0584,1.0669,1.0692,1.0844,1.1,1.1137,1.1288,1.1439,1.157,1.157,1.148,1.1387,1.1824,1.1997,1.197,1.2039,1.206,1.2117,1.2108,1.2072,1.1983,0.0,0.0,0.0,0.0,0.0,0.0,0.0,0.0,0.0,0.0,0.0,0.0,0.0,0.0,0.2416,0.2472,0.2483,0.2459,0.0,0.0,0.0,0.0,0.0,0.0,0.0,0.0,0.0,0.4913,0.5669,0.6116,0.6244,0.6331,0.681,0.7583,0.7552,0.8342,0.9589,0.8841,0.8822,0.9271,0.0,0.0,0.0,0.0,0.0,0.0,0.0,0.0,0.0,0.0,0.0,0.0,0.0,0.0,0.0,0.0,0.0,0.0,0.0,0.0,0.0,0.0,0.0,0.0,0.0,0.0,0.0,0.0,0.0,0.0,0.0,0.0,0.0,0.0,0.0,0.0,0.0,0.0,0.0,0.9274,0.9442,0.0,0.0,0.0,0.0,0.9665,1.0219,1.0502,1.0321,1.0478,1.0683,1.091,1.1057,1.1231,1.1414,1.1612,1.1716,1.1716,1.1725,1.1735,1.1775,1.1784,1.1794,1.1777,1.1777,1.1768,1.1718,1.0982,1.1171,1.1889,1.1698,1.2271,1.3123,1.224,1.191,1.1801,0.0,0.0,0.0,0.0,0.0,0.0,0.0,0.0,0.0,0.158,0.0,0.0,0.0,0.2493,0.262,0.268,0.2743,0.2702,0.2601,0.0,0.0,0.0,0.0,0.0,0.0,0.0,0.4556,0.5321,0.5937,0.6287,0.6352,0.6393,0.6603,0.6955,0.6871,0.7453,0.8489,0.8486,0.8359,0.812,0.8191,0.798,0.0,0.0,0.0,0.0,0.0,0.0,0.0,0.0,0.0,0.0,0.0,0.0,0.0,0.0,0.0,0.0,0.0,0.0,0.0,0.0,0.0,0.0,0.0,0.0,0.0,0.0,0.0,0.0,0.0,0.0,0.0,0.0,0.0,0.0,0.0,0.0,0.0,0.9507,0.9816,0.0,0.0,1.0209,1.0399,1.0424,1.0778,1.1005,1.1071,1.1142,1.134,1.1659,1.174,1.1876,1.2084,1.2027,1.1999,1.1999,1.1857,1.1862,1.1999,1.1999,1.207,1.2183,1.2055,1.1999,1.1966,1.1527,1.1409,1.1411,1.1098,1.1204,1.1523,1.1188,1.1144,1.1202,0.0,0.0,0.0,0.0,0.0,0.0,0.0,0.0,0.0,0.1227,0.1411,0.1742,0.2393,0.2644,0.2676,0.2484,0.253,0.2407,0.2025,0.0,0.0,0.0,0.2591,0.0,0.0,0.4394,0.5062,0.5799,0.6205,0.6448,0.6534,0.6534,0.6577,0.6676,0.6569,0.6887,0.7492,0.7734,0.7779,0.7694,0.7887,0.8011,0.8072,0.0,0.0,0.0,0.0,0.0,0.0,0.0,0.0,0.0,0.0,0.0,0.0,0.0,0.0,0.0,0.0,0.0,0.0,0.0,0.0,0.0,0.0,0.0,0.0,0.0,0.0,0.0,0.0,0.0,0.0,0.0,0.0,0.0,0.0,0.0,1.0266,1.0155,1.0537,1.082,1.082,1.0981,1.1161,1.1278,1.1439,1.1579,1.1791,1.174,1.1895,1.231,1.2351,1.2418,1.2621,1.2489,1.2455,1.245,1.2309,1.2313,1.2455,1.2455,1.2499,1.2644,1.2512,1.2413,1.231,1.2088,1.1839,1.1546,1.1156,1.0995,1.0995,1.0995,1.1085,1.1208,0.0,0.0,0.0,0.0,0.0,0.0,0.0,0.0,0.0,0.1178,0.1362,0.1732,0.2466,0.2706,0.2538,0.1828,0.1825,0.1501,0.0654,0.1213,0.0,0.0,0.0,0.0,0.4397,0.5139,0.5806,0.6406,0.6544,0.6684,0.6801,0.6806,0.6809,0.6815,0.6809,0.6809,0.6804,0.6653,0.7217,0.8126,0.7818,0.8102,0.8678,0.0,0.0,0.0,0.0,0.0,0.0,0.0,0.0,0.0,0.0,0.0,0.0,0.0,0.0,0.0,0.0,0.0,0.0,0.0,0.0,0.0,0.0,0.0,0.0,0.0,0.0,0.0,0.0,0.0,0.0,0.0,0.0,0.0,1.0356,1.066,1.1,1.1198,1.1586,1.1815,1.182,1.2018,1.2145,1.2145,1.215,1.2235,1.2423,1.2249,1.2329,1.2804,1.2814,1.2909,1.3112,1.3107,1.3107,1.3107,1.3098,1.3093,1.3093,1.3093,1.3093,1.3093,1.3093,1.2984,1.279,1.2522,1.2433,1.239,1.1966,1.1801,1.1801,1.1801,1.1822,1.1791,0.0,0.0,0.0,0.0,0.0,0.0,0.0,0.0,-0.0474,0.0069,0.0206,0.0484,0.1082,0.1235,0.1274,0.1165,0.1108,0.099,0.0751,0.0,0.0,0.0,0.0,0.0,0.4609,0.5289,0.5944,0.6547,0.6666,0.6771,0.6804,0.6893,0.7005,0.7081,0.6999,0.7007,0.7073,0.6839,0.6929,0.7175,0.7193,0.7256,0.7415,0.0,0.0,0.0,0.0,0.0,0.0,0.0,0.0,0.0,0.0,0.0,0.0,0.0,0.0,0.0,0.0,0.0,0.0,0.0,0.0,0.0,0.0,0.0,0.0,0.0,0.0,0.0,0.0,0.0,0.0,0.0,0.0,1.1029,1.0948,1.1302,1.1617,1.1829,1.2084,1.2305,1.2516,1.2719,1.2838,1.2838,1.2956,1.3003,1.2899,1.2871,1.2937,1.324,1.3245,1.3344,1.3543,1.3401,1.333,1.3325,1.3169,1.3093,1.3093,1.3093,1.3093,1.3093,1.3093,1.3065,1.3008,1.2946,1.2923,1.2838,1.2244,1.2022,1.2022,1.2022,1.1923,1.1791,0.0,0.0,0.0,0.0,0.0,0.0,0.0,0.0,-0.09,-0.0366,-0.0249,0.0,0.054,0.0696,0.0632,0.0367,0.0355,0.0207,-0.0091,0.0,0.0,0.0,0.0,0.389,0.428,0.5512,0.6367,0.6774,0.6891,0.6975,0.7002,0.7152,0.7244,0.7332,0.7239,0.7244,0.7319,0.7078,0.6977,0.6972,0.694,0.704,0.7263,0.7714,0.8201,0.8672,0.8853,0.9069,0.9225,0.9118,0.0,0.0,0.0,0.0,0.0,0.0,0.0,0.0,0.0,0.0,0.0,0.0,0.0,0.0,0.0,0.0,0.0,0.0,0.0,0.0,0.0,0.0,0.0,0.0,1.1387,1.1808,1.2077,1.2243,1.2422,1.2612,1.2895,1.3154,1.3425,1.3518,1.3584,1.3584,1.3627,1.3632,1.3589,1.3509,1.3518,1.3646,1.3651,1.3665,1.3688,1.3575,1.3543,1.3514,1.3415,1.3358,1.3358,1.3358,1.3358,0.0,1.3358,1.3311,1.3231,1.3231,1.3231,0.0,0.0,0.0,0.0,0.0,1.2398,1.2214,0.0,0.0,0.0,0.0,0.0,0.0,0.0,0.0,-0.0935,-0.0456,-0.0365,-0.0145,0.0323,0.0481,0.0263,-0.0461,-0.047,-0.0707,0.0,0.0,0.0,0.0558,0.2383,0.3513,0.3706,0.5635,0.6762,0.7032,0.716,0.7249,0.733,0.7454,0.7511,0.7511,0.7511,0.7511,0.7524,0.7321,0.7223,0.7204,0.6953,0.7191,0.7648,0.7237,0.7966,0.918,0.8865,0.9082,0.9513,0.9576,0.0,0.0,0.0,0.0,0.0,0.0,0.0,0.0,0.0,0.0,0.0,0.0,0.0,0.0,0.0,0.0,0.0,0.0,0.0,0.0,0.0,0.0,0.0,0.0,1.1945,1.2585,1.3196,1.3154,1.3189,1.3476,1.3821,1.4123,1.4295,1.4319,1.4319,1.4319,1.4185,1.4147,1.4303,0.0,0.0,0.0,0.0,1.3953,1.3759,1.3759,1.375,1.3726,1.3726,1.3726,1.3721,1.3698,1.3712,1.3755,1.3707,1.3603,1.3457,1.3433,1.3424,1.34,1.3216,1.3131,1.3126,1.3107,1.2984,1.2828,0.0,0.0,0.0,0.0,0.0,0.0,0.0,0.0,-0.1078,-0.1024,-0.1067,-0.1048,-0.095,-0.1009,-0.1088,-0.1189,-0.1205,-0.1238,0.0,-0.0771,-0.0326,-0.0194,0.1363,0.2703,0.3754,0.5026,0.6157,0.7149,0.7342,0.7459,0.7457,0.7608,0.7665,0.7665,0.7665,0.7665,0.7657,0.751,0.7448,0.7437,0.7262,0.7128,0.7035,0.7416,0.7746,0.806,0.8368,0.8648,0.8948,0.9496,0.951,0.9434,1.0046,0.0,0.0,0.0,0.0,0.0,0.0,0.0,0.0,0.0,0.0,0.0,0.0,0.0,0.0,0.0,0.0,0.0,0.0,0.0,0.0,1.0952,1.1671,1.226,1.256,1.2831,1.33,1.4054,1.4203,1.4304,1.4521,1.454,1.454,1.454,1.4502,1.4422,1.4317,1.4274,0.0,1.4255,1.4255,1.4232,1.4189,1.4189,1.4109,1.3948,0.0,0.0,1.3944,1.3769,1.3873,1.417,1.3835,1.3764,1.3877,1.3703,1.3632,1.3613,1.3405,1.3329,1.3335,1.316,1.307,1.3036,0.0,0.0,0.0,0.0,0.0,0.0,0.0,0.0,-0.1109,-0.114,-0.1243,-0.1292,-0.1301,-0.1391,-0.1429,-0.1414,-0.1399,0.0,-0.1455,-0.1172,-0.099,-0.0995,0.0541,0.1686,0.2336,0.3769,0.5094,0.6336,0.6521,0.6953,0.7614,0.7731,0.7785,0.7785,0.7785,0.7785,0.778,0.766,0.7611,0.7595,0.7381,0.72,0.7078,0.7269,0.7546,0.7885,0.8125,0.8449,0.8858,0.9198,0.9153,0.9104,0.975,0.9655,0.9322,0.0,0.0,0.0,0.0,0.0,0.0,0.0,0.0,0.0,0.0,0.0,0.0,0.0,0.0,0.9935,0.0,0.0,1.0239,1.0639,1.1213,1.1677,1.1921,1.2198,1.2722,1.3566,1.3304,1.3105,1.3202,1.3637,1.3734,1.3243,1.3669,1.369,1.3075,1.3035,1.3221,1.3644,1.3639,1.3843,1.4312,1.4312,1.426,1.4161,1.4161,1.4161,1.4161,1.4048,1.4114,1.4298,1.409,1.4062,1.4116,1.3939,1.3849,1.383,1.3622,1.3537,1.3528,1.3448,1.3344,1.3259,0.0,0.0,0.0,0.0,0.0,0.0,0.0,0.0,0.0,0.0,-0.1227,-0.1306,-0.1291,-0.1341,-0.1373,0.0,0.0,-0.1438,-0.15,-0.1562,-0.1612,-0.1624,-0.0266,0.0574,0.0795,0.238,0.3807,0.5086,0.5507,0.6279,0.7346,0.7737,0.7903,0.7903,0.7903,0.7903,0.7897,0.7774,0.7733,0.7717,0.7465,0.7362,0.7319,0.7133,0.7384,0.7848,0.7795,0.8073,0.8485,0.8638,0.8582,0.8513,0.912,0.9222,0.9144,0.9328,0.8982,0.0,0.0,0.0,0.0,0.0,0.0,0.0,0.0,0.0,0.8648,0.9517,0.9381,0.9372,1.0268,1.0097,0.994,1.0279,1.0674,1.1031,1.1232,1.1414,1.175,1.237,1.2076,1.1795,1.1795,1.252,1.2684,1.1861,1.2553,1.2651,1.1828,1.1795,1.2096,1.2746,1.277,1.3086,1.3825,1.3825,1.3803,1.3771,1.3771,1.3771,1.3735,1.3694,1.3717,1.3821,1.3784,1.3726,1.3635,1.3481,1.34,1.3345,1.3208,1.3264,1.3414,1.3629,1.3584,1.3447,0.0,0.0,0.0,0.0,0.0,0.0,0.0,0.0,0.0,0.0,0.0,0.0,0.0,0.0,0.0,0.0,-0.136,-0.1438,-0.15,-0.1562,-0.1622,-0.168,-0.1287,-0.0578,0.0446,0.1298,0.233,0.3556,0.5109,0.5953,0.6137,0.7342,0.7903,0.7903,0.7903,0.7903,0.79,0.7886,0.7883,0.7872,0.7712,0.7595,0.7454,0.7319,0.7276,0.7251,0.7011,0.6905,0.6978,0.7747,0.7879,0.7894,0.8966,0.8932,0.8497,0.8537,0.0,0.7727,0.7691,0.7816,0.8038,0.8356,0.8478,0.864,0.0,0.0,0.9213,0.9603,0.9747,0.9892,1.0193,0.9721,0.937,0.9646,1.0149,1.0447,1.0366,1.0478,1.0547,1.0531,1.1255,1.1795,1.1795,1.1894,1.1927,1.1795,1.1894,1.1927,1.1795,1.1795,1.1853,1.1933,1.1933,1.1987,1.2067,1.2067,1.1994,1.1819,1.1819,1.1819,1.1816,1.1563,1.1686,1.2059,1.1885,1.1643,1.1356,1.134,1.1279,1.1149,1.1129,1.1631,1.2479,1.3359,1.3704,1.3655,0.0,0.0,0.0,0.0,0.0,0.0,0.0,0.0,0.0,0.0,0.0,0.0,0.0,0.0,0.0,0.0,-0.132,-0.1376,-0.1499,-0.1554,-0.1624,-0.1684,-0.1486,-0.113,-0.0654,-0.0206,0.0774,0.2255,0.2978,0.4224,0.5919,0.6464,0.7164,0.7903,0.7903,0.7903,0.7903,0.7903,0.7864,0.7763,0.7644,0.7492,0.7362,0.7203,0.7056,0.6964,0.6836,0.6722,0.0,0.0,0.7094,0.7195,0.8126,0.8207,0.7993,0.8363,0.8027,0.0,0.7436,0.7567,0.0,0.0,0.8385,0.8346,0.8562,0.8355,0.8314,0.9116,0.8993,0.8979,0.9722,0.931,0.8923,0.0,0.9371,0.9479,0.9415,0.9445,0.9404,0.9168,0.9603,0.9945,0.9945,1.0505,1.0604,0.9978,1.0505,1.0604,0.9978,0.9945,1.021,1.0836,1.0869,1.1167,1.1795,1.1795,1.1761,1.1665,1.1665,1.1665,1.1661,1.1554,1.1598,1.1791,1.1724,1.1615,1.1445,1.1352,1.1217,1.1072,1.1006,1.1137,1.1511,1.2479,1.3204,1.3688,0.0,0.0,0.0,0.0,0.0,0.0,0.0,0.0,0.0,0.0,0.0,0.0,0.0,0.0,0.0,0.0,-0.1297,-0.1348,-0.1473,-0.1541,-0.1593,-0.1677,-0.1539,-0.1499,-0.1513,-0.1228,-0.0502,0.0706,0.1173,0.2507,0.4691,0.5407,0.6284,0.7319,0.7686,0.7853,0.7853,0.7853,0.7777,0.769,0.7568,0.7395,0.7263,0.7062,0.6866,0.67,0.67,0.6603,0.0,0.0,0.6472,0.6578,0.7192,0.731,0.7337,0.7784,0.757,0.7183,0.7067,0.0,0.0,0.8026,0.8074,0.802,0.8106,0.7817,0.7789,0.8669,0.8451,0.8343,0.9161,0.8927,0.0,0.8784,0.8872,0.8876,0.8822,0.8803,0.8716,0.8446,0.8459,0.8503,0.8538,0.9296,0.9446,0.8653,0.9316,0.9416,0.8653,0.8587,0.895,0.9745,0.9745,1.014,1.0902,1.0935,1.0935,1.0935,1.0935,1.0935,1.0935,1.0935,1.0935,1.0935,1.0935,1.0911,1.0833,1.0697,1.0559,1.0453,1.0355,1.0378,1.0586,1.1256,1.211,1.2904,0.0,0.0,0.0,0.0,0.0,0.0,0.0,0.0,0.0,0.0,0.0,0.0,0.0,0.0,0.0,0.0,-0.1306,-0.1329,-0.1388,-0.1455,-0.1532,-0.1592,-0.1651,-0.1709,-0.1795,-0.1461,-0.1285,-0.1326,0.0324,0.1295,0.1677,0.4172,0.5465,0.5823,0.7114,0.7706,0.7706,0.7706,0.7703,0.769,0.7568,0.7375,0.7174,0.7057,0.676,0.6423,0.6423,0.0,0.0,0.0,0.6126,0.6145,0.6289,0.6349,0.0,0.6448,0.6456,0.0,0.0,0.0,0.6873,0.702,0.7295,0.7591,0.7856,0.8035,0.8212,0.8369,0.8519,0.8601,0.8609,0.8615,0.8628,0.8784,0.8872,0.8876,0.8822,0.8803,0.8716,0.8446,0.8285,0.8261,0.0,0.8555,0.862,0.8587,0.862,0.862,0.8587,0.8587,0.862,0.8653,0.8653,0.8653,0.8687,0.8687,0.8687,0.8687,0.8687,0.8687,0.8687,0.8687,0.8687,0.8687,0.8687,0.8624,0.8489,0.8484,0.841,0.8297,0.8297,0.8895,0.9742,0.9773,1.0253,1.088,0.0,0.0,0.0,0.0,0.0,0.0,0.0,0.0,0.0,0.0,0.0,0.0,0.0,0.0,0.0,0.0,0.0,0.0,-0.1338,-0.1442,-0.152,-0.1585,-0.1708,-0.1772,-0.1792,-0.1701,-0.1523,-0.134,-0.0778,0.0087,0.1244,0.2104,0.3346,0.4845,0.5314,0.5831,0.6371,0.6371,0.6524,0.6764,0.6727,0.68,0.6917,0.6639,0.6459,0.6285,0.0,0.0,0.0,0.0,0.0,0.0,0.6132,0.0,0.0,0.6355,0.0,0.0,0.0,0.0,0.7326,0.7553,0.7755,0.7968,0.8179,0.8296,0.8337,0.8378,0.835,0.8329,0.8282,0.8299,0.8394,0.8516,0.8738,0.8876,0.8822,0.884,0.8708,0.831,0.8299,0.0,0.0,0.0,0.0,0.8581,0.8587,0.8587,0.8587,0.8587,0.8587,0.8587,0.8587,0.8587,0.8587,0.8587,0.8587,0.8587,0.8587,0.8587,0.8587,0.8587,0.8587,0.8587,0.8587,0.8565,0.853,0.853,0.8462,0.8331,0.844,0.8567,0.8721,0.8807,0.8954,0.9259,0.0,0.0,0.0,0.0,0.0,0.0,0.0,0.0,0.0,0.0,0.0,0.0,0.0,0.0,0.0,0.0,0.0,0.0,0.0,-0.1392,-0.1453,-0.1529,-0.1616,-0.1668,-0.1705,-0.1699,-0.1582,-0.138,-0.1386,-0.0824,0.0275,0.0703,0.1702,0.3233,0.3994,0.4636,0.5184,0.5469,0.5702,0.5904,0.5867,0.592,0.6032,0.5792,0.5662,0.0,0.0,0.0,0.0,0.0,0.0,0.0,0.0,0.0,0.0,0.0,0.0,0.0,0.0,0.7429,0.7701,0.794,0.8092,0.8268,0.8435,0.8478,0.8467,0.8394,0.8288,0.8166,0.8107,0.8081,0.816,0.8294,0.8513,0.8665,0.8738,0.8736,0.8613,0.8304,0.8299,0.0,0.0,0.0,0.0,0.8579,0.8587,0.8587,0.8587,0.8587,0.8587,0.8587,0.8587,0.8587,0.8587,0.8587,0.8587,0.8587,0.8587,0.8587,0.8587,0.8587,0.8587,0.8587,0.8587,0.8587,0.8587,0.8587,0.8546,0.8486,0.856,0.8494,0.8337,0.8448,0.8402,0.844,0.0,0.0,0.0,0.0,0.0,0.0,0.0,0.0,0.0,0.0,0.0,0.0,0.0,0.0,0.0,0.0,0.0,0.0,0.0,-0.1309,0.0,-0.1386,-0.1396,-0.1427,-0.1501,-0.1502,-0.1493,-0.15,-0.1557,-0.146,-0.1184,-0.0104,0.0581,0.1031,0.3092,0.4038,0.4146,0.4932,0.5236,0.5118,0.5002,0.483,0.4683,0.4603,0.0,0.0,0.0,0.0,0.0,0.0,0.0,0.0,0.0,0.0,0.0,0.0,0.0,0.7231,0.7308,0.763,0.799,0.8169,0.8313,0.8454,0.8562,0.8584,0.8543,0.8416,0.8261,0.8137,0.0,0.0,0.7932,0.8145,0.8202,0.8294,0.8562,0.8505,0.8435,0.0,0.0,0.0,0.0,0.0,0.0,0.8587,0.0,0.8587,0.8587,0.8587,0.859,0.8598,0.859,0.859,0.8598,0.859,0.8587,0.8587,0.8587,0.8587,0.8587,0.8587,0.8587,0.8587,0.8587,0.8587,0.8587,0.8587,0.8587,0.8587,0.8587,0.8587,0.8587,0.8587,0.8519,0.8378,0.0,0.0,0.0,0.0,0.0,0.0,0.0,0.0,0.0,0.0,0.0,0.0,0.0,0.0,0.0,0.0,0.0,0.0,0.0,0.0,0.0,0.0,0.0,0.0,0.0,0.0,0.0,-0.1492,-0.1508,-0.1479,-0.1428,-0.1123,-0.0589,0.0147,0.1208,0.2025,0.2691,0.3383,0.3874,0.4146,0.0,0.4274,0.4524,0.0,0.0,0.0,0.0,0.0,0.0,0.0,0.0,0.0,0.0,0.0,0.6599,0.0,0.0,0.7491,0.7821,0.807,0.8334,0.8573,0.859,0.8552,0.8581,0.8522,0.8375,0.8073,0.7918,0.7771,0.0,0.0,0.0,0.7926,0.8193,0.0,0.8724,0.8732,0.0,0.0,0.0,0.835,0.8383,0.8386,0.0,0.0,0.8638,0.8587,0.8587,0.8587,0.863,0.8754,0.8669,0.8664,0.8757,0.8667,0.8587,0.8587,0.8587,0.8587,0.8587,0.8587,0.8587,0.8587,0.8587,0.8587,0.8587,0.8587,0.8587,0.8587,0.8587,0.8587,0.8587,0.8587,0.8568,0.8541,0.0,0.0,0.0,0.0,0.0,0.0,0.0,0.0,0.0,0.0,0.0,0.0,0.0,0.0,0.0,0.0,0.0,0.0,0.0,0.0,0.0,0.0,0.0,0.0,0.0,0.0,0.0,0.0,0.0,0.0,-0.1403,-0.1451,-0.1184,-0.0696,0.0046,0.0789,0.153,0.2274,0.0,0.0,0.0,0.0,0.0,0.0,0.0,0.0,0.0,0.0,0.0,0.0,0.0,0.6219,0.6369,0.6622,0.6915,0.7253,0.0,0.7809,0.8065,0.8348,0.8592,0.8705,0.8713,0.8628,0.847,0.835,0.8204,0.7872,0.7703,0.0,0.0,0.0,0.0,0.0,0.0,0.0,0.8675,0.8724,0.8704,0.0,0.8656,0.0,0.8619,0.8619,0.8673,0.0,0.8736,0.869,0.8745,0.8747,0.878,0.8848,0.8731,0.8707,0.8724,0.8656,0.8587,0.8587,0.8587,0.8587,0.8587,0.8587,0.8587,0.8587,0.0,0.8587,0.8587,0.8587,0.8587,0.8587,0.8587,0.8587,0.8587,0.8587,0.8587,0.8587,0.0,0.0,0.0,0.0,0.0,0.0,0.0,0.0,0.0,0.0,0.0,0.0,0.0,0.0,0.0,0.0,0.0,0.0,0.0,0.0,0.0,0.0,0.0,0.0,0.0,0.0,0.0,0.0,0.0,0.0,0.0,0.0,0.0,0.0,0.0,0.0,0.0,0.0,0.0,0.0,0.0,0.0,0.0,0.0,0.0,0.0,0.0,0.0,0.0,0.0,0.5692,0.6402,0.6597,0.6923,0.7299,0.75,0.7809,0.8134,0.8196,0.8511,0.8778,0.8672,0.8713,0.8658,0.828,0.8177,0.8053,0.7728,0.0,0.0,0.7305,0.0,0.7411,0.7684,0.0,0.8118,0.8568,0.8622,0.8701,0.8914,0.8927,0.8916,0.8916,0.8916,0.8924,0.8938,0.8878,0.8856,0.8914,0.8916,0.8911,0.8892,0.8823,0.8746,0.859,0.8587,0.8587,0.8587,0.8587,0.8587,0.8587,0.8587,0.8587,0.8587,0.0,0.0,0.8587,0.8587,0.8587,0.8587,0.8587,0.8587,0.8587,0.8587,0.8587,0.8587,0.0,0.0,0.0,0.0,0.0,0.0,0.0,0.0,0.0,0.0,-0.2255,-0.1667,0.0,0.0,0.0,0.0,0.0,0.0,0.0,0.0,0.0,0.0,0.0,0.0,0.0,0.0,0.0,0.0,0.0,0.0,0.0,0.0,0.0,0.0,0.0,0.0,0.0,0.0,0.0,0.0,0.0,0.0,0.0,0.0,0.0,0.0,0.0,0.0,0.0,0.0,0.5169,0.6736,0.6877,0.7236,0.7633,0.7799,0.7997,0.8199,0.8321,0.8573,0.8798,0.8778,0.8713,0.8552,0.8261,0.8079,0.0,0.0,0.0,0.7303,0.7237,0.735,0.0,0.7834,0.0,0.0,0.0,0.0,0.8829,0.0,0.0,0.0,0.0,0.0,0.0,0.0,0.0,0.9,0.8922,0.8916,0.887,0.8804,0.8817,0.8746,0.859,0.8587,0.8587,0.8587,0.8587,0.8587,0.8587,0.8587,0.8587,0.8587,0.8587,0.0,0.8587,0.8587,0.8587,0.8587,0.8587,0.8587,0.8587,0.8587,0.8587,0.8587,0.0,0.0,0.0,0.0,0.0,0.0,0.0,-0.3608,-0.3374,-0.3141,-0.2767,-0.2294,-0.1687,-0.1608,-0.1531,0.0,0.0,0.0,0.0,0.0,0.0,0.0,0.0,0.0,0.0,0.0,0.0,0.0,0.0,0.0,0.0,0.0,0.0,0.0,0.0,0.0,0.0,0.0,0.0,0.0,0.0,0.0,0.0,0.0,0.0,0.0,0.0,0.0,0.0,0.0,0.4417,0.5994,0.6756,0.7271,0.7655,0.7924,0.8095,0.8242,0.8456,0.8682,0.8834,0.8706,0.8664,0.8492,0.813,0.0,0.0,0.0,0.0,0.6493,0.7082,0.0,0.0,0.0,0.0,0.0,0.0,0.0,0.0,0.0,0.0,0.0,0.0,0.0,0.0,0.0,0.0,0.916,0.9103,0.91,0.9046,0.8965,0.8897,0.8807,0.8718,0.8619,0.8587,0.8587,0.8587,0.8587,0.8587,0.8587,0.8587,0.8587,0.8587,0.0,0.8587,0.8587,0.8587,0.8587,0.8587,0.8587,0.8587,0.8587,0.8587,0.8587,0.0,0.0,0.0,0.0,0.0,0.0,0.0,-0.3802,-0.3667,-0.3295,-0.3258,-0.2961,-0.2235,-0.1999,-0.1764,0.0,0.0,0.0,0.0,0.0,0.0,0.0,0.0,0.0,0.0,0.0,0.0,0.0,0.0,0.0,0.0,0.0,0.0,0.0,0.0,0.0,0.0,0.0,0.0,0.0,0.0,0.0,0.0,0.0,0.0,0.0,0.0,0.0,0.0,0.0,0.3359,0.4503,0.5678,0.6735,0.7557,0.7678,0.793,0.8256,0.8522,0.8507,0.8375,0.8169,0.7913,0.7579,0.7127,0.6137,0.0,0.0,0.5676,0.5314,0.626,0.0,0.0,0.0,0.0,0.0,0.0,0.0,0.0,0.0,0.0,0.0,0.0,0.0,0.0,0.0,0.0,0.0,0.9304,0.928,0.9179,0.9065,0.8943,0.8853,0.8768,0.8669,0.8587,0.8587,0.8587,0.8587,0.8587,0.8587,0.8587,0.8587,0.8587,0.0,0.0,0.8587,0.8587,0.8587,0.8587,0.8587,0.8587,0.8587,0.8587,0.8587,0.0,0.0,0.0,0.0,0.0,0.0,0.0,-0.3802,-0.3782,-0.3743,-0.3743,-0.3548,-0.3041,-0.2333,-0.1882,0.0,0.0,0.0,0.0,0.0,0.0,0.0,0.0,0.0,0.0,0.0,0.0,0.0,0.0,0.0,0.0,0.0,0.0,0.0,0.0,0.0,0.0,0.0,0.0,0.0,0.0,0.0,0.0,0.0,0.0,0.0,0.0,0.0,0.0,0.0,0.0,0.2126,0.2794,0.5164,0.7532,0.6719,0.0,0.0,0.8522,0.7735,0.6772,0.6635,0.563,0.4613,0.4339,0.0,0.0,0.393,0.3832,0.3804,0.3916,0.4026,0.0,0.0,0.0,0.0,0.0,0.0,0.0,0.0,0.0,0.0,0.0,0.0,0.0,0.0,0.0,0.0,0.9304,0.9171,0.9057,0.8938,0.8851,0.8762,0.8606,0.8592,0.8587,0.8587,0.8587,0.8587,0.8587,0.8587,0.8587,0.8587,0.8587,0.0,0.0,0.8587,0.8587,0.8587,0.8587,0.8587,0.8587,0.8587,0.8587,0.8587,0.0,0.0,0.0,0.0,0.0,0.0,-0.3802,-0.3802,-0.3802,-0.3802,-0.3802,-0.3724,-0.355,-0.2981,-0.2531,-0.2275,0.0,0.0,0.0,0.0,0.0,0.0,0.0,0.0,0.0,0.0,0.0,0.0,0.0,0.0,0.0,0.0,0.0,0.0,0.0,0.0,0.0,0.0,0.0,0.0,0.0,0.0,0.0,0.0,0.0,0.0,0.0,0.0,0.0,0.0,0.0,0.0,0.1048,0.2754,0.0,0.0,0.5136,0.5778,0.5966,0.569,0.5315,0.5164,0.4671,0.4127,0.3941,0.0,0.0,0.3474,0.3022,0.2742,0.3469,0.3656,0.3885,0.0,0.0,0.0,0.0,0.0,0.0,0.0,0.0,0.0,0.0,0.0,0.0,0.0,0.0,0.0,0.9168,0.9223,0.9114,0.8922,0.887,0.8821,0.8732,0.8625,0.8587,0.8587,0.8587,0.8587,0.8587,0.8587,0.8587,0.8587,0.8587,0.0,0.0,0.8587,0.8587,0.8587,0.8587,0.8587,0.8587,0.8587,0.8587,0.8587,0.0,0.0,0.0,0.0,0.0,-0.3802,-0.3802,-0.3802,-0.3802,-0.3802,-0.3802,-0.3802,-0.3802,-0.3511,-0.3198,-0.2902,-0.2392,0.0,0.0,0.0,0.0,0.0,0.0,0.0,0.0,0.0,0.0,0.0,0.0,0.0,0.0,0.0,0.0,0.0,0.0,0.0,0.0,0.0,0.0,0.0,0.0,0.0,0.0,0.0,0.0,0.0,0.0,0.0,0.0,0.0,0.0,0.0,0.0,0.0,0.0,0.0,0.3421,0.3979,0.424,0.4048,0.3783,0.3675,0.3281,0.2874,0.0,0.0,0.1512,0.2351,0.1847,0.154,0.2379,0.2547,0.2688,0.3188,0.0,0.3538,0.0,0.0,0.0,0.0,0.0,0.0,0.0,0.0,0.0,0.0,0.0,0.0,0.0,0.9174,0.9144,0.887,0.8865,0.884,0.8751,0.863,0.8587,0.8587,0.8587,0.8587,0.8587,0.8587,0.8587,0.8587,0.0,0.0,0.0,0.8587,0.8587,0.8587,0.8587,0.8587,0.8587,0.8587,0.8587,0.8587,0.0,0.0,0.0,0.0,0.0,0.0,-0.3802,-0.3802,-0.3802,-0.3802,-0.3802,-0.3802,-0.3802,-0.3802,-0.3782,-0.3782,-0.2999,0.0,0.0,0.0,0.0,0.0,0.0,0.0,0.0,0.0,-0.1296,-0.1296,-0.1296,0.0,0.0,0.0,0.0,0.0,0.0,0.0,0.0,0.0,0.0,0.0,0.0,0.0,0.0,0.0,0.0,0.0,0.0,0.0,0.0,0.0,0.0,0.0,0.0,0.0,0.0,0.0,0.2573,0.3636,0.4151,0.3243,0.2126,0.2126,0.106,0.003,0.0,0.0,0.0028,0.0028,0.0028,0.0028,0.0028,0.0028,0.0482,0.1814,0.2029,0.0,0.0,0.0,0.0,0.0,0.0,0.0,0.0,0.0,0.0,0.0,0.0,0.0,0.0,0.91,0.9024,0.8814,0.8806,0.8748,0.859,0.8587,0.8587,0.8587,0.8587,0.8587,0.8587,0.8587,0.8587,0.0,0.0,0.0,0.0,0.8587,0.8587,0.8587,0.8587,0.8587,0.8587,0.8587,0.8587,0.8587,0.0,0.0,0.0,0.0,0.0,0.0,0.0,-0.3802,-0.3802,-0.3802,-0.3802,-0.3802,-0.3802,-0.3802,-0.3802,-0.3802,-0.3256,0.0,0.0,0.0,0.0,0.0,0.0,0.0,0.0,0.0,-0.1296,-0.1296,-0.1296,-0.1296,-0.1296,0.0,0.0,0.0,0.0,0.0,0.0,0.0,0.0,0.0,0.0,0.0,0.0,0.0,0.0,0.0,0.0,0.0,0.0,0.0,0.0,0.0,0.0,0.0,0.0,0.0,0.0,0.0,0.1252,0.1022,0.0676,0.0669,0.033,0.0,0.0,0.0,0.0,0.0,0.0,0.0,0.0,0.0,0.0142,0.0556,0.0648,0.0,0.0,0.0,0.0,0.0,0.0,0.0,0.0,0.0,0.0,0.0,0.0,0.0,0.0,0.8413,0.8851,0.8808,0.8803,0.8746,0.859,0.8587,0.8587,0.8587,0.8587,0.8587,0.8587,0.8587,0.0,0.0,0.0,0.0,0.0,0.8587,0.8587,0.8587,0.8587,0.8587,0.8587,0.8587,0.8587,0.8587,0.0,0.0,0.0,0.0,0.0,0.0,0.0,-0.3802,-0.3802,-0.3802,-0.3802,-0.3802,-0.3802,-0.3802,-0.3802,-0.3802,-0.353,0.0,0.0,0.0,0.0,0.0,0.0,0.0,0.0,-0.1296,-0.1296,-0.1296,-0.1296,-0.1296,-0.1296,-0.1296,-0.1296,0.0,0.0,0.0,0.0,0.0,0.0,0.0,0.0,0.0,-0.126,0.0,0.0,0.0,0.0,0.0,0.0,0.0,0.0,0.0,0.0,0.0,0.0,0.0,0.0,0.0,0.0,-0.0144,-0.0118,-0.0029,0.0,0.0,0.0,0.0,0.0,0.0,0.0,0.0,0.0,0.0,0.0,0.0,0.0,0.0,0.0,0.0,0.0,0.0,0.0,0.0,0.0,0.0,0.0,0.0,0.0,0.0,0.0,0.6743,0.7431,0.7949,0.8452,0.8699,0.859,0.8587,0.8587,0.8587,0.8587,0.8587,0.8587,0.8587,0.0,0.0,0.0,0.0,0.0,0.8587,0.8587,0.8587,0.8587,0.8587,0.8587,0.8587,0.8587,0.8587,0.0,0.0,0.0,0.0,0.0,0.0,0.0,-0.3802,-0.3802,-0.3802,-0.3743,-0.3704,-0.3704,-0.3704,-0.3704,-0.3704,0.0,0.0,0.0,0.0,0.0,0.0,0.0,0.0,0.0,-0.1335,-0.1335,-0.1296,-0.1296,-0.1296,-0.1296,-0.1296,-0.1296,-0.1296,-0.1257,0.0,0.0,0.0,0.0,0.0,0.0,0.0,0.0,0.0,0.0,0.0,0.0,0.0,0.0,0.0,0.0,0.0,0.0,0.0,0.0,0.0,0.0,0.0,0.0,0.0,0.0,0.0,0.0,0.0,0.0,0.0,0.0,0.0,0.0,0.0,0.0,0.0,0.0,0.0,0.0,0.0,0.0,0.0,0.0,0.0,0.0,0.0,0.0,0.0,0.0,0.0,0.0,0.0,0.0,0.4516,0.5099,0.6407,0.774,0.8487,0.8587,0.8587,0.8587,0.8587,0.8587,0.8587,0.8587,0.8587,0.0,0.0,0.0,0.0,0.0,0.8587,0.8587,0.8587,0.8587,0.8587,0.8587,0.8587,0.8587,0.8587,0.0,0.0,0.0,0.0,0.0,0.0,0.0,0.0,0.0,0.0,-0.3214,-0.2805,-0.2805,-0.2805,-0.2805,0.0,0.0,0.0,0.0,0.0,0.0,0.0,0.0,0.0,0.0,-0.1764,-0.1608,-0.1296,-0.1296,-0.1296,-0.1296,-0.1296,-0.1296,-0.1277,-0.0766,-0.053,0.0,0.0,0.0,0.0,0.0,0.0,0.0,0.0,0.0,0.0,-0.1365,-0.1367,0.0,0.0,0.0,0.0,0.0,0.0,0.0,0.0,-0.1516,-0.1442,-0.1098,0.0,-0.0639,-0.0373,-0.0296,0.0,0.0,0.0,0.0,0.0,0.0,0.0,0.0,0.0,0.0,0.0,0.0,0.0,0.0,0.0,0.0,0.0,0.0,0.0,0.0,0.0,0.0,0.0,0.0,0.0,0.0,0.3822,0.454,0.4965,0.6252,0.7448,0.8587,0.8587,0.8587,0.8587,0.8587,0.8587,0.8587,0.8587,0.0,0.0,0.0,0.0,0.8587,0.8587,0.8587,0.8587,0.8587,0.8587,0.8587,0.8587,0.8587,0.8587,0.0,0.0,0.0,0.0,0.0,0.0,0.0,0.0,0.0,0.0,0.0,-0.2648,-0.3059,-0.241,0.0,0.0,0.0,0.0,0.0,0.0,0.0,0.0,0.0,-0.2314,-0.1901,-0.2078,-0.1883,-0.1296,-0.1492,-0.1472,-0.1296,-0.0982,-0.0845,-0.0825,-0.0471,-0.0137,0.0,0.0,0.0,0.0,0.0,0.0,0.0,0.0,0.0,0.0,-0.138,-0.14,0.0,-0.1395,-0.1401,-0.1405,0.0,0.0,0.0,0.0,-0.1592,-0.1566,-0.1415,-0.1211,-0.092,-0.05,-0.0402,-0.0328,0.0,0.0,0.0,0.0,0.0,0.0,0.0,0.0,0.0,0.0,0.0,0.0,0.0,0.0,0.0,0.0,0.0,0.0,0.0,0.0,0.0,0.0,0.0,0.0,0.0,0.1945,0.2662,0.336,0.4078,0.5436,0.7581,0.8251,0.8587,0.8587,0.8587,0.8587,0.8587,0.8587,0.8587,0.0,0.0,0.0,0.8587,0.8587,0.8587,0.8587,0.8587,0.8587,0.8587,0.8587,0.8587,0.8587,0.0,0.0,0.0,0.0,0.0,0.0,0.0,0.0,0.0,0.0,0.0,0.0,0.0,0.0,0.0,0.0,0.0,0.0,0.0,0.0,0.0,0.0,0.0,-0.2451,-0.1921,-0.2235,-0.1981,-0.11,-0.1437,-0.142,-0.1027,-0.0454,-0.0118,-0.002,-0.002,0.0275,0.0,0.0,0.0,0.0,0.0,0.0,0.0,0.0,0.0,0.0,0.0,0.0,0.0,-0.139,-0.139,-0.1405,-0.1469,0.0,0.0,0.0,0.0,0.0,-0.1622,-0.1483,-0.1226,-0.0664,-0.0517,-0.039,0.0,0.0,0.0,0.0,0.0,0.0,0.0,0.0,0.0,0.0,0.0,0.0,0.0,0.0,0.0,0.0,0.0,0.0,0.0,0.0,0.0,0.0,0.0,0.0,0.0,0.0,0.0538,0.1748,0.1983,0.3258,0.5705,0.7412,0.8387,0.8587,0.8587,0.8587,0.8587,0.8587,0.8587,0.0,0.0,0.0,0.8587,0.8587,0.8587,0.8587,0.8587,0.8587,0.8587,0.8587,0.8587,0.8587,0.0,0.0,0.0,0.0,0.0,0.0,0.0,0.0,0.0,0.0,0.0,0.0,0.0,0.0,0.0,0.0,0.0,0.0,0.0,0.0,0.0,-0.2531,-0.3215,-0.3077,-0.1921,-0.196,-0.1412,-0.0196,-0.026,-0.0142,0.0142,0.0243,0.066,0.1313,0.1313,0.1387,0.1515,0.0,0.0,0.0,0.0,0.0,0.0,0.0,0.0,0.0,0.0,0.0,0.0,-0.139,-0.139,-0.1401,-0.149,0.0,0.0,0.0,0.0,0.0,-0.1674,-0.1653,-0.1566,-0.123,-0.098,-0.0729,0.0,0.0,0.0,0.0,0.0,0.0,0.0,0.0,0.0,0.0,0.0,0.0,0.0,0.0,0.0,0.0,0.0,0.0,0.0,0.0,0.0,0.0,0.0,0.0,0.0,0.0,0.0101,0.0303,0.1479,0.2319,0.2755,0.5402,0.7381,0.8587,0.8587,0.8587,0.8587,0.8587,0.8587,0.0,0.0,0.8587,0.8587,0.8587,0.8587,0.8587,0.8587,0.8587,0.8587,0.8587,0.8587,0.8587,0.0,0.0,0.0,0.0,0.0,0.0,0.0,0.0,0.0,0.0,0.0,0.0,0.0,0.0,0.0,0.0,0.0,0.0,0.0,0.0,0.0,-0.1862,-0.2233,-0.2057,-0.1214,-0.145,-0.1065,0.0,-0.0081,0.0061,0.0407,0.0843,0.1426,0.2059,0.137,0.1487,0.2134,0.1461,0.0,0.0,0.0,0.0,0.0,0.0,0.0,0.0,0.0,0.0,0.0,0.0,-0.1392,-0.1403,-0.1486,0.0,0.0,0.0,0.0,0.0,-0.1634,-0.167,-0.1674,-0.1556,-0.1209,-0.0822,0.0,0.0,0.0,0.0,0.0,0.0,0.0,0.0,0.0,0.0,0.0,0.0,0.0,0.0,0.0,0.0,0.0,0.0,0.0,0.0,0.0,0.0,0.0,0.0,0.0,0.0,0.0,0.0,0.0639,0.1345,0.2084,0.3425,0.5202,0.7414,0.8218,0.8587,0.8587,0.8587,0.8587,0.8587,0.0,0.8587,0.8587,0.8587,0.8587,0.8587,0.8587,0.8587,0.8587,0.8587,0.8587,0.8587,0.0,0.0,0.0,0.0,0.0,0.0,0.0,0.0,0.0,0.0,0.0,0.0,0.0,0.0,0.0,0.0,0.0,0.0,0.0,0.0,-0.1214,-0.0999,-0.0999,-0.0823,-0.047,-0.0807,-0.0537,0.0383,0.0285,0.0449,0.0833,0.1515,0.2069,0.2454,0.1506,0.1548,0.2318,0.1531,0.091,0.0,0.0,0.0,0.0,0.0,0.0,0.0,0.0,0.0,0.0,0.0,0.0,0.0,0.0,0.0,0.0,-0.1574,-0.1592,-0.1593,-0.1626,-0.1665,-0.1704,-0.1704,0.0,0.0,0.0,0.0,0.0,0.0,0.0,0.0,0.0,0.0,0.0,0.0,0.0,0.0,0.0,0.0,0.0,0.0,0.0,0.0,0.0,0.0,0.0,0.0,0.0,0.0,0.0,0.0,0.0,0.0,0.0,0.0505,0.1614,0.195,0.3392,0.5938,0.7379,0.8084,0.8084,0.8454,0.8587,0.8587,0.8587,0.8587,0.8587,0.8587,0.8587,0.8587,0.8587,0.8587,0.8587,0.8587,0.8587,0.8587,0.0,0.0,0.0,0.0,0.0,0.0,0.0,0.0,0.0,0.0,0.0,0.0,0.0,0.0,0.0,0.0,0.0,0.0,0.0,0.0,-0.094,-0.0137,-0.0098,-0.0078,-0.0039,-0.008,0.0421,0.1477,0.1541,0.1742,0.2072,0.2393,0.2524,0.2494,0.2473,0.2159,0.1721,0.2363,0.1539,-0.0174,0.0,0.0,0.0,0.0,0.0,0.0,0.0,0.0,0.0,0.0,0.0,0.0,0.0,0.0,-0.1514,-0.1574,-0.1592,-0.1623,-0.1677,-0.1707,-0.1704,-0.1704,-0.1285,0.0,-0.0868,-0.0425,0.0,0.0,0.0,0.0,0.0,0.0,0.0,0.0,0.0,0.0,0.0,0.0,0.0,0.0,0.0,0.0,0.0,0.0,0.0,0.0,0.0,0.0,0.0,0.0,0.0,0.0,0.0,0.0034,0.0135,0.1446,0.2888,0.446,0.5871,0.6543,0.661,0.7984,0.8587,0.8587,0.8587,0.8587,0.8587,0.8587,0.8587,0.8587,0.8587,0.8587,0.8587,0.8587,0.8587,0.8587,0.0,0.0,0.0,0.0,0.0,0.0,0.0,0.0,0.0,0.0,0.0,0.0,0.0,0.0,0.0,0.0,0.0,0.0,0.0,0.0314,0.0471,0.0785,0.0804,0.0804,0.0804,0.0812,0.0997,0.1406,0.1694,0.2049,0.2458,0.2503,0.2552,0.2529,0.1663,0.1428,0.1632,0.1054,0.0354,-0.0333,-0.0089,0.0,0.0,0.0,0.0,0.0,0.0,0.0,0.0,0.0,-0.1396,-0.1406,-0.149,-0.1493,-0.1514,-0.1574,-0.1592,-0.1594,-0.163,-0.1668,-0.1704,-0.1704,-0.1422,0.0,0.0,-0.0573,-0.0204,0.0,0.0,0.0,0.0,0.0,0.0,0.0,0.0,0.0,0.0,0.0,0.0,0.0,0.0,0.0,0.0,0.0,0.0,0.0,0.0,0.0,0.0,0.0,0.0,0.0,0.0,0.0,0.0,0.0538,0.1076,0.1646,0.3993,0.5568,0.641,0.6978,0.7715,0.8587,0.8587,0.8587,0.8587,0.8587,0.8587,0.8587,0.8587,0.8587,0.8587,0.8587,0.8587,0.8587,0.0,0.0,0.0,0.0,0.0,0.0,0.0,0.0,0.0,0.0,0.0,0.0,0.0,0.0,0.0,0.0,0.0,0.0,0.1296,0.1296,0.1296,0.1296,0.1296,0.1296,0.1296,0.1296,0.1327,0.1389,0.1729,0.207,0.2373,0.241,0.234,0.2115,0.1257,0.0942,0.0978,0.0267,-0.0314,-0.0695,-0.0493,-0.0807,0.0,0.0,0.0,0.0,0.0,0.0,0.0,0.0,-0.1391,-0.1423,-0.1484,-0.1502,-0.1514,-0.1574,-0.1592,-0.1592,-0.1592,-0.1659,-0.1677,-0.1598,0.0,0.0,-0.0824,-0.0553,-0.0326,0.0,0.0,0.0,0.0,0.0,0.0,0.0,0.0,0.0,0.0,0.0,0.0,0.0,0.0,0.0,0.0,0.0,0.0,0.0,0.0,0.0,0.0,0.0,0.0,0.0,0.0,0.0,0.0,0.0,0.0,0.0034,0.2016,0.3691,0.5068,0.5973,0.6944,0.7917,0.8387,0.8587,0.8587,0.8587,0.8587,0.8587,0.8587,0.8587,0.8587,0.8587,0.8587,0.8587,0.0,0.0,0.0,0.0,0.0,0.0,0.0,0.0,0.0,0.0,0.0,0.0,0.0,0.0,0.0,0.0,0.0,0.0,0.1297,0.1297,0.1297,0.1297,0.1297,0.1297,0.1297,0.1296,0.1395,0.1591,0.1808,0.1907,0.1908,0.2171,0.1909,0.1221,0.1534,0.0912,-0.0348,0.0378,-0.0134,-0.1345,-0.0673,-0.0807,0.0,0.0,0.0,0.0,0.0,0.0,0.0,0.0,-0.1391,-0.1424,-0.1484,-0.1502,-0.1514,-0.1574,-0.1592,-0.1592,-0.1592,-0.166,-0.1624,0.0,0.0,0.0,-0.0526,-0.0388,-0.0333,0.0,0.0,0.0,0.0,0.0,0.0,0.0,0.0,0.0,0.0,0.0,0.0,0.0,0.0,0.0,0.0,0.0,0.0,0.0,0.0,0.0,0.0,0.0,0.0,0.0,0.0,0.0,0.0,0.0,0.0,0.0,0.0,0.074,0.2184,0.5068,0.6374,0.6477,0.7951,0.8587,0.8587,0.8587,0.8587,0.8587,0.8587,0.8587,0.8587,0.8587,0.8587,0.8587,0.0,0.0,0.0,0.0,0.0,0.0,0.0,0.0,0.0,0.0,0.0,0.0,0.0,0.0,0.0,0.0,0.0,0.0,0.1299,0.1301,0.1299,0.13,0.1301,0.1309,0.1309,0.1307,0.1395,0.1591,0.165,0.1827,0.212,0.2251,0.2008,0.1457,0.1093,0.0438,-0.0422,-0.0671,-0.1009,-0.1391,-0.1188,-0.1233,-0.1391,0.0,0.0,0.0,0.0,0.0,0.0,0.0,0.0,0.0,-0.149,-0.154,-0.1566,-0.1605,-0.1632,-0.1675,-0.1675,-0.1545,0.0,0.0,0.0,0.0,0.0,-0.0414,0.0,0.0,0.0,0.0,0.0,0.0,0.0,0.0,0.0,0.0,0.0,0.0,0.0,0.0,0.0,0.0,0.0,0.0,0.0,0.0,0.0,0.0,0.0,0.0,0.0,0.0,0.0,0.0,0.0,0.0,0.0,0.0,0.0,0.074,0.2118,0.299,0.4498,0.641,0.6878,0.7648,0.8587,0.8587,0.8587,0.8587,0.8587,0.8587,0.8587,0.8587,0.8587,0.8587,0.0,0.0,0.0,0.0,0.0,0.0,0.0,0.0,0.0,0.0,0.0,0.0,0.0,0.0,0.0,0.0,0.0,0.0,0.0,0.131,0.1308,0.1305,0.131,0.1129,0.0793,0.1124,0.1011,0.0451,0.0804,0.136,0.2109,0.1833,0.1479,0.1065,0.0762,0.0111,-0.083,-0.1233,-0.1391,-0.1391,-0.1391,-0.1391,-0.1391,0.0,0.0,0.0,0.0,0.0,0.0,0.0,0.0,0.0,-0.153,-0.1557,-0.1602,-0.1608,-0.163,-0.1644,-0.1541,-0.1413,0.0,0.0,0.0,0.0,0.0,0.0,0.0,0.0,0.0,0.0,0.0,0.0,0.0,0.0,0.0,0.0,0.0,0.0,0.0,0.0,0.0,0.0,0.0,0.0,0.0,0.0,0.0,0.0,0.0,0.0,0.0,0.0,0.0,0.0,0.0,0.0,0.0,0.0,0.0,0.0437,0.1278,0.1849,0.3358,0.5637,0.6777,0.7781,0.8587,0.8587,0.8587,0.8587,0.8587,0.8587,0.8587,0.8587,0.8587,0.8587,0.0,0.0,0.0,0.0,0.0,0.0,0.0,0.0,0.0,0.0,0.0,0.0,0.0,0.0,0.0,0.0,0.0,0.0,0.0,0.0,0.1311,0.1313,0.1311,0.094,0.0143,0.0797,0.0404,-0.1163,-0.0295,0.0676,0.1707,0.1104,0.0575,0.0174,0.0466,-0.0134,-0.1391,-0.1391,-0.1391,-0.1391,-0.1416,-0.1415,-0.1391,-0.1416,0.0,0.0,0.0,0.0,0.0,0.0,0.0,0.0,-0.1578,-0.1598,-0.1605,-0.1609,-0.1594,-0.1546,-0.1294,0.0,0.0,0.0,0.0,0.0,0.0,0.0,0.0,0.0,0.0,0.0,0.0,0.0,0.0,0.0,0.0,0.0,0.0,0.0,0.0,0.0,0.0,0.0,0.0,0.0,0.0,0.0,0.0,0.0,0.0,0.0,0.0,0.0,0.0,0.0,0.0,0.0,0.0,0.0,0.0,0.0,0.0034,0.1311,0.2788,0.446,0.7209,0.8487,0.8587,0.8587,0.8587,0.8587,0.8587,0.8587,0.8587,0.8587,0.8587,0.8587,0.0,0.0,0.0,0.0,0.0,0.0,0.0,0.0,0.0,0.0,0.0,0.0,0.0,0.0,0.0,0.0,0.0,0.0,0.0,0.0,0.137,0.1371,0.1372,0.1261,0.1025,0.0425,0.0042,-0.0124,0.0651,0.0526,-0.0406,0.0529,0.0303,-0.0847,-0.0377,-0.0628,-0.1391,-0.1391,-0.1391,-0.1415,-0.1461,-0.1457,-0.1415,-0.1462,-0.1456,0.0,0.0,0.0,0.0,0.0,0.0,0.0,-0.1592,-0.1588,-0.1609,-0.159,-0.1634,-0.1632,-0.134,-0.114,0.0,0.0,0.0,0.0,0.0,0.0,0.0,0.0,0.0,0.0,0.0,0.0,0.0,0.0,0.0,0.0,0.0,0.0,0.0,0.0,0.0,0.0,0.0,0.0,0.0,0.0,0.0,0.0,0.0,0.0,0.0,0.0,0.0,0.0,0.0,0.0,0.0,0.0,0.0,0.0,0.0,0.0303,0.1848,0.4393,0.6138,0.7514,0.8587,0.8587,0.8587,0.8587,0.8587,0.8587,0.8587,0.8587,0.8587,0.8587,0.0,0.0,0.0,0.0,0.0,0.0,0.0,0.0,0.0,0.0,0.0,0.0,0.0,0.0,0.0,0.0,0.0,0.0,0.0,0.0,0.118,0.0705,0.0676,0.0223,-0.0727,-0.0867,-0.1233,-0.1898,-0.0682,-0.0381,-0.0943,-0.0729,-0.0807,-0.1147,-0.087,-0.0987,-0.1391,-0.1429,-0.1457,-0.1459,-0.149,-0.1484,-0.146,-0.1491,-0.1483,0.0,0.0,0.0,0.0,0.0,0.0,0.0,0.0,0.0,-0.1592,-0.1592,-0.1639,-0.1614,-0.1182,0.0,0.0,0.0,0.0,0.0,0.0,0.0,0.0,0.0,0.0,0.0,0.0,0.0,0.0,0.0,0.0,0.0,0.0,0.0,0.0,0.0,0.0,0.0,0.0,0.0,0.0,0.0,0.0,0.0,0.0,0.0,0.0,0.0,0.0,0.0,0.0,0.0,0.0,0.0,0.0,0.0,0.0034,0.0706,0.2217,0.4395,0.5804,0.7245,0.8587,0.8587,0.8587,0.8587,0.8587,0.8587,0.8587,0.8587,0.8587,0.8587,0.0,0.0,0.0,0.0,0.0,0.0,0.0,0.0,0.0,0.0,0.0,0.0,0.0,0.0,0.0,0.0,0.0,0.0,0.0,0.0,0.0,-0.0046,-0.0093,-0.0929,-0.2741,-0.2259,-0.2635,-0.402,-0.2738,-0.1879,-0.1445,-0.2074,-0.2026,-0.1412,-0.1323,-0.1323,-0.1414,-0.1462,-0.1499,-0.1506,-0.149,-0.1511,-0.1492,-0.1522,0.0,0.0,0.0,0.0,0.0,-0.1587,0.0,0.0,0.0,0.0,-0.1593,-0.1623,-0.1668,-0.1587,-0.1046,0.0,-0.0694,0.0,0.0,0.0,0.0,0.0,0.0,0.0,0.0,0.0,0.0,0.0,0.0,0.0,0.0,0.0,0.0,0.0,0.0,0.0,0.0,0.0,0.0,0.0,0.0,0.0,0.0,0.0,0.0,0.0,0.0,0.0,0.0,0.0,0.0,0.0,0.0,0.0,0.0,0.0,0.0034,0.1211,0.2553,0.3993,0.5434,0.6878,0.8251,0.8487,0.8587,0.8587,0.8587,0.8587,0.8587,0.8587,0.8587,0.8587,0.0,0.0,0.0,0.0,0.0,0.0,0.0,0.0,0.0,0.0,0.0,0.0,0.0,0.0,0.0,0.0,0.0,0.0,0.0,0.0,0.0,-0.0046,-0.0094,-0.0663,-0.1849,-0.2674,-0.3148,-0.3241,-0.389,-0.4113,0.0,0.0,-0.2389,-0.2644,-0.2242,-0.1817,-0.1391,-0.1417,-0.1457,-0.1506,-0.149,-0.15,-0.15,0.0,0.0,0.0,0.0,0.0,0.0,0.0,-0.1589,0.0,0.0,0.0,0.0,-0.1674,-0.1685,-0.1621,0.0,0.0,0.0,0.0,0.0,0.0,0.0,0.0,0.0,0.0,0.0,0.0,0.0,0.0,0.0,0.0,0.0,0.0,0.0,0.0,0.0,0.0,0.0,0.0,0.0,0.0,0.0,0.0,0.0,0.0,0.0,0.0,0.0,0.0,0.0,0.0,0.0,0.0,0.0,0.0,0.0,0.0,0.0,0.0202,0.1042,0.2486,0.3959,0.5401,0.6777,0.8084,0.8587,0.8587,0.8587,0.8587,0.8587,0.8587,0.8587,0.8587,0.0,0.0,0.0,0.0,0.0,0.0,0.0,0.0,0.0,0.0,0.0,0.0,0.0,0.0,0.0,0.0,0.0,0.0,0.0,0.0,0.0,-0.0916,-0.1005,-0.1773,-0.339,-0.3887,-0.4092,-0.3992,-0.443,0.0,0.0,-0.3381,-0.3017,0.0,0.0,0.0,-0.1464,-0.1504,-0.1519,-0.1558,-0.1565,-0.1566,0.0,0.0,0.0,0.0,0.0,0.0,0.0,0.0,0.0,0.0,0.0,0.0,0.0,0.0,-0.17,0.0,-0.1181,-0.0649,0.0,0.0,0.0,0.0,0.0,0.0,0.0,0.0,0.0,0.0,0.0,0.0,0.0,0.0,0.0,0.0,0.0,0.0,0.0,0.0,0.0,0.0,0.0,0.0,0.0,0.0,0.0,0.0,0.0,0.0,0.0,0.0,0.0,0.0,0.0,0.0,0.0,0.0,0.0,0.0,0.0,0.0,0.0773,0.2151,0.2788,0.4329,0.6443,0.7111,0.7851,0.8587,0.8587,0.8587,0.8587,0.8587,0.8587,0.8587,0.0,0.0,0.0,0.0,0.0,0.0,0.0,0.0,0.0,0.0,0.0,0.0,0.0,0.0,0.0,0.0,0.0,0.0,0.0,0.0,0.0,-0.1616,-0.1681,-0.2657,-0.4757,-0.4809,-0.4779,-0.4716,0.0,0.0,-0.3946,-0.3716,-0.3379,0.0,-0.2422,-0.1932,0.0,0.0,0.0,-0.1598,0.0,0.0,0.0,0.0,0.0,0.0,0.0,0.0,0.0,0.0,0.0,0.0,0.0,0.0,0.0,0.0,0.0,0.0,0.0,0.0,0.0,0.0,0.0,0.0,0.0,0.0,0.0,0.0,0.0,0.0,0.0,0.0,0.0,0.0,0.0,0.0,0.0,0.0,0.0,0.0,0.0,0.0,0.0,0.0,0.0,0.0,0.0,0.0,0.0,0.0,0.0,0.0,0.0,0.0,0.0,0.0,0.0,0.0,0.0,0.0,0.0,0.0,0.0572,0.158,0.195,0.3325,0.5369,0.6107,0.7045,0.8084,0.8454,0.8587,0.8587,0.8587,0.8587,0.8587,0.0,0.0,0.0,0.0,0.0,0.0,0.0,0.0,0.0,0.0,0.0,0.0,0.0,0.0,0.1391,0.1391,0.0,0.0,0.0,0.0,0.0,-0.1618,-0.1629,0.0,-0.4759,-0.4809,-0.4807,-0.4803,0.0,0.0,-0.462,-0.3622,-0.3108,-0.3055,-0.2475,-0.1932,-0.1502,0.0,0.0,0.0,0.0,0.0,0.0,0.0,0.0,0.0,0.0,0.0,0.0,0.0,0.0,0.0,0.0,0.0,0.0,0.0,0.0,0.0,0.0,0.0,0.0,0.0,0.0,0.0,0.0,0.0,0.0,0.0,0.0,0.0,0.0,0.0,0.0,0.0,0.0,0.0,0.0,0.0,0.0,0.0,0.0,0.0,0.0,0.0,0.0,0.0,0.0,0.0,0.0,0.0,0.0,0.0,0.0,0.0,0.0,0.0,0.0,0.0,0.0,0.0,0.0,0.0,0.0034,0.0168,0.1513,0.2184,0.252,0.5268,0.6443,0.6644,0.8051,0.8587,0.8587,0.8587,0.8587,0.8587,0.0,0.0,0.0,0.0,0.0,0.0,0.0,0.0,0.0,0.0,0.0,0.0,0.0,0.0442,0.0163,-0.0536,-0.0582,0.0,0.0,0.0,0.0,-0.2665,-0.2659,-0.3299,-0.4759,-0.4809,-0.4809,0.0,0.0,-0.4588,-0.4242,-0.3848,-0.3498,-0.3116,-0.2222,-0.1745,-0.1637,-0.1593,0.0,0.0,0.0,0.0,0.0,0.0,0.0,0.0,0.0,0.0,0.0,0.0,0.0,0.0,0.0,0.0,-0.1683,-0.1743,0.0,0.0,0.0,0.0,0.0,0.0,0.0,0.0,0.0,0.0,0.0,0.0,0.0,0.0,0.0,0.0,0.0,0.0,0.0,0.0,0.0,0.0,0.0,0.0,0.0,0.0,0.0,0.0,0.0,0.0,0.0,0.0,0.0,0.0,0.0,0.0,0.0,0.0,0.0,0.0,0.0,0.0,0.0,0.0,0.0,0.0,0.0,0.0034,0.0538,0.1278,0.2252,0.4229,0.557,0.6543,0.8017,0.8587,0.8587,0.8587,0.8587,0.8587,0.0,0.0,0.0,0.0,0.0,0.0,0.0,0.0,0.0,0.0,0.0,0.0,0.0,0.0,-0.0928,-0.1642,-0.1689,-0.1689,-0.1689,-0.1697,-0.218,-0.3256,-0.3241,-0.3701,-0.4784,-0.4783,-0.4781,0.0,0.0,0.0,0.0,-0.4149,-0.3883,-0.3509,-0.243,-0.1936,0.0,0.0,0.0,-0.17,0.0,0.0,-0.1645,0.0,0.0,0.0,0.0,0.0,0.0,0.0,0.0,0.0,0.0,-0.1686,-0.1752,-0.1792,0.0,0.0,0.0,0.0,0.0,0.0,0.0,0.0,0.0,0.0,0.0,0.0,0.0,0.0,0.0,0.0,0.0,0.0,0.0,0.0,0.0,0.0,0.0,0.0,0.0,0.0,0.0,0.0,0.0,0.0,0.0,0.0,0.0,0.0,0.0,0.0,0.0,0.0,0.0,0.0,0.0,0.0,0.0,0.0,0.0,0.0,0.0,0.0,0.0,0.0538,0.1513,0.2955,0.4395,0.5837,0.7278,0.8151,0.8587,0.8587,0.8587,0.8587,0.0,0.0,0.0,0.0,0.0,0.0,0.0,0.0,0.0,0.0,0.0,0.0,0.0,0.0,0.0,-0.1788,-0.1788,-0.1788,-0.1788,-0.1795,-0.2255,-0.3308,0.0,0.0,0.0,-0.4728,-0.4728,0.0,0.0,0.0,0.0,0.0,-0.4241,-0.4234,-0.3119,-0.2561,-0.247,0.0,-0.1705,-0.1703,0.0,-0.1706,-0.1701,0.0,0.0,0.0,-0.1699,-0.1689,0.0,0.0,0.0,0.0,0.0,0.0,-0.1804,-0.1805,0.0,0.0,0.0,0.0,0.0,0.0,0.0,0.0,0.0,0.0,0.0,0.0,0.0,0.0,0.0,0.0,0.0,0.0,0.0,0.0,0.0,0.0,0.0,0.0,0.0,0.0,0.0,0.0,0.0,0.0,0.0,0.0,-0.0031,-0.0031,-0.0031,-0.0031,-0.0032,0.0,0.0,0.0,0.0,0.0,0.0,0.0,0.0,0.0,0.0,0.0,0.0,0.0,0.0101,0.1513,0.2955,0.4395,0.5837,0.7281,0.8554,0.8587,0.8587,0.8587,0.0,0.0,0.0,0.0,0.0,0.0,0.0,0.0,0.0,0.0,0.0,0.0,0.0,0.0,-0.3942,-0.3942,-0.3942,-0.3942,-0.3942,-0.3935,-0.4073,-0.4372,-0.437,-0.4506,-0.4784,-0.4787,-0.4787,-0.4809,-0.4787,-0.4859,-0.4997,-0.4405,0.0,0.0,-0.3078,-0.2599,-0.2533,-0.1951,0.0,0.0,-0.1731,-0.1697,0.0,0.0,0.0,0.0,0.0,-0.1702,0.0,0.0,-0.1663,-0.1685,0.0,0.0,0.0,0.0,0.0,0.0,-0.1402,0.0,0.0,0.0,0.0,0.0,0.0,0.0,0.0,0.0,0.0,0.0,0.0,0.0,0.0,0.0,0.0,0.0,0.0,0.0,0.0,0.0,0.0,0.0,0.0,0.0,0.0,0.0,-0.0123,-0.0216,-0.071,-0.071,-0.071,-0.071,-0.0477,-0.0353,-0.035,-0.0131,0.0,0.0,0.0,0.0,0.0,0.0,0.0,0.0,0.0,0.0,0.0101,0.1513,0.2352,0.2956,0.5436,0.6644,0.7145,0.8218,0.8587,0.8587,0.0,0.0,0.0,0.0,0.0,0.0,0.0,0.0,0.0,0.0,0.0,0.0,0.0,0.0,-0.4809,-0.4809,-0.4809,-0.4809,-0.4809,-0.4809,-0.4826,-0.489,-0.4892,-0.491,-0.4923,-0.4887,-0.4884,-0.4923,-0.4655,-0.4571,-0.4686,-0.4106,0.0,0.0,0.0,0.0,0.0,0.0,0.0,0.0,-0.1763,0.0,0.0,-0.1736,-0.1744,0.0,0.0,0.0,-0.1746,-0.1716,-0.1725,0.0,0.0,0.0,0.0,0.0,0.0,0.0,0.0,0.0,0.0,0.0,0.0,0.0,0.0,-0.0694,0.0,0.0,0.0,0.0,0.0,0.0,0.0,0.0,0.0,0.0,0.0,0.0,0.0,0.0,0.0,0.0,0.0,0.0,0.0,-0.0679,-0.0525,-0.0587,-0.0988,-0.0988,-0.0988,-0.0988,-0.0822,-0.0701,-0.0695,-0.0388,-0.0197,-0.0198,-0.0066,0.0,0.0,0.0,0.0,0.0,0.0,0.0,0.0067,0.0874,0.158,0.2318,0.4631,0.5871,0.6577,0.8051,0.8587,0.8587,0.0,0.0,0.0,0.0,0.0,0.0,0.0,0.0,0.0,0.0,0.0,0.0,0.0,0.0,0.0,0.0,-0.4834,-0.484,-0.484,-0.484,-0.4876,-0.5009,-0.5011,-0.505,-0.5106,-0.5054,-0.5052,-0.5108,-0.4504,-0.423,-0.4283,-0.3741,-0.3501,0.0,0.0,0.0,0.0,0.0,0.0,-0.1793,-0.1793,-0.1799,0.0,0.0,-0.1796,0.0,-0.1788,-0.1807,-0.1778,-0.1723,-0.1757,0.0,0.0,0.0,0.0,0.0,-0.1793,0.0,0.0,0.0,0.0,0.0,0.0,0.0,-0.0689,-0.0549,-0.0467,0.0,0.0,0.0,0.0,0.0,0.0,0.0,0.0,0.0,0.0,0.0,0.0,0.0,0.0,0.0,0.0,-0.0494,-0.0648,-0.1019,-0.108,-0.108,-0.105,-0.108,-0.1111,-0.1111,-0.1065,-0.1041,-0.1071,-0.0672,-0.0486,-0.0493,-0.0164,0.0,0.0,0.0,0.0,0.0,0.0,0.0,0.0,0.0,0.074,0.2017,0.349,0.4932,0.6341,0.7815,0.8454,0.8587,0.0,0.0,0.0,0.0,0.0,0.0,0.0,0.0,0.0,0.0,0.0,0.0,0.0,0.0,0.0,0.0,-0.5012,-0.5029,-0.5029,-0.5029,-0.5063,-0.5081,-0.5081,-0.509,-0.5108,-0.509,-0.509,-0.5108,-0.4958,-0.4708,-0.4283,-0.3741,-0.3282,0.0,0.0,0.0,0.0,0.0,0.0,-0.1795,-0.1789,0.0,-0.1791,-0.1789,-0.1796,-0.1791,-0.1788,-0.1793,-0.1785,0.0,-0.1792,-0.1807,0.0,0.0,0.0,0.0,0.0,0.0,0.0,0.0,0.0,0.0,0.0,0.0,-0.1564,-0.1535,-0.1424,0.0,0.0,0.0,0.0,0.0,0.0,0.0,0.0,0.0,0.0,0.0,0.0,0.0,0.0,0.0,0.0,-0.0494,-0.0741,-0.1359,-0.1637,-0.1698,-0.142,-0.1667,-0.1791,-0.1791,-0.1534,-0.1412,-0.1396,-0.0787,-0.0511,-0.0486,-0.0162,0.0,0.0,0.0,0.0,0.0,0.0,0.0,0.0,0.0,0.0168,0.0538,0.1983,0.3424,0.4897,0.6307,0.7581,0.8587,0.0,0.0,0.0,0.0,0.0,0.0,0.0,0.0,0.0,0.0,0.0,0.0,0.0,0.0,0.0,0.0,0.0,0.0,0.0,0.0,-0.5128,-0.5146,-0.5149,-0.5171,-0.5243,-0.5245,-0.5245,-0.5245,-0.4941,-0.466,-0.4395,-0.3513,0.0,0.0,0.0,0.0,0.0,0.0,-0.1804,-0.1788,-0.1801,0.0,-0.1793,-0.1805,-0.181,-0.1793,-0.1805,-0.181,-0.1793,-0.1805,-0.18,0.0,0.0,-0.18,-0.1803,0.0,-0.1812,-0.1803,0.0,0.0,0.0,-0.1795,0.0,0.0,0.0,-0.1551,-0.1467,0.0,0.0,0.0,0.0,0.0,0.0,0.0,0.0,0.0,0.0,0.0,0.0,0.0,0.0,0.0,0.0,-0.0942,-0.1163,-0.1698,-0.1915,-0.1915,-0.176,-0.1915,-0.2008,-0.2008,-0.1834,-0.1742,-0.176,-0.1245,-0.0916,-0.0742,-0.042,-0.0164,0.0,0.0,0.0,0.0,0.0,0.0,0.0,0.0,0.0,0.0135,0.1546,0.2554,0.3458,0.5603,0.6878,0.7615,0.0,0.0,0.0,0.0,0.0,0.0,0.0,0.0,0.0,0.0,0.0,0.0,0.0,0.0,0.0,0.0,0.0,0.0,0.0,0.0,0.0,-0.4883,-0.4886,-0.4946,-0.5043,-0.5044,-0.5044,-0.5044,-0.4566,-0.4257,-0.4145,-0.3169,0.0,0.0,0.0,0.0,0.0,0.0,0.0,-0.1809,0.0,-0.1802,-0.1812,-0.1806,-0.1804,-0.1803,-0.1797,-0.1795,-0.1791,-0.1794,0.0,-0.1791,-0.1794,-0.1799,0.0,0.0,0.0,0.0,0.0,0.0,0.0,0.0,0.0,-0.1733,0.0,0.0,0.0,-0.1126,0.0,0.0,0.0,0.0,0.0,0.0,0.0,0.0,0.0,0.0,0.0,0.0,0.0,0.0,0.0,-0.1467,-0.1636,-0.1958,-0.2001,-0.2005,-0.1968,-0.2004,-0.2008,-0.2008,-0.2008,-0.2008,-0.2008,-0.1667,-0.1377,-0.1092,-0.0677,-0.036,-0.0101,-0.0034,0.0,0.0,0.0,0.0,0.0,0.0,0.0,0.0101,0.1244,0.1849,0.2386,0.4699,0.594,0.6577,-0.4122,-0.4483,0.0,0.0,0.0,0.0,0.0,0.0,0.0,0.0,0.0,0.0,0.0,0.0,0.0,0.0,0.0,0.0,-0.4694,0.0,0.0,-0.3799,-0.3773,-0.3776,-0.3811,-0.3811,-0.3811,-0.3811,-0.3727,-0.3419,-0.289,-0.2778,0.0,0.0,-0.1823,0.0,0.0,0.0,-0.1812,0.0,-0.1807,-0.1827,0.0,-0.1817,-0.1806,-0.1803,-0.1805,-0.1795,-0.1794,0.0,-0.1792,-0.1794,0.0,-0.1801,0.0,0.0,0.0,0.0,0.0,0.0,0.0,0.0,-0.1795,0.0,0.0,0.0,-0.1734,-0.1705,0.0,0.0,0.0,0.0,0.0,0.0,0.0,0.0,0.0,0.0,0.0,0.0,0.0,0.0,0.0,0.0,-0.1861,-0.1898,-0.1976,-0.1964,-0.1908,-0.1962,-0.2008,-0.2008,-0.2008,-0.2008,-0.2008,-0.1667,-0.1494,-0.1423,-0.0802,-0.0488,-0.0429,-0.0134,0.0,0.0,0.0,0.0,0.0,0.0,0.0,0.0,0.0168,0.1009,0.2151,0.2453,0.4197,0.641,-0.4395,-0.4803,0.0,0.0,0.0,0.0,0.0,0.0,0.0,0.0,0.0,0.0,0.0,0.0,0.0,0.0,0.0,-0.5192,0.0,0.0,0.0,0.0,0.0,0.0,-0.3587,-0.3587,-0.3587,-0.3587,-0.3587,-0.3475,-0.3225,-0.2862,-0.2566,0.0,-0.1943,0.0,-0.1811,0.0,0.0,0.0,0.0,0.0,0.0,-0.1839,-0.1814,-0.1812,-0.18,-0.1795,-0.1795,0.0,-0.1795,0.0,0.0,0.0,0.0,0.0,0.0,0.0,0.0,0.0,0.0,0.0,0.0,0.0,0.0,0.0,-0.1795,0.0,0.0,0.0,0.0,0.0,0.0,0.0,0.0,0.0,0.0,0.0,0.0,0.0,0.0,0.0,0.0,0.0,0.0,0.0,0.0,-0.1945,-0.1902,-0.1913,-0.1958,-0.2007,-0.2008,-0.2008,-0.2008,-0.1853,-0.1679,-0.1482,-0.1025,-0.0683,-0.0494,-0.0167,0.0,0.0,0.0,0.0,0.0,0.0,0.0,0.0,0.0,0.037,0.0975,0.1815,0.3392,0.53,0.0,0.0,0.0,0.0,0.0,0.0,0.0,0.0,0.0,0.0,0.0,0.0,-0.3842,-0.4353,0.0,0.0,0.0,-0.5284,0.0,0.0,-0.4213,0.0,0.0,0.0,0.0,0.0,-0.3119,-0.3105,-0.3119,-0.3126,-0.3126,-0.2673,-0.2489,0.0,0.0,-0.1832,-0.1823,0.0,0.0,-0.1872,-0.1864,-0.1874,-0.1858,-0.1829,-0.1802,-0.1795,-0.1795,-0.1795,-0.1795,-0.1795,-0.1795,0.0,-0.1795,0.0,0.0,0.0,0.0,0.0,-0.1795,0.0,0.0,0.0,0.0,0.0,0.0,0.0,0.0,0.0,0.0,0.0,0.0,0.0,0.0,0.0,0.0,0.0,0.0,0.0,0.0,0.0,0.0,0.0,0.0,0.0,0.0,-0.1874,-0.1879,-0.1894,-0.1877,-0.1892,-0.1911,-0.1963,-0.2003,-0.2008,-0.2008,-0.2008,-0.1893,-0.1631,-0.1305,-0.0969,-0.0623,-0.0299,-0.0101,0.0,0.0,0.0,0.0,0.0,0.0,0.0,0.0,0.0,0.0135,0.1143,0.2452,0.3859,-0.3409,-0.3444,0.0,0.0,0.0,0.0,0.0,0.0,0.0,0.0,0.0,0.0,0.0,0.0,0.0,0.0,0.0,-0.5497,-0.4822,0.0,-0.4142,0.0,0.0,-0.2605,0.0,0.0,0.0,-0.1868,-0.1927,-0.1941,-0.1941,-0.1941,-0.1913,-0.1913,0.0,-0.1883,-0.1882,-0.1824,-0.1812,-0.181,-0.181,-0.1798,-0.1802,0.0,-0.1792,-0.1795,-0.1795,0.0,0.0,-0.1795,-0.1795,0.0,0.0,0.0,0.0,0.0,0.0,0.0,0.0,0.0,0.0,-0.1795,0.0,0.0,0.0,0.0,-0.1795,0.0,0.0,0.0,0.0,0.0,0.0,0.0,0.0,0.0,0.0,0.0,0.0,0.0,0.0,0.0,0.0,0.0,0.0,-0.1818,-0.1867,-0.1875,-0.1818,-0.1869,-0.1902,-0.1902,-0.1961,-0.2008,-0.2008,-0.2008,-0.2008,-0.1978,-0.163,-0.1304,-0.0968,-0.0622,-0.0299,0.0,0.0,0.0,0.0,0.0,0.0,0.0,0.0,0.0,0.0,0.0067,0.0975,0.2184,0.0,0.0,0.0,0.0,0.0,0.0,0.0,-0.2936,0.0,0.0,0.0,0.0,0.0,0.0,-0.5851,0.0,0.0,-0.7303,-0.6624,-0.52,0.0,0.0,0.0,-0.2518,0.0,0.0,0.0,0.0,0.0,-0.1886,-0.1886,-0.1886,-0.1896,-0.1885,0.0,-0.1886,0.0,0.0,0.0,0.0,0.0,-0.1832,-0.1796,0.0,0.0,-0.1795,-0.1795,-0.1795,0.0,-0.1795,-0.1795,-0.1795,-0.1795,-0.1795,-0.1795,-0.1795,-0.1795,0.0,0.0,0.0,-0.1796,-0.1796,0.0,0.0,0.0,0.0,0.0,0.0,0.0,0.0,0.0,0.0,0.0,0.0,0.0,0.0,0.0,0.0,0.0,0.0,0.0,0.0,0.0,0.0,0.0,-0.1814,-0.183,-0.1833,-0.1812,-0.1831,-0.186,-0.19,-0.1911,-0.1956,-0.2007,-0.2008,-0.2008,-0.2008,-0.1646,-0.1315,-0.1,-0.0661,-0.0302,0.0,0.0,0.0,0.0,0.0,0.0,0.0,0.0,0.0,0.0,0.0,0.0874,0.2386,-0.1811,0.0,0.0,0.0,0.0,0.0,0.0,0.0,0.0,0.0,-0.3689,0.0,-0.5923,0.0,-0.6773,0.0,-0.8452,-0.8279,-0.7371,-0.6333,0.0,-0.6547,-0.4483,0.0,0.0,0.0,0.0,0.0,0.0,-0.1948,-0.1948,-0.1948,-0.1928,-0.1947,0.0,-0.1936,-0.1888,0.0,-0.1877,0.0,0.0,-0.1862,0.0,0.0,-0.1821,-0.1811,0.0,-0.1804,-0.1795,-0.1795,-0.1795,-0.1795,-0.1795,-0.1802,-0.1809,-0.1798,-0.181,-0.1829,-0.1809,-0.182,0.0,-0.1814,-0.1812,0.0,-0.1802,0.0,0.0,0.0,0.0,0.0,0.0,0.0,0.0,0.0,0.0,0.0,0.0,0.0,0.0,0.0,0.0,0.0,0.0,0.0,-0.1896,-0.1815,-0.1822,-0.1818,0.0,0.0,-0.1834,-0.1883,-0.1896,-0.1946,-0.2007,-0.2008,-0.2008,-0.2008,-0.1794,-0.1433,-0.0993,-0.0787,-0.0432,0.0,0.0,0.0,0.0,0.0,0.0,0.0,0.0,0.0,0.0,0.0,0.0572,0.1681,0.0,0.0,0.0,0.0,-0.1795,0.0,0.0,0.0,-0.4095,0.0,-0.538,-0.6701,-0.7674,-0.7632,-0.786,-0.8747,-0.9016,0.0,-0.7208,-0.7459,0.0,0.0,-0.6601,-0.6409,-0.7664,0.0,0.0,0.0,0.0,0.0,-0.2008,-0.2069,-0.2069,-0.2008,-0.207,0.0,-0.1888,-0.189,-0.1869,-0.1816,-0.1877,-0.1889,-0.1888,-0.1889,-0.1871,-0.1816,-0.1814,-0.1796,-0.1799,-0.1797,-0.1797,-0.1797,-0.1797,-0.1787,-0.1804,-0.1807,-0.1839,-0.1878,-0.1823,-0.1836,-0.1881,-0.1823,0.0,0.0,0.0,0.0,-0.1797,0.0,0.0,0.0,0.0,0.0,0.0,0.0,0.0,0.0,0.0,0.0,0.0,0.0,0.0,0.0,0.0,-0.1967,-0.1934,-0.1818,-0.1866,-0.1856,0.0,0.0,-0.1824,-0.1885,-0.1913,-0.1944,-0.2007,-0.2008,-0.2008,-0.2008,-0.2009,-0.1652,-0.1012,-0.1026,-0.0651,-0.0033,-0.0033,0.0,0.0,0.0,0.0,0.0,0.0,0.0,0.0,0.0,0.0,0.0202,-0.1816,-0.1829,-0.1872,0.0,-0.1869,-0.1881,0.0,0.0,0.0,0.0,-0.5202,-0.6799,-0.7487,-0.8577,-0.9211,-0.9046,-1.0195,0.0,0.0,0.0,0.0,-0.8432,-0.6005,-0.5193,-0.6367,-0.3825,0.0,-0.3862,0.0,0.0,-0.2008,-0.2958,-0.2898,-0.2039,0.0,0.0,-0.1889,-0.1942,-0.193,-0.1879,-0.1962,-0.1939,0.0,0.0,-0.1934,-0.1875,-0.1882,-0.1869,-0.1859,-0.1808,-0.18,-0.18,-0.18,-0.179,-0.1814,-0.1851,-0.1857,-0.1831,-0.1868,-0.1883,-0.1887,-0.188,-0.1878,-0.1864,0.0,0.0,0.0,0.0,0.0,0.0,0.0,0.0,0.0,0.0,0.0,0.0,0.0,0.0,0.0,0.0,0.0,0.0,0.0,-0.1879,-0.1836,-0.1813,-0.1827,-0.1811,0.0,0.0,0.0,-0.1884,-0.1894,-0.1923,-0.2007,-0.2008,-0.2008,-0.2008,-0.1998,-0.177,-0.138,-0.1432,-0.1057,-0.0368,-0.037,-0.0236,0.0,0.0,0.0,0.0,0.0,0.0,0.0,0.0,0.0,0.0202,-0.1854,0.0,0.0,-0.2763,0.0,0.0,-0.295,0.0,0.0,-0.4555,-0.6842,0.0,-0.8428,-0.9806,-1.0595,-1.0313,-1.129,0.0,0.0,0.0,0.0,-0.9262,-0.7814,-0.7243,-0.7722,-0.5572,0.0,-0.4688,0.0,0.0,-0.2026,-0.2721,-0.2691,0.0,0.0,-0.2694,0.0,-0.2572,-0.2473,-0.1989,-0.2603,0.0,0.0,-0.2001,-0.1966,-0.1949,-0.1932,-0.1938,-0.1883,-0.1866,-0.1831,-0.1831,-0.1831,-0.1857,-0.1859,-0.1879,-0.1892,-0.1875,-0.1896,-0.191,-0.1948,-0.1904,-0.1901,-0.1889,-0.1842,-0.1821,-0.1807,0.0,0.0,0.0,0.0,0.0,0.0,0.0,0.0,0.0,0.0,0.0,0.0,0.0,0.0,0.0,0.0,-0.1855,-0.182,-0.1794,-0.1829,0.0,0.0,0.0,0.0,-0.1865,-0.1879,-0.1909,-0.1956,-0.197,-0.2008,-0.2008,-0.1992,-0.1827,-0.1501,-0.1524,-0.125,-0.0767,-0.057,-0.0404,-0.0202,-0.0067,0.0,0.0,0.0,0.0,0.0,0.0,0.0,0.0101,0.0,0.0,0.0,0.0,0.0,0.0,0.0,-0.5542,0.0,-0.637,0.0,-1.0697,-0.972,-1.0975,-1.1803,-1.1545,0.0,-1.1618,-1.0039,-1.1268,-1.1451,-1.0103,-1.0239,-1.0224,-0.9909,-0.8241,0.0,0.0,0.0,0.0,-0.2012,-0.2173,-0.2175,0.0,0.0,0.0,0.0,-0.3418,-0.3349,-0.2546,-0.3504,-0.3233,-0.2222,-0.2069,-0.2008,-0.2008,-0.2008,-0.1973,-0.1927,-0.1893,-0.1892,-0.1892,-0.1892,-0.1907,-0.1892,-0.1903,-0.1963,-0.1966,-0.1913,-0.1956,-0.2001,-0.1914,-0.1907,-0.1899,-0.1898,-0.1868,-0.1816,-0.1812,-0.1788,-0.1795,0.0,0.0,0.0,0.0,0.0,0.0,0.0,0.0,0.0,0.0,0.0,0.0,0.0,0.0,0.0,0.0,0.0,0.0,0.0,0.0,0.0,-0.1812,-0.187,-0.19,-0.1901,0.0,-0.2009,-0.2013,-0.2013,-0.1842,-0.1587,-0.1575,-0.1434,-0.1157,-0.0736,-0.0538,-0.0471,-0.0135,0.0,0.0,0.0,0.0,0.0,0.0,0.0,0.0,0.0,0.0,0.0,0.0,0.0,-0.486,-0.5765,-0.7162,-0.7786,-0.6896,-0.9489,-1.0946,-0.9741,-1.127,-1.1721,-1.014,-1.1402,0.0,0.0,0.0,0.0,-0.9755,-0.9325,-0.9035,-0.8878,-0.6996,-0.5985,0.0,0.0,0.0,0.0,0.0,0.0,0.0,0.0,0.0,-0.3513,-0.3785,0.0,-0.4896,-0.42,-0.3753,-0.3448,-0.2406,-0.2008,-0.2008,-0.2008,-0.2,-0.1988,-0.1932,-0.1893,-0.1893,-0.1893,-0.1909,-0.1902,-0.1978,-0.195,-0.1913,-0.1963,-0.2003,-0.2006,-0.197,-0.1969,-0.196,-0.19,-0.19,-0.187,-0.1817,-0.1788,-0.1795,-0.1795,0.0,0.0,0.0,0.0,0.0,0.0,0.0,0.0,0.0,0.0,0.0,0.0,0.0,0.0,0.0,0.0,0.0,0.0,0.0,0.0,0.0,-0.187,0.0,0.0,0.0,-0.1988,-0.2011,-0.2011,-0.2008,-0.1995,-0.2,-0.182,-0.1509,-0.1143,-0.0808,-0.0471,-0.0135,0.0,0.0,0.0,0.0,0.0,0.0,0.0,0.0,0.0,0.0,0.0,0.0,0.0,0.0,0.0,-0.9133,0.0,-0.791,-0.9787,-1.0776,-0.947,-1.1026,-1.1762,-1.081,-1.1707,-1.1938,-1.1068,-1.1839,-1.1964,-1.1196,-1.0629,0.0,-0.9915,-0.8624,-0.7286,-0.5904,0.0,0.0,0.0,0.0,0.0,0.0,0.0,-0.3871,0.0,0.0,0.0,-0.5598,-0.5117,-0.4519,-0.3753,-0.2499,-0.2008,-0.2008,-0.2008,-0.2008,-0.2006,-0.196,-0.1954,-0.1954,-0.1954,-0.1945,-0.1969,-0.1999,-0.1966,-0.1958,-0.2003,-0.2008,-0.2008,-0.2008,-0.2008,-0.2003,-0.1958,-0.1931,-0.19,-0.187,-0.1811,-0.1814,-0.1797,-0.1795,0.0,0.0,0.0,0.0,0.0,0.0,0.0,0.0,0.0,0.0,0.0,0.0,0.0,0.0,0.0,0.0,0.0,0.0,0.0,0.0,0.0,0.0,0.0,0.0,0.0,-0.1987,-0.1987,-0.205,-0.2109,-0.2109,-0.2026,-0.1885,-0.1346,-0.0976,-0.0774,-0.0236,0.0,0.0,0.0,0.0,0.0,0.0,0.0,0.0,0.0,-0.7596,0.0,0.0,-0.9113,0.0,-1.0065,-1.0448,-1.0346,-0.9237,-1.0205,-1.0697,-0.9771,-1.0935,-1.1813,-1.1813,-1.2045,-1.2144,-1.2078,-1.2375,-1.2509,-1.2301,-1.1879,-1.1456,-1.104,-1.0381,-0.8802,0.0,0.0,0.0,0.0,0.0,0.0,0.0,0.0,0.0,0.0,0.0,-0.7251,-0.6527,-0.638,-0.5529,-0.4182,-0.2898,-0.2222,-0.2008,-0.2008,-0.2008,-0.2008,-0.2008,-0.2008,-0.2008,-0.2008,-0.2008,-0.2008,-0.2008,-0.2008,-0.2008,-0.2008,-0.2008,-0.2008,-0.2008,-0.2008,-0.2008,-0.2008,-0.1953,-0.1894,-0.19,-0.1871,-0.1812,-0.181,-0.1805,0.0,0.0,0.0,0.0,0.0,0.0,0.0,0.0,0.0,0.0,0.0,0.0,0.0,0.0,0.0,0.0,0.0,0.0,0.0,0.0,0.0,-0.1896,-0.1896,0.0,-0.1994,-0.2028,-0.2028,-0.206,-0.2119,-0.2119,-0.2165,-0.2155,-0.1481,-0.1111,-0.0909,-0.0269,0.0,0.0,0.0,0.0,0.0,0.0,0.0,0.0,0.0,0.0,0.0,0.0,0.0,0.0,-0.8687,-0.9933,-1.0904,-1.0946,-1.1094,-1.1259,-1.1523,-1.1703,-1.1813,-1.1813,-1.1846,-1.1681,-1.1317,-1.1681,-1.174,-1.1358,-1.1171,-1.1013,-1.083,-1.0173,-0.905,0.0,0.0,0.0,0.0,0.0,0.0,0.0,0.0,0.0,0.0,-0.7547,-0.8285,-0.9139,-0.8115,-0.6907,-0.5559,-0.4243,-0.302,-0.2008,-0.2008,-0.2008,-0.2008,-0.2008,-0.2008,-0.2008,-0.2008,-0.2008,-0.2008,-0.2008,-0.2008,-0.2008,-0.2008,-0.2008,-0.2008,-0.2008,-0.2008,-0.2008,-0.2008,-0.1953,-0.19,-0.1898,-0.1902,-0.1872,-0.1813,-0.1808,-0.1808,0.0,0.0,0.0,0.0,0.0,0.0,0.0,0.0,0.0,0.0,0.0,0.0,0.0,0.0,0.0,0.0,0.0,0.0,-0.1808,0.0,-0.1897,-0.1897,-0.196,-0.2036,-0.2092,-0.2092,-0.2124,-0.2184,-0.2184,-0.2186,-0.2188,-0.175,-0.1178,-0.0538,-0.0168,0.0,0.0,0.0,0.0,0.0,0.0,0.0,0.0,0.0,0.0,0.0,0.0,0.0,0.0,0.0,-1.0655,-1.1125,-1.1196,-1.1079,-1.1091,-1.1226,-1.1175,-1.1214,-1.1413,-1.1449,-1.1479,-1.1549,-1.1714,-1.1747,-1.1582,-1.1388,-1.1174,-1.0923,-1.058,-0.9592,0.0,0.0,0.0,0.0,0.0,0.0,0.0,0.0,-0.671,-0.779,-0.8605,-0.9291,-0.9733,-0.8593,-0.7321,-0.5936,-0.4581,-0.3228,-0.2058,-0.2008,-0.2002,-0.1999,-0.2013,-0.2008,-0.2008,-0.2008,-0.2008,-0.2008,-0.2008,-0.2008,-0.2008,-0.2008,-0.2008,-0.2008,-0.2008,-0.2008,-0.2008,-0.2008,-0.1967,-0.1953,-0.1905,-0.1907,-0.1882,-0.187,-0.1868,-0.1832,0.0,0.0,0.0,0.0,0.0,0.0,0.0,0.0,0.0,0.0,0.0,0.0,0.0,0.0,0.0,0.0,0.0,0.0,-0.1867,0.0,-0.1913,-0.1901,-0.1978,-0.2022,-0.2096,-0.2115,-0.2147,-0.2188,-0.2188,-0.2054,-0.1818,-0.1447,-0.101,-0.0471,-0.0135,0.0,0.0,0.0,0.0,0.0,0.0,0.0,0.0,-1.0985,0.0,-1.1056,0.0,-1.1227,-1.1196,-1.1196,-1.1237,-1.1264,-1.1264,-1.1141,-1.1012,-1.0924,-1.0819,-1.0835,-1.1056,-1.1049,-1.1185,-1.1449,-1.1483,-1.1483,-1.1483,-1.1337,0.0,-1.0847,-1.0745,-1.0035,-0.8646,-0.8366,0.0,0.0,0.0,0.0,0.0,-0.7303,-0.7963,-0.8535,-0.9466,-0.9947,-1.003,-0.9212,-0.806,-0.6684,-0.5305,-0.3926,-0.2671,-0.2199,-0.2032,-0.2029,-0.204,-0.2027,-0.1988,-0.201,-0.2008,-0.2008,-0.2008,-0.2008,-0.2008,-0.2008,-0.2008,-0.2008,-0.2008,-0.2008,-0.2008,-0.2008,-0.2008,-0.2001,-0.1949,-0.1927,-0.191,-0.1901,-0.1899,-0.1892,-0.1841,0.0,0.0,0.0,0.0,0.0,0.0,0.0,-0.1828,-0.181,0.0,0.0,0.0,0.0,0.0,0.0,0.0,0.0,0.0,0.0,0.0,0.0,-0.1963,-0.2034,-0.2096,-0.2095,-0.2125,-0.2188,-0.2188,-0.2054,-0.175,-0.1414,-0.1043,-0.0639,-0.0303,-0.0101,0.0,0.0,0.0,0.0,0.0,0.0,0.0,-1.1328,-1.1298,-1.1244,-1.1362,-1.1298,-1.1196,-1.1196,-1.1325,-1.1389,-1.1389,-1.1389,-1.1274,-1.0948,-1.0914,-1.0853,-1.0734,-1.0721,-1.0721,-1.0721,-1.0721,-1.0721,0.0,0.0,-1.0646,-1.0497,-1.049,-1.0344,-0.999,0.0,0.0,-0.7755,0.0,-0.6492,-0.7603,-0.7807,-0.8593,-0.9802,-0.992,-1.0106,-1.0312,-1.028,-0.9475,-0.8127,-0.6714,-0.5337,-0.3991,-0.261,-0.2096,-0.2096,-0.2095,-0.2043,-0.2013,-0.1986,-0.2008,-0.2008,-0.2008,-0.2008,-0.2008,-0.2008,-0.2008,-0.2008,-0.2008,-0.2008,-0.2008,-0.2008,-0.2008,-0.2008,-0.2007,-0.2007,-0.1967,-0.1906,-0.19,-0.19,-0.19,0.0,0.0,0.0,0.0,0.0,0.0,-0.1863,-0.1876,-0.1816,0.0,0.0,0.0,0.0,0.0,0.0,0.0,0.0,-0.1886,-0.1885,0.0,-0.2007,-0.2004,-0.2034,-0.2096,-0.2095,-0.2125,-0.2188,-0.2188,-0.2188,-0.2155,-0.1784,-0.1414,-0.1077,-0.0673,-0.0303,0.0,0.0,0.0,0.0,0.0,0.0,0.0,-1.1352,-1.1352,-1.1365,-1.1518,-1.1508,-1.1474,-1.1474,-1.1514,-1.1548,-1.1548,-1.1548,-1.147,-1.1274,-1.1155,-1.1036,0.0,-1.0843,-1.0796,0.0,-1.0688,-1.0688,-1.0688,-1.0688,-1.0664,-1.0649,-1.0649,-1.0548,-1.0351,0.0,0.0,0.0,-0.9222,-0.9173,-0.944,-0.9512,-0.9807,-1.0283,-1.0331,-1.0439,-1.0578,-1.0578,-0.975,-0.8462,-0.7999,-0.6353,-0.4204,-0.3772,-0.2943,-0.2092,-0.2103,-0.209,-0.208,-0.2071,-0.204,-0.2008,-0.2008,-0.2008,-0.2008,-0.2008,-0.2008,-0.2008,-0.2008,-0.2008,-0.2008,-0.2008,-0.2008,-0.2008,-0.2008,-0.2008,-0.2005,-0.1964,-0.1962,-0.1955,-0.1904,-0.1868,0.0,0.0,0.0,0.0,0.0,-0.1826,-0.1831,0.0,-0.1817,0.0,0.0,0.0,0.0,0.0,0.0,0.0,0.0,-0.1906,0.0,-0.2005,-0.2035,-0.2065,-0.2095,-0.2159,-0.2179,-0.2188,-0.2188,-0.2188,-0.2188,-0.1784,-0.1414,-0.1077,-0.0673,-0.0303,0.0,0.0,0.0,0.0,0.0,0.0,0.0,-1.1447,-1.1477,-1.1508,-1.1603,-1.1584,-1.1584,-1.1584,-1.1584,-1.1655,-1.1799,-1.1691,-1.1618,-1.17,-1.1498,0.0,-1.0938,-1.0914,-1.085,-1.0698,-1.0688,-1.0688,-1.0688,-1.0688,-1.0688,-1.0688,-1.0688,0.0,-1.0578,-1.0616,-1.0558,-1.0412,-1.0412,-1.0365,-1.0315,-1.0337,-1.0409,-1.0493,-1.0555,-1.0633,-1.0688,-1.0688,-1.0183,-0.9344,-0.8809,-0.7472,-0.5763,-0.4688,-0.3715,-0.2851,-0.2301,-0.2123,-0.2114,-0.2114,-0.208,-0.2038,-0.1996,-0.1992,-0.199,-0.201,-0.2008,-0.2008,-0.2008,-0.2008,-0.2008,-0.2008,-0.2008,-0.2008,-0.2008,-0.2008,-0.2008,-0.2008,-0.2008,-0.2001,-0.1952,-0.1913,-0.1879,-0.1831,0.0,0.0,0.0,0.0,0.0,0.0,-0.1811,0.0,0.0,0.0,0.0,0.0,0.0,0.0,-0.1913,-0.1907,0.0,-0.1986,-0.208,-0.2111,-0.211,-0.2173,-0.2188,-0.2188,-0.2188,-0.2188,-0.2188,-0.1919,-0.1616,-0.1245,-0.0875,-0.0505,-0.0168,-0.0034,0.0,0.0,0.0,0.0,0.0,-1.1592,-1.1584,-1.1584,0.0,-1.1584,0.0,-1.1584,-1.1584,-1.1727,-1.2126,-1.1835,-1.1727,-1.2122,-1.1825,-1.1394,-1.0968,0.0,0.0,0.0,-1.0688,-1.0688,-1.0688,-1.0688,-1.0688,-1.0688,-1.0688,-1.0688,-1.0688,-1.0578,-1.0439,-1.0342,-1.0342,-1.0342,-1.0317,-1.0449,-1.0507,-1.0517,-1.066,-1.0688,-1.0688,-1.0688,-1.0688,-1.0552,-0.9244,-0.8673,-0.824,-0.557,-0.4535,-0.4233,-0.2927,-0.2369,-0.2244,-0.2244,-0.2191,-0.2096,-0.2031,-0.2022,-0.2016,-0.2021,-0.2012,-0.201,-0.201,-0.2009,-0.2008,-0.2008,-0.2008,-0.2008,-0.2008,-0.2008,-0.2008,-0.2008,-0.2008,-0.2007,-0.2005,-0.1954,-0.1885,-0.1883,0.0,0.0,0.0,0.0,0.0,0.0,-0.1867,-0.1861,0.0,0.0,0.0,0.0,0.0,-0.189,-0.189,-0.1919,-0.1932,-0.2021,-0.2084,-0.2115,-0.2112,-0.2174,-0.2188,-0.2188,-0.2188,-0.2188,-0.2188,-0.2188,-0.1986,-0.1582,-0.1279,-0.0875,-0.0471,-0.0168,-0.0034,0.0,0.0,0.0,0.0,0.0,0.0,-1.1584,-1.1584,-1.1584,-1.1584,-1.1584,-1.1584,-1.1619,-1.1727,-1.1655,-1.1655,-1.1727,-1.1586,-1.1355,-1.1166,-1.1149,-1.1002,-1.0704,-1.0688,-1.0688,-1.0688,-1.0688,-1.0688,-1.0688,-1.0688,-1.0688,-1.0688,-1.0683,-1.0649,-1.0616,-1.0616,-1.0616,-1.0619,-1.0653,-1.0666,-1.0637,-1.0704,-1.0688,-1.0688,-1.0688,-1.0688,-1.0651,-1.0319,-0.9546,-0.8507,-0.7838,-0.6869,-0.5867,-0.5533,-0.4689,-0.3779,-0.3779,-0.3039,-0.2156,-0.2101,-0.2085,-0.2084,-0.2077,-0.2026,-0.2009,-0.2009,-0.1992,-0.2008,-0.2008,-0.2008,-0.2008,-0.2008,-0.2008,-0.2008,-0.2008,-0.2008,-0.1969,-0.1946,-0.191,-0.1878,-0.1825,-0.181,0.0,0.0,-0.1832,-0.1875,-0.1875,-0.1832,-0.1835,0.0,0.0,0.0,0.0,-0.1945,-0.1952,-0.1892,-0.195,-0.1994,-0.2084,-0.2083,-0.2114,-0.2177,-0.2185,-0.2188,-0.2188,-0.2188,-0.2188,-0.2188,-0.2188,-0.1986,-0.1582,-0.1515,-0.1111,-0.0505,-0.0404,-0.0236,0.0,0.0,0.0,0.0,-1.1584,-1.1584,-1.1584,-1.1584,-1.1763,-1.1871,-1.1871,-1.2047,-1.2187,-1.2366,-1.2259,-1.2223,-1.2366,-1.218,-1.1924,-1.1594,-1.1248,-1.0968,-1.0738,-1.0688,-1.0688,-1.0688,-1.0688,-1.0688,-1.0688,-1.0688,-1.0688,-1.0688,-1.0688,-1.0688,-1.0688,-1.0688,-1.0688,-1.0688,-1.0688,-1.0688,-1.0688,-1.0688,-1.0688,-1.0688,-1.0688,-1.0688,-1.0688,-1.0688,-1.0216,-0.948,-0.8842,-0.8071,-0.7303,-0.6633,-0.5468,-0.43,-0.43,-0.3329,-0.2181,-0.2148,-0.2128,-0.2114,-0.21,-0.2084,-0.2039,-0.2039,-0.2018,-0.1996,-0.1996,-0.1986,-0.2008,-0.2008,-0.2008,-0.2008,-0.2008,-0.2008,-0.1967,-0.1906,-0.1906,-0.1875,-0.1816,-0.1812,0.0,-0.1812,-0.1867,-0.1886,-0.1886,-0.1854,-0.1861,-0.1909,-0.1921,0.0,-0.1901,-0.1973,-0.1982,-0.1953,-0.198,-0.2024,-0.2084,-0.2115,-0.2172,-0.2188,-0.2188,-0.2188,-0.2188,-0.2188,-0.2188,-0.2188,-0.2188,-0.2087,-0.1851,-0.1683,-0.138,-0.0976,-0.0639,-0.0404,-0.0202,-0.0067,0.0,0.0,-1.1691,-1.1727,-1.176,-1.1691,-1.2015,-1.2302,-1.2302,-1.2578,-1.2896,-1.3182,-1.2968,-1.2896,-1.3182,-1.2945,-1.2546,-1.2071,-1.1447,-1.0958,-1.0728,-1.0721,-1.0744,-1.0754,-1.0787,-1.0787,-1.0787,-1.0721,-1.0688,-1.0688,-1.0688,-1.0688,-1.0688,-1.0688,-1.0688,-1.0688,-1.0688,-1.0688,-1.0688,-1.0688,-1.0688,-1.0688,-1.0688,-1.0688,-1.0688,-1.0688,-1.0688,-1.0552,-0.9344,-0.8909,-0.874,-0.7469,-0.6103,-0.4902,-0.4701,-0.3664,-0.249,-0.2256,-0.217,-0.211,-0.2117,-0.2107,-0.2102,-0.2097,-0.2044,-0.2025,-0.2025,-0.2007,-0.2021,-0.2021,-0.2017,-0.2014,-0.2014,-0.201,-0.1967,-0.1906,-0.1906,-0.1875,-0.1816,0.0,-0.1818,-0.1818,-0.1878,-0.1929,-0.1929,-0.1919,-0.1892,-0.1901,-0.1978,-0.1967,-0.1915,-0.1965,-0.2016,-0.2028,-0.202,-0.2059,-0.2116,-0.2175,-0.2188,-0.2188,-0.2188,-0.2188,-0.2188,-0.2188,-0.2188,-0.2188,-0.2188,-0.2188,-0.2188,-0.1818,-0.1649,-0.1548,-0.0841,-0.0538,-0.0471,-0.0135,0.0,0.0,-1.2158,-1.2366,-1.2506,-1.2158,-1.2438,-1.2721,-1.2721,-1.2753,-1.2824,-1.286,-1.2824,-1.2824,-1.286,-1.2669,-1.2485,-1.2286,-1.1991,-1.1569,-1.0914,-1.088,-1.0954,-1.1122,-1.1118,-1.1118,-1.1118,-1.0853,-1.0688,-1.0688,-1.0688,-1.0688,-1.0688,-1.0688,-1.0688,-1.0688,-1.0688,-1.0688,-1.0688,-1.0688,-1.0688,-1.0688,-1.0688,-1.0688,-1.0688,-1.0688,-1.0688,-1.0688,-1.0452,-1.0382,-1.0349,-1.0117,-0.9111,-0.7705,-0.6466,-0.5101,-0.3731,-0.2558,-0.2185,-0.218,-0.2175,-0.2155,-0.2096,-0.2102,-0.2093,-0.2089,-0.2089,-0.2085,-0.2082,-0.2082,-0.203,-0.2011,-0.2011,-0.1992,-0.1967,-0.1906,-0.1906,-0.1875,-0.1816,0.0,-0.1879,-0.1879,-0.1958,-0.1993,-0.1993,-0.1943,-0.191,-0.1992,-0.2002,-0.1985,-0.1973,-0.2038,-0.2099,-0.2088,-0.2093,-0.2112,-0.2181,-0.2186,-0.2188,-0.2188,-0.2188,-0.2188,-0.2188,-0.2188,-0.2188,-0.2188,-0.2188,-0.2188,-0.2188,-0.2121,-0.1919,-0.1548,-0.1178,-0.0808,-0.0471,-0.0135,0.0,0.0,-1.2545,-1.2685,-1.2753,-1.2545,-1.2828,-1.3075,-1.3075,-1.3257,-1.3396,-1.3396,-1.3396,-1.3396,-1.3396,-1.3212,-1.2978,-1.2758,-1.2555,-1.215,-1.1527,-1.1407,-1.1326,-1.1218,-1.1416,-1.1413,-1.1214,-1.1049,-1.0986,-1.0986,-1.0787,-1.0787,-1.0986,-1.0787,-1.0688,-1.0688,-1.0688,-1.0688,-1.0688,-1.0688,-1.0688,-1.0688,-1.0688,-1.0688,-1.0688,-1.0688,-1.0688,-1.0585,-0.9848,-0.9579,-0.9579,-0.9579,-0.8607,-0.7436,-0.7536,-0.607,-0.4167,-0.353,-0.2792,-0.2188,-0.2188,-0.2178,-0.2163,-0.215,-0.2134,-0.2089,-0.2089,-0.2108,-0.2096,-0.2096,-0.2084,-0.2043,-0.2043,-0.2064,-0.204,-0.1963,-0.193,0.0,0.0,-0.1877,-0.1892,-0.1908,-0.1963,-0.1999,-0.1999,-0.2001,-0.2008,-0.2054,-0.2055,-0.2061,-0.2042,-0.2072,-0.2095,-0.2109,-0.2125,-0.2174,-0.2188,-0.2188,-0.2188,-0.2188,-0.2188,-0.2188,-0.2188,-0.2188,-0.2188,-0.2188,-0.2188,-0.2188,-0.2188,-0.2188,-0.2087,-0.1885,-0.1515,-0.1144,-0.0774,-0.0404,-0.0168,0.0,-1.2932,-1.3003,-1.3039,-1.2932,-1.3218,-1.3432,-1.3432,-1.3686,-1.39,-1.39,-1.39,-1.39,-1.39,-1.3747,-1.3528,-1.3204,-1.3035,-1.2695,-1.212,-1.205,-1.1846,-1.1479,-1.1747,-1.178,-1.1446,-1.128,-1.1247,-1.135,-1.0982,-1.0953,-1.1181,-1.0949,-1.0754,-1.0688,-1.0688,-1.0688,-1.0688,-1.0688,-1.0688,-1.0688,-1.0688,-1.0688,-1.0688,-1.0688,-1.0688,-1.0552,-0.948,-0.9075,-0.9042,-0.8706,-0.8071,-0.7469,-0.7938,-0.6804,-0.517,-0.4501,-0.3295,-0.2188,-0.2188,-0.2188,-0.2188,-0.2188,-0.217,-0.212,-0.212,-0.2134,-0.2118,-0.2118,-0.2111,-0.2107,-0.2107,-0.2101,-0.2081,-0.2035,0.0,0.0,0.0,-0.1917,-0.1925,-0.1918,-0.1997,-0.2029,-0.2029,-0.2082,-0.2096,-0.2096,-0.2103,-0.2107,-0.2107,-0.2104,-0.212,-0.212,-0.2176,-0.2188,-0.2188,-0.2188,-0.2188,-0.2188,-0.2188,-0.2188,-0.2188,-0.2188,-0.2188,-0.2188,-0.2188,-0.2188,-0.2188,-0.2188,-0.2188,-0.2155,-0.175,-0.1447,-0.1144,-0.0673,-0.0337,-0.0101,-1.3325,-1.3579,-1.3686,-1.3325,-1.3579,-1.3864,-1.3864,-1.3864,-1.39,-1.39,-1.39,-1.39,-1.39,-1.3892,-1.375,-1.3421,-1.3342,-1.3052,-1.2314,-1.2547,-1.2572,-1.2243,-1.2243,-1.2243,-1.221,-1.1549,-1.138,-1.1747,-1.1347,-1.1181,-1.1214,-1.1185,-1.0982,-1.0688,-1.0688,-1.0688,-1.0688,-1.0688,-1.0688,-1.0688,-1.0688,-1.0688,-1.0688,-1.0688,-1.0688,-1.0688,-1.0585,-1.0552,-1.0349,-0.9042,-0.941,-0.9948,-0.7369,-0.7369,-0.7772,-0.5069,-0.3295,-0.2188,-0.2188,-0.2188,-0.2188,-0.2188,-0.2186,-0.2185,-0.2185,-0.2183,-0.2181,-0.2181,-0.2159,-0.2106,-0.2106,-0.2115,-0.2095,-0.2091,0.0,0.0,-0.1977,-0.2009,-0.1978,-0.198,-0.2041,-0.2093,-0.2093,-0.2095,-0.2096,-0.2096,-0.209,-0.2106,-0.2106,-0.2168,-0.2185,-0.2185,-0.2188,-0.2188,-0.2188,-0.2188,-0.2188,-0.2188,-0.2188,-0.2188,-0.2188,-0.2188,-0.2188,-0.2188,-0.2188,-0.2188,-0.2188,-0.2188,-0.2188,-0.2155,-0.175,-0.1582,-0.1481,-0.0774,-0.0471,-0.0404,-1.3686,-1.3793,-1.3864,-1.3686,-1.3793,-1.39,-1.39,-1.39,-1.39,-1.39,-1.39,-1.39,-1.39,-1.3807,-1.3654,-1.3551,-1.3331,-1.3107,-1.2802,-1.2798,-1.2737,-1.2605,-1.2605,-1.2507,-1.2309,-1.2045,-1.1945,-1.2111,-1.1747,-1.1681,-1.1879,-1.1681,-1.1516,-1.1383,-1.1383,-1.1251,-1.1019,-1.1019,-1.0883,-1.0688,-1.0688,-1.0688,-1.0688,-1.0688,-1.0688,-1.0585,-0.9712,-0.941,-0.931,-0.8773,-0.8338,-0.8138,-0.8839,-0.8238,-0.6833,-0.4868,-0.3932,-0.3295,-0.2423,-0.2188,-0.2188,-0.2188,-0.2188,-0.2188,-0.2188,-0.2188,-0.2188,-0.2188,-0.2179,-0.2171,-0.2171,-0.2161,-0.2147,-0.2095,0.0,-0.2047,-0.2047,-0.2031,-0.2025,-0.2044,-0.2074,-0.2092,-0.2092,-0.2142,-0.2153,-0.2153,-0.2164,-0.2171,-0.2171,-0.2182,-0.2188,-0.2188,-0.2188,-0.2188,-0.2188,-0.2188,-0.2188,-0.2188,-0.2188,-0.2188,-0.2188,-0.2188,-0.2188,-0.2188,-0.2188,-0.2188,-0.2188,-0.2188,-0.2188,-0.2188,-0.202,-0.1818,-0.1548,-0.1043,-0.0707,-0.0437,-1.39,-1.39,-1.39,-1.39,-1.39,-1.39,-1.39,-1.39,-1.39,-1.39,-1.39,-1.39,-1.39,-1.3794,-1.367,-1.3613,-1.3378,-1.3242,-1.3185,-1.3015,-1.286,-1.2807,-1.2803,-1.2704,-1.2474,-1.2342,-1.2342,-1.2474,-1.2111,-1.2078,-1.2276,-1.2045,-1.1912,-1.1813,-1.1813,-1.1648,-1.138,-1.1247,-1.1085,-1.0853,-1.0754,-1.0688,-1.0688,-1.0688,-1.0688,-1.0585,-0.9613,-0.9244,-0.9175,-0.8742,-0.8205,-0.7938,-0.9008,-0.8002,-0.6199,-0.5235,-0.4634,-0.3999,-0.2591,-0.2188,-0.2188,-0.2188,-0.2188,-0.2188,-0.2188,-0.2188,-0.2188,-0.2188,-0.2188,-0.2188,-0.2188,-0.2188,-0.2181,-0.2127,-0.2139,-0.2125,-0.2125,-0.2107,-0.2069,-0.2123,-0.2143,-0.2123,-0.2123,-0.2176,-0.2188,-0.2188,-0.2188,-0.2188,-0.2188,-0.2188,-0.2188,-0.2188,-0.2188,-0.2188,-0.2188,-0.2188,-0.2188,-0.2188,-0.2188,-0.2188,-0.2188,-0.2188,-0.2188,-0.2188,-0.2188,-0.2188,-0.2188,-0.2188,-0.2188,-0.2188,-0.2188,-0.202,-0.175,-0.138,-0.101,-0.0639,-1.39,-1.39,-1.39,-1.39,-1.39,-1.39,-1.39,-1.39,-1.39,-1.39,-1.39,-1.39,-1.39,-1.39,-1.3831,-1.3625,-1.3609,-1.3532,-1.3419,-1.3197,-1.3019,-1.2815,-1.2807,-1.2803,-1.2803,-1.2474,-1.2474,-1.2803,-1.2474,-1.2309,-1.2309,-1.2309,-1.2144,-1.1813,-1.1813,-1.1813,-1.178,-1.138,-1.1214,-1.1185,-1.0853,-1.0688,-1.0688,-1.0688,-1.0688,-1.0688,-1.0688,-1.0688,-1.0485,-0.9075,-0.9546,-1.0183,-0.7303,-0.64,-0.64,-0.64,-0.5401,-0.3999,-0.2591,-0.2222,-0.2222,-0.2188,-0.2188,-0.2188,-0.2188,-0.2188,-0.2188,-0.2188,-0.2188,-0.2188,-0.2188,-0.2188,-0.2188,-0.2188,-0.2188,-0.2188,-0.2188,-0.2188,-0.2188,-0.2188,-0.2188,-0.2188,-0.2188,-0.2188,-0.2188,-0.2188,-0.2188,-0.2188,-0.2188,-0.2188,-0.2188,-0.2188,-0.2188,-0.2188,-0.2188,-0.2188,-0.2188,-0.2188,-0.2188,-0.2188,-0.2188,-0.2188,-0.2188,-0.2188,-0.2188,-0.2188,-0.2188,-0.2188,-0.2188,-0.2188,-0.2188,-0.2188,-0.2155,-0.175,-0.138,-0.1043,-1.39,-1.39,-1.39,-1.39,-1.39,-1.39,-1.39,-1.39,-1.39,-1.39,-1.39,-1.39,-1.39,-1.39,-1.388,-1.3827,-1.3678,-1.3532,-1.3419,-1.3353,-1.3267,-1.3214,-1.2937,-1.2803,-1.2803,-1.2704,-1.2704,-1.2803,-1.2704,-1.2638,-1.2638,-1.2638,-1.2605,-1.2507,-1.2507,-1.2375,-1.2144,-1.2011,-1.1846,-1.1582,-1.1214,-1.1049,-1.1016,-1.0787,-1.0688,-1.0688,-1.0688,-1.0688,-1.0654,-1.0216,-0.9679,-0.8909,-0.7,-0.71,-0.7736,-0.67,-0.6099,-0.5468,-0.4065,-0.3664,-0.343,-0.2457,-0.2188,-0.2188,-0.2188,-0.2188,-0.2188,-0.2188,-0.2188,-0.2188,-0.2188,-0.2188,-0.2188,-0.2188,-0.2188,-0.2188,-0.2188,-0.2188,-0.2188,-0.2188,-0.2188,-0.2188,-0.2188,-0.2188,-0.2188,-0.2188,-0.2188,-0.2188,-0.2188,-0.2188,-0.2188,-0.2188,-0.2188,-0.2188,-0.2188,-0.2188,-0.2188,-0.2188,-0.2188,-0.2188,-0.2188,-0.2188,-0.2188,-0.2188,-0.2188,-0.2188,-0.2188,-0.2188,-0.2188,-0.2188,-0.2188,-0.2188,-0.2155,-0.175,-0.138,-0.1043,-1.39,-1.39,-1.39,-1.39,-1.39,-1.39,-1.39,-1.39,-1.39,-1.39,-1.39,-1.39,-1.39,-1.39,-1.39,-1.39,-1.3807,-1.3662,-1.3587,-1.3518,-1.3478,-1.3478,-1.3202,-1.3015,-1.2904,-1.2904,-1.2872,-1.2803,-1.2803,-1.2803,-1.2803,-1.2803,-1.2803,-1.2803,-1.2803,-1.2704,-1.2507,-1.2375,-1.2177,-1.1945,-1.1578,-1.135,-1.1181,-1.0986,-1.082,-1.0688,-1.0688,-1.0688,-1.0688,-1.0688,-0.9779,-0.8437,-0.7536,-0.7469,-0.7436,-0.6001,-0.5568,-0.5367,-0.4535,-0.3899,-0.3396,-0.3094,-0.2625,-0.2188,-0.2188,-0.2188,-0.2188,-0.2188,-0.2188,-0.2188,-0.2188,-0.2188,-0.2188,-0.2188,-0.2188,-0.2188,-0.2188,-0.2188,-0.2188,-0.2188,-0.2188,-0.2188,-0.2188,-0.2188,-0.2188,-0.2188,-0.2188,-0.2188,-0.2188,-0.2188,-0.2188,-0.2188,-0.2188,-0.2188,-0.2188,-0.2188,-0.2188,-0.2188,-0.2188,-0.2188,-0.2188,-0.2188,-0.2188,-0.2188,-0.2188,-0.2188,-0.2188,-0.2188,-0.2188,-0.2188,-0.2188,-0.2188,-0.2155,-0.1919,-0.1616,-0.1245,-1.39,-1.39,-1.39,-1.39,-1.39,-1.39,-1.39,-1.39,-1.39,-1.39,-1.39,-1.39,-1.39,-1.39,-1.39,-1.39,-1.39,-1.39,-1.39,-1.3719,-1.3633,-1.3633,-1.3506,-1.3366,-1.3149,-1.3128,-1.3035,-1.2827,-1.2827,-1.2819,-1.2803,-1.2803,-1.2803,-1.2803,-1.2803,-1.2803,-1.277,-1.2474,-1.2342,-1.2309,-1.1978,-1.1615,-1.128,-1.1218,-1.1019,-1.0754,-1.0721,-1.0688,-1.0688,-1.0688,-0.9848,-0.8742,-0.8473,-0.7469,-0.6132,-0.4701,-0.43,-0.43,-0.43,-0.3463,-0.2826,-0.3865,-0.3228,-0.2357,-0.2222,-0.2188,-0.2188,-0.2188,-0.2188,-0.2188,-0.2188,-0.2188,-0.2188,-0.2188,-0.2188,-0.2188,-0.2188,-0.2188,-0.2188,-0.2188,-0.2188,-0.2188,-0.2188,-0.2188,-0.2188,-0.2188,-0.2188,-0.2188,-0.2188,-0.2188,-0.2188,-0.2188,-0.2188,-0.2188,-0.2188,-0.2188,-0.2188,-0.2188,-0.2188,-0.2188,-0.2188,-0.2188,-0.2188,-0.2188,-0.2188,-0.2188,-0.2188,-0.2188,-0.2188,-0.2188,-0.2188,-0.2188,-0.2188,-0.2188,-0.1953,-0.1548,-1.39,-1.39,-1.39,-1.39,-1.39,-1.39,-1.39,-1.39,-1.39,-1.39,-1.39,-1.39,-1.39,-1.39,-1.39,-1.39,-1.39,-1.39,-1.39,-1.3868,-1.3847,-1.3847,-1.3807,-1.3705,-1.3492,-1.3384,-1.3256,-1.3039,-1.3039,-1.2937,-1.2803,-1.2803,-1.2803,-1.2803,-1.2803,-1.2803,-1.2803,-1.2704,-1.2704,-1.2671,-1.2342,-1.2144,-1.2008,-1.1413,-1.1148,-1.1052,-1.0787,-1.0688,-1.0688,-1.0688,-1.0485,-0.9848,-0.7603,-0.6667,-0.6132,-0.4701,-0.43,-0.43,-0.43,-0.4867,-0.5031,-0.3127,-0.3262,-0.3564,-0.2457,-0.2188,-0.2188,-0.2188,-0.2188,-0.2188,-0.2188,-0.2188,-0.2188,-0.2188,-0.2188,-0.2188,-0.2188,-0.2188,-0.2188,-0.2188,-0.2188,-0.2188,-0.2188,-0.2188,-0.2188,-0.2188,-0.2188,-0.2188,-0.2188,-0.2188,-0.2188,-0.2188,-0.2188,-0.2188,-0.2188,-0.2188,-0.2188,-0.2188,-0.2188,-0.2188,-0.2188,-0.2188,-0.2188,-0.2188,-0.2188,-0.2188,-0.2188,-0.2188,-0.2188,-0.2188,-0.2188,-0.2188,-0.2188,-0.2188,-0.1953,-0.1515,-1.39,-1.39,-1.39,-1.39,-1.39,-1.39,-1.39,-1.39,-1.39,-1.39,-1.39,-1.39,-1.39,-1.39,-1.39,-1.39,-1.39,-1.39,-1.39,-1.39,-1.39,-1.39,-1.39,-1.3859,-1.3735,-1.3673,-1.3494,-1.3226,-1.3226,-1.3133,-1.2925,-1.2925,-1.2884,-1.2803,-1.2803,-1.2803,-1.2803,-1.2803,-1.2803,-1.277,-1.2605,-1.2441,-1.2276,-1.1879,-1.1644,-1.1449,-1.1085,-1.0853,-1.0688,-1.0688,-1.0688,-1.0319,-0.8138,-0.6967,-0.6132,-0.4701,-0.3831,-0.343,-0.4133,-0.4332,-0.4364,-0.423,-0.3763,-0.3094,-0.2356,-0.2188,-0.2188,-0.2188,-0.2188,-0.2188,-0.2188,-0.2188,-0.2188,-0.2188,-0.2188,-0.2188,-0.2188,-0.2188,-0.2188,-0.2188,-0.2188,-0.2188,-0.2188,-0.2188,-0.2188,-0.2188,-0.2188,-0.2188,-0.2188,-0.2188,-0.2188,-0.2188,-0.2188,-0.2188,-0.2188,-0.2188,-0.2188,-0.2188,-0.2188,-0.2188,-0.2188,-0.2188,-0.2188,-0.2188,-0.2188,-0.2188,-0.2188,-0.2188,-0.2188,-0.2188,-0.2188,-0.2188,-0.2188,-0.2188,-0.1953,-0.1515,-1.39,-1.39,-1.39,-1.39,-1.39,-1.39,-1.39,-1.39,-1.39,-1.39,-1.39,-1.39,-1.39,-1.39,-1.39,-1.39,-1.39,-1.39,-1.39,-1.39,-1.39,-1.39,-1.39,-1.39,-1.39,-1.39,-1.3742,-1.3417,-1.3417,-1.3323,-1.3141,-1.3141,-1.3047,-1.2848,-1.2848,-1.2831,-1.2803,-1.2803,-1.2803,-1.2803,-1.2803,-1.2638,-1.2375,-1.2309,-1.2144,-1.1846,-1.1449,-1.1085,-1.0787,-1.0721,-1.0688,-1.0452,-0.9042,-0.7769,-0.65,-0.5068,-0.3664,-0.2826,-0.3999,-0.3463,-0.306,-0.5165,-0.4097,-0.249,-0.2256,-0.2188,-0.2188,-0.2188,-0.2188,-0.2188,-0.2188,-0.2188,-0.2188,-0.2188,-0.2188,-0.2188,-0.2188,-0.2188,-0.2188,-0.2188,-0.2188,-0.2188,-0.2188,-0.2188,-0.2188,-0.2188,-0.2188,-0.2188,-0.2188,-0.2188,-0.2188,-0.2188,-0.2188,-0.2188,-0.2188,-0.2188,-0.2188,-0.2188,-0.2188,-0.2188,-0.2188,-0.2188,-0.2188,-0.2188,-0.2188,-0.2188,-0.2188,-0.2188,-0.2188,-0.2188,-0.2188,-0.2188,-0.2188,-0.2188,-0.1986,-0.1649,-1.39,-1.39,-1.39,-1.39,-1.39,-1.39,-1.39,-1.39,-1.39,-1.39,-1.39,-1.39,-1.39,-1.39,-1.39,-1.39,-1.39,-1.39,-1.39,-1.39,-1.39,-1.39,-1.39,-1.39,-1.39,-1.39,-1.3807,-1.3573,-1.3573,-1.3514,-1.3366,-1.3366,-1.3234,-1.3059,-1.3059,-1.2974,-1.2803,-1.2803,-1.2803,-1.2803,-1.2803,-1.277,-1.2704,-1.2408,-1.2276,-1.2177,-1.1846,-1.1483,-1.1082,-1.0787,-1.0688,-1.0452,-0.9042,-0.8473,-0.8005,-0.6533,-0.5135,-0.4066,-0.4233,-0.4167,-0.3831,-0.2993,-0.3396,-0.3698,-0.249,-0.2188,-0.2188,-0.2188,-0.2188,-0.2188,-0.2188,-0.2188,-0.2188,-0.2188,-0.2188,-0.2188,-0.2188,-0.2188,-0.2188,-0.2188,-0.2188,-0.2188,-0.2188,-0.2188,-0.2188,-0.2188,-0.2188,-0.2188,-0.2188,-0.2188,-0.2188,-0.2188,-0.2188,-0.2188,-0.2188,-0.2188,-0.2188,-0.2188,-0.2188,-0.2188,-0.2188,-0.2188,-0.2188,-0.2188,-0.2188,-0.2188,-0.2188,-0.2188,-0.2188,-0.2188,-0.2188,-0.2188,-0.2188,-0.2188,-0.2155,-0.2054,-1.39,-1.39,-1.39,-1.39,-1.39,-1.39,-1.39,-1.39,-1.39,-1.39,-1.39,-1.39,-1.39,-1.39,-1.39,-1.39,-1.39,-1.39,-1.39,-1.39,-1.39,-1.39,-1.39,-1.39,-1.39,-1.39,-1.3863,-1.3751,-1.3751,-1.3697,-1.3522,-1.3522,-1.3425,-1.3284,-1.3284,-1.3149,-1.2982,-1.2982,-1.2892,-1.2803,-1.2803,-1.2803,-1.277,-1.2638,-1.2572,-1.2507,-1.1978,-1.1416,-1.0886,-1.0754,-1.0688,-1.0585,-0.9981,-0.9244,-0.8473,-0.7836,-0.6036,-0.43,-0.43,-0.3731,-0.3162,-0.3329,-0.3262,-0.3162,-0.3329,-0.2759,-0.2188,-0.2188,-0.2188,-0.2188,-0.2188,-0.2188,-0.2188,-0.2188,-0.2188,-0.2188,-0.2188,-0.2188,-0.2188,-0.2188,-0.2188,-0.2188,-0.2188,-0.2188,-0.2188,-0.2188,-0.2188,-0.2188,-0.2188,-0.2188,-0.2188,-0.2188,-0.2188,-0.2188,-0.2188,-0.2188,-0.2188,-0.2188,-0.2188,-0.2188,-0.2188,-0.2188,-0.2188,-0.2188,-0.2188,-0.2188,-0.2188,-0.2188,-0.2188,-0.2188,-0.2188,-0.2188,-0.2188,-0.2188,-0.2188,-0.2155]},{"header":{"parameterUnit":"m.s-1","parameterCategory":1,"la1":30.6,"la2":28.766,"lo1":-90.7593,"lo2":-88.6598,"dy":0.0162,"dx":0.0183,"nx":116,"ny":114,"refTime":"2023-03-27T06:00:00:Z","depth":0,"parameterNumber":3,"parameterNumberName":"V-component_of_WINDS"},"data":[0.0,0.0,0.0,0.0,0.0,0.0,0.0,0.0,0.0,0.0,0.0,0.0,0.0,0.0,0.0,0.0,0.0,0.0,0.0,0.0,0.0,0.0,0.0,0.0,0.0,0.0,0.0,0.0,0.0,0.0,0.0,0.0,0.0,0.0,0.0,0.0,0.0,0.0,0.0,0.0,0.0,0.0,0.0,0.0,0.0,0.0,0.0,0.0,0.0,0.0,0.0,0.0,0.0,0.0,0.0,0.0,0.0,0.0,0.0,0.0,0.0,0.0,0.0,0.0,0.0,0.0,0.0,0.0,0.0,0.0,0.0,0.0,0.0,0.0,0.0,0.0,0.0,0.0,0.0,0.0,0.0,0.0,0.0,0.0,0.0,0.0,0.0,0.0,0.0,0.0,0.0,0.0,0.0,0.0,0.0,0.0,0.0,0.0,0.0,0.0,0.0,0.0,0.0,0.0,0.0,0.0,0.0,0.0,0.0,0.0,0.0,0.0,0.0,0.0,0.0,0.0,0.0,0.0,0.0,0.0,0.0,0.0,0.0,0.0,0.0,0.0,0.0,0.0,0.0,0.0,0.0,0.0,0.0,0.0,0.0,0.0,0.0,0.0,0.0,0.0,0.0,0.0,0.0,0.0,0.0,0.0,0.0,0.0,0.0,0.0,0.0,0.0,0.0,0.0,0.0,0.0,0.0,0.0,0.0,0.0,0.0,0.0,0.0,0.0,0.0,0.0,0.0,0.0,0.0,0.0,0.0,0.0,0.0,0.0,0.0,0.0,0.0,0.0,0.0,0.0,0.0,0.0,0.0,0.0,0.0,0.0,0.0,0.0,0.0,0.0,0.0,0.0,0.0,0.0,0.0,0.0,0.0,0.0,0.0,0.0,0.0,0.0,0.0,0.0,0.0,0.0,0.0,0.0,0.0,0.0,0.0,0.0,0.0,0.0,0.0,0.0,0.0,0.0,0.0,0.0,0.0,0.0,0.0,0.0,0.0,0.0,0.0,0.0,0.0,0.0,0.0,0.0,0.0,0.0,0.0,0.0,0.0,0.0,0.0,0.0,0.0,0.0,0.0,0.0,0.0,0.0,0.0,0.0,0.0,0.0,0.0,0.0,0.0,0.0,0.0,0.0,0.0,0.0,0.0,0.0,0.0,0.0,0.0,0.0,0.0,0.0,0.0,0.0,0.0,0.0,0.0,0.0,0.0,0.0,0.0,0.0,0.0,0.0,0.0,0.0,0.0,0.0,0.0,0.0,0.0,0.0,0.0,0.0,0.0,0.0,0.0,0.0,0.0,0.0,0.0,0.0,0.0,0.0,0.0,0.0,0.0,0.0,0.0,0.0,0.0,0.0,0.0,0.0,0.0,0.0,0.0,0.0,0.0,0.0,0.0,0.0,0.0,0.0,0.0,0.0,0.0,0.0,0.0,0.0,0.0,0.0,0.0,0.0,0.0,0.0,0.0,0.0,0.0,0.0,0.0,0.0,0.0,0.0,0.0,0.0,0.0,0.0,0.0,0.0,0.0,0.0,0.0,0.0,0.0,0.0,0.0,0.0,0.0,0.0,0.0,0.0,0.0,0.0,0.0,0.0,0.0,0.0,0.0,0.0,0.0,0.0,0.0,0.0,0.0,0.0,0.0,0.0,0.0,0.0,0.0,0.0,0.0,0.0,0.0,0.0,0.0,0.0,0.0,0.0,0.0,0.0,0.0,0.0,0.0,0.0,0.0,0.0,0.0,0.0,0.0,0.0,0.0,0.0,0.0,0.0,0.0,0.0,0.0,0.0,0.0,0.0,0.0,0.0,0.0,0.0,0.0,0.0,0.0,0.0,0.0,0.0,0.0,0.0,0.0,0.0,0.0,0.0,0.0,0.0,0.0,0.0,0.0,0.0,0.0,0.0,0.0,0.0,0.0,0.0,0.0,0.0,0.0,0.0,0.0,0.0,0.0,0.0,0.0,0.0,0.0,0.0,0.0,0.0,0.0,0.0,0.0,0.0,0.0,0.0,0.0,0.0,0.0,0.0,0.0,0.0,0.0,0.0,0.0,0.0,0.0,0.0,0.0,0.0,0.0,0.0,0.0,0.0,0.0,0.0,0.0,0.0,0.0,0.0,0.0,0.0,0.0,0.0,0.0,0.0,0.0,0.0,0.0,0.0,0.0,0.0,0.0,0.0,0.0,0.0,0.0,0.0,0.0,0.0,0.0,0.0,0.0,0.0,0.0,0.0,0.0,0.0,0.0,0.0,0.0,0.0,0.0,0.0,0.0,0.0,0.0,0.0,0.0,0.0,0.0,0.0,0.0,0.0,0.0,0.0,0.0,0.0,0.0,0.0,0.0,0.0,0.0,0.0,0.0,0.0,0.0,0.0,0.0,0.0,0.0,0.0,0.0,0.0,0.0,0.0,0.0,0.0,0.0,0.0,0.0,0.0,0.0,0.0,0.0,0.0,0.0,0.0,0.0,0.0,0.0,0.0,0.0,0.0,0.0,0.0,0.0,0.0,0.0,0.0,0.0,0.0,0.0,0.0,0.0,0.0,0.0,0.0,0.0,0.0,0.0,0.0,0.0,0.0,0.0,0.0,0.0,0.0,0.0,0.0,0.0,0.0,0.0,0.0,0.0,0.0,0.0,0.0,0.0,0.0,0.0,0.0,0.0,0.0,0.0,0.0,0.0,0.0,0.0,0.0,0.0,0.0,0.0,0.0,0.0,0.0,0.0,0.0,0.0,0.0,0.0,0.0,0.0,0.0,0.0,0.0,0.0,0.0,0.0,0.0,0.0,0.0,0.0,0.0,0.0,0.0,0.0,0.0,0.0,0.0,0.0,0.0,0.0,0.0,0.0,0.0,0.0,0.0,0.0,0.0,0.0,0.0,0.0,0.0,0.0,0.0,0.0,0.0,0.0,0.0,0.0,0.0,0.0,0.0,0.0,0.0,0.0,0.0,0.0,0.0,0.0,0.0,0.0,0.0,0.0,0.0,0.0,0.0,0.0,0.0,0.0,0.0,0.0,0.0,0.0,0.0,0.0,0.0,0.0,0.0,0.0,0.0,0.0,0.0,0.0,0.0,0.0,0.0,0.0,0.0,0.0,0.0,0.0,0.0,0.0,0.0,0.0,0.0,0.0,0.0,0.0,0.0,0.0,0.0,0.0,0.0,0.0,0.0,0.0,0.0,0.0,0.0,0.0,0.0,0.0,0.0,0.0,0.0,0.0,0.0,0.0,0.0,0.0,0.0,0.0,0.0,0.0,0.0,0.0,0.0,0.0,0.0,0.0,0.0,0.0,0.0,0.0,0.0,0.0,0.0,0.0,0.0,0.0,0.0,0.0,0.0,0.0,0.0,0.0,0.0,0.0,0.0,0.0,0.0,0.0,0.0,0.0,0.0,0.0,0.0,0.0,0.0,0.0,0.0,0.0,0.0,0.0,0.0,0.0,0.0,0.0,0.0,0.0,0.0,0.0,0.0,0.0,0.0,0.0,0.0,0.0,0.0,0.0,0.0,0.0,0.0,0.0,0.0,0.0,0.0,0.0,0.0,0.0,0.0,0.0,0.0,0.0,0.0,0.0,0.0,0.0,0.0,0.0,0.0,0.0,0.0,0.0,0.0,0.0,0.0,0.0,0.0,0.0,0.0,0.0,0.0,0.0,0.0,0.0,0.0,0.0,0.0,0.0,0.0,0.0,0.0,0.0,0.0,0.0,0.0,0.0,0.0,0.0,0.0,0.0,0.0,0.0,0.0,0.0,0.0,0.0,0.0,0.0,0.0,0.0,0.0,0.0,0.0,0.0,0.0,0.0,0.0,0.0,0.0,0.0,0.0,0.0,0.0,0.0,0.0,0.0,0.0,0.0,0.0,0.0,0.0,0.0,0.0,0.0,0.0,0.0,0.0,0.0,0.0,0.0,0.0,0.0,0.0,0.0,0.0,0.0,0.0,0.0,0.0,0.0,0.0,0.0,0.0,0.0,0.0,0.0,0.0,0.0,0.0,0.0,0.0,0.0,0.0,0.0,0.0,0.0,0.0,0.0,0.0,0.0,0.0,0.0,0.0,0.0,0.0,0.0,0.0,0.0,0.0,0.0,0.0,0.0,0.0,0.0,0.0,0.0,0.0,0.0,0.0,0.0,0.0,0.0,0.0,0.0,0.0,0.0,0.0,0.0,0.0,0.0,0.0,0.0,0.0,0.0,0.0,0.0,0.0,0.0,0.0,0.0,0.0,0.0,0.0,0.0,0.0,0.0,0.0,0.0,0.0,0.0,0.0,0.0,0.0,0.0,0.0,0.0,0.0,0.0,0.0,0.0,0.0,0.0,0.0,0.0,0.0,0.0,0.0,0.0,0.0,0.0,0.0,0.0,0.0,0.0,0.0,0.0,0.0,0.0,0.0,0.0,0.0,0.0,0.0,0.0,0.0,0.0,0.0,0.0,0.0,0.0,0.0,0.0,0.0,0.0,0.0,0.0,0.0,0.0,0.0,0.0,0.0,0.0,0.0,0.0,0.0,0.0,0.0,0.0,0.0,0.0,0.0,0.0,0.0,0.0,0.0,0.0,0.0,0.0,0.0,0.0,0.0,0.0,0.0,0.0,0.0,0.0,0.0,0.0,0.0,0.0,0.0,0.0,0.0,0.0,0.0,0.0,0.0,0.0,0.0,0.0,0.0,0.0,0.0,0.0,0.0,0.0,0.0,0.0,0.0,0.0,0.0,0.0,0.0,0.0,0.0,0.0,0.0,0.0,0.0,0.0,0.0,0.0,0.0,0.0,0.0,0.0,0.0,0.0,0.0,0.0,0.0,0.0,0.0,0.0,0.0,0.0,0.0,0.0,0.0,0.0,0.0,0.0,0.0,0.0,0.0,0.0,0.0,0.0,0.0,0.0,0.0,0.0,0.0,0.0,0.0,0.0,0.0,0.0,0.0,0.0,0.0,0.0,0.0,0.0,0.0,0.0,0.0,0.0,0.0,0.0,0.0,0.0,0.0,0.0,0.0,0.0,0.0,0.0,0.0,0.0,0.0,0.0,0.0,0.0,0.0,0.0,0.0,0.0,0.0,0.0,0.0,0.0,0.0,0.0,0.0,0.0,0.0,0.0,0.0,0.0,0.0,0.0,0.0,0.0,0.0,0.0,0.0,0.0,0.0,0.0,0.0,0.0,0.0,0.0,0.0,0.0,0.0,0.0,0.0,0.0,0.0,0.0,0.0,0.0,0.0,0.0,0.0,0.0,0.0,0.0,0.0,0.0,0.0,0.0,0.0,0.0,0.0,0.0,0.0,0.0,0.0,0.0,0.0,0.0,0.0,0.0,0.0,0.0,0.0,0.0,0.0,0.0,0.0,0.0,0.0,0.0,0.0,0.0,0.0,0.0,0.0,0.0,0.0,0.0,0.0,0.0,0.0,0.0,0.0,0.0,0.0,0.0,0.0,0.0,0.0,0.0,0.0,0.0,0.0,0.0,0.0,0.0,0.0,0.0,0.0,0.0,0.0,0.0,0.0,0.0,0.0,0.0,0.0,0.0,0.0,0.0,0.0,0.0,0.0,0.0,0.0,0.0,0.0,0.0,0.0,0.0,0.0,0.0,0.0,0.0,0.0,0.0,0.0,0.0,0.0,0.0,0.0,0.0,0.0,0.0,0.0,0.0,0.0,0.0,0.0,0.0,0.0,0.0,0.0,0.0,0.0,0.0,0.0,0.0,0.0,0.0,0.0,0.0,0.0,0.0,0.0,0.0,0.0,0.0,0.0,0.0,0.0,0.0,0.0,0.0,0.0,0.0,0.0,0.0,0.0,0.0,0.0,0.0,0.0,0.0,0.0,0.0,0.0,0.0,0.0,0.0,0.0,0.0,0.0,0.0,0.0,0.0,0.0,0.0,0.0,0.0,0.0,0.0,0.0,0.0,0.0,0.0,0.0,0.0,0.0,0.0,0.0,0.0,0.0,0.0,0.0,0.0,0.0,0.0,0.0,0.0,0.0,0.0,0.0,0.0,0.0,0.0,0.0,0.0,0.0,0.0,0.0,0.0,0.0,0.0,0.0,0.0,0.0,0.0,0.0,0.0,0.0,0.0,0.0,0.0,0.0,0.0,0.0,0.0,0.0,0.0,0.0,3.2144,0.0,0.0,0.0,0.0,0.0,0.0,0.0,0.0,0.0,0.0,0.0,0.0,0.0,0.0,0.0,0.0,0.0,0.0,0.0,0.0,0.0,0.0,0.0,0.0,0.0,0.0,0.0,0.0,0.0,0.0,0.0,0.0,0.0,0.0,0.0,0.0,0.0,0.0,0.0,0.0,0.0,0.0,0.0,0.0,0.0,0.0,0.0,0.0,0.0,0.0,0.0,0.0,0.0,0.0,0.0,0.0,0.0,0.0,0.0,0.0,0.0,0.0,0.0,0.0,0.0,0.0,0.0,0.0,0.0,0.0,0.0,0.0,0.0,0.0,0.0,0.0,0.0,0.0,0.0,0.0,0.0,0.0,0.0,0.0,0.0,0.0,0.0,0.0,0.0,0.0,0.0,0.0,0.0,0.0,0.0,0.0,0.0,0.0,0.0,0.0,0.0,0.0,0.0,0.0,0.0,0.0,0.0,0.0,0.0,0.0,0.0,0.0,0.0,0.0,0.0,0.0,3.3247,0.0,0.0,0.0,0.0,0.0,0.0,0.0,0.0,0.0,0.0,0.0,0.0,0.0,0.0,0.0,0.0,0.0,0.0,0.0,0.0,0.0,0.0,0.0,0.0,0.0,0.0,0.0,0.0,0.0,0.0,0.0,0.0,0.0,0.0,0.0,0.0,0.0,0.0,0.0,0.0,0.0,0.0,0.0,0.0,0.0,0.0,0.0,0.0,0.0,0.0,0.0,0.0,0.0,0.0,0.0,0.0,0.0,0.0,0.0,0.0,0.0,0.0,0.0,0.0,0.0,0.0,0.0,0.0,0.0,0.0,0.0,0.0,0.0,0.0,0.0,0.0,0.0,0.0,0.0,0.0,0.0,0.0,0.0,0.0,0.0,0.0,0.0,0.0,0.0,0.0,0.0,0.0,0.0,0.0,0.0,0.0,0.0,0.0,0.0,0.0,0.0,0.0,0.0,0.0,0.0,0.0,0.0,0.0,3.6788,3.7136,3.7154,3.7858,3.8231,3.8227,3.6668,3.5679,3.5158,0.0,0.0,0.0,0.0,0.0,0.0,0.0,0.0,0.0,0.0,0.0,0.0,0.0,0.0,0.0,0.0,0.0,0.0,0.0,0.0,0.0,0.0,0.0,0.0,0.0,0.0,0.0,0.0,0.0,0.0,0.0,0.0,0.0,0.0,0.0,0.0,0.0,0.0,0.0,3.6485,3.7309,3.7813,3.797,3.5005,0.0,0.0,0.0,0.0,0.0,0.0,0.0,0.0,0.0,0.0,0.0,0.0,0.0,0.0,0.0,0.0,0.0,0.0,0.0,0.0,0.0,0.0,0.0,0.0,0.0,0.0,0.0,0.0,0.0,0.0,0.0,0.0,0.0,0.0,0.0,0.0,0.0,0.0,0.0,0.0,0.0,0.0,0.0,3.439,3.4446,0.0,0.0,0.0,0.0,0.0,0.0,0.0,0.0,0.0,0.0,0.0,0.0,0.0,0.0,3.7415,3.8272,3.8695,3.8695,3.8826,3.887,3.8876,3.9158,3.9544,3.9979,3.9967,0.0,3.7403,3.6715,0.0,0.0,0.0,0.0,0.0,0.0,0.0,0.0,0.0,0.0,0.0,0.0,0.0,0.0,0.0,0.0,0.0,0.0,0.0,0.0,0.0,0.0,0.0,0.0,0.0,0.0,0.0,0.0,0.0,0.0,0.0,0.0,0.0,0.0,0.0,0.0,3.6207,3.7865,3.9157,3.9961,4.0696,4.1266,3.9277,3.7884,3.6962,3.5874,0.0,0.0,0.0,0.0,0.0,0.0,0.0,0.0,0.0,0.0,0.0,0.0,0.0,0.0,0.0,0.0,0.0,0.0,0.0,0.0,0.0,0.0,0.0,0.0,0.0,0.0,0.0,0.0,0.0,0.0,0.0,0.0,0.0,0.0,0.0,0.0,0.0,0.0,0.0,3.4813,3.5428,3.4843,3.5271,3.553,0.0,0.0,0.0,0.0,0.0,0.0,0.0,0.0,0.0,3.8278,3.8763,3.9017,3.9017,3.9894,4.0314,4.0333,4.0772,4.1268,4.1745,4.2284,4.2932,4.3621,4.3737,4.3045,4.1644,3.9105,3.7701,3.7116,0.0,0.0,0.0,0.0,3.7158,3.7229,0.0,0.0,0.0,0.0,0.0,0.0,0.0,0.0,0.0,0.0,0.0,0.0,0.0,0.0,0.0,3.3047,0.0,0.0,0.0,0.0,0.0,0.0,0.0,0.0,0.0,0.0,0.0,3.6744,3.8643,4.0325,4.1791,4.2609,4.325,4.3705,4.3058,4.1453,3.9166,3.8299,3.682,0.0,0.0,0.0,0.0,0.0,0.0,0.0,0.0,0.0,0.0,0.0,0.0,0.0,0.0,0.0,0.0,0.0,0.0,0.0,0.0,0.0,0.0,0.0,0.0,0.0,0.0,0.0,0.0,0.0,0.0,0.0,0.0,0.0,0.0,0.0,0.0,0.0,0.0,3.5728,3.6277,3.5609,3.6315,3.6672,0.0,0.0,0.0,0.0,0.0,0.0,3.91,3.9993,4.0552,4.0577,4.0976,4.1289,4.1516,4.235,4.2791,4.2786,4.3392,4.4017,4.4668,4.5274,4.588,4.6512,4.6512,4.6152,4.5249,4.1492,3.9548,3.8924,3.8698,3.8323,3.7997,3.8697,3.8953,3.9042,0.0,0.0,0.0,0.0,0.0,0.0,0.0,0.0,0.0,0.0,0.0,0.0,0.0,0.0,3.4819,3.5637,3.5793,3.5442,0.0,0.0,0.0,0.0,0.0,0.0,0.0,0.0,0.0,3.9303,4.1825,4.3518,4.4427,4.5223,4.5568,4.5466,4.5431,4.4737,4.3366,4.0191,3.8694,3.8248,0.0,0.0,0.0,0.0,0.0,0.0,0.0,0.0,0.0,0.0,0.0,0.0,0.0,0.0,0.0,0.0,0.0,0.0,0.0,0.0,0.0,0.0,0.0,0.0,0.0,0.0,0.0,0.0,0.0,0.0,0.0,0.0,0.0,0.0,0.0,0.0,0.0,0.0,0.0,3.7282,3.8045,0.0,0.0,0.0,0.0,3.8674,4.0891,4.1927,4.1107,4.1832,4.2647,4.3456,4.4245,4.5047,4.5887,4.6683,4.71,4.71,4.7138,4.7176,4.7226,4.7264,4.7302,4.7346,4.7346,4.7308,4.6999,4.3639,4.2057,4.1718,4.0879,4.0853,4.1305,4.1657,4.1793,4.1844,0.0,0.0,0.0,0.0,0.0,0.0,0.0,0.0,0.0,3.0799,0.0,0.0,0.0,3.5929,3.7467,3.8324,3.8927,3.8636,3.7194,0.0,0.0,0.0,0.0,0.0,0.0,0.0,3.9799,4.2008,4.3444,4.4559,4.5378,4.5668,4.6072,4.6534,4.5974,4.5764,4.5663,4.3277,4.0972,3.8828,3.7335,3.5721,0.0,0.0,0.0,0.0,0.0,0.0,0.0,0.0,0.0,0.0,0.0,0.0,0.0,0.0,0.0,0.0,0.0,0.0,0.0,0.0,0.0,0.0,0.0,0.0,0.0,0.0,0.0,0.0,0.0,0.0,0.0,0.0,0.0,0.0,0.0,0.0,0.0,3.831,3.9461,0.0,0.0,4.0853,4.1611,4.1906,4.3227,4.4137,4.4402,4.4687,4.5483,4.6872,4.7195,4.7744,4.8578,4.8351,4.8237,4.8237,4.7668,4.7687,4.8237,4.8237,4.8521,4.8976,4.8464,4.8237,4.8104,4.6342,4.4921,4.3731,4.2339,4.1907,4.2084,4.2214,4.261,4.3119,0.0,0.0,0.0,0.0,0.0,0.0,0.0,0.0,0.0,3.0796,3.2313,3.394,3.5329,3.7818,3.9832,4.0979,4.1368,4.0808,3.9049,0.0,0.0,0.0,3.6196,0.0,0.0,4.0328,4.1981,4.4231,4.5043,4.5877,4.6674,4.6674,4.6983,4.7502,4.6925,4.6958,4.7301,4.5757,4.3291,4.0287,3.9095,3.7893,3.6601,0.0,0.0,0.0,0.0,0.0,0.0,0.0,0.0,0.0,0.0,0.0,0.0,0.0,0.0,0.0,0.0,0.0,0.0,0.0,0.0,0.0,0.0,0.0,0.0,0.0,0.0,0.0,0.0,0.0,0.0,0.0,0.0,0.0,0.0,0.0,4.108,4.0826,4.2261,4.3297,4.3297,4.4042,4.4762,4.5337,4.588,4.655,4.7403,4.7195,4.782,4.9488,4.9538,4.9924,5.0739,5.0208,4.9955,4.9936,4.9367,4.9386,4.9955,4.9955,5.0246,5.0713,5.0182,4.9784,4.9488,4.8597,4.7593,4.6417,4.4743,4.4099,4.4099,4.4099,4.4459,4.4952,0.0,0.0,0.0,0.0,0.0,0.0,0.0,0.0,0.0,3.0837,3.2413,3.4488,3.7008,3.9634,4.1876,4.3497,4.2871,4.1672,3.9995,3.9004,0.0,0.0,0.0,0.0,4.0976,4.2621,4.4289,4.5942,4.6751,4.756,4.8392,4.843,4.845,4.8488,4.845,4.845,4.8411,4.7525,4.5565,4.2929,4.1178,4.0387,3.9967,0.0,0.0,0.0,0.0,0.0,0.0,0.0,0.0,0.0,0.0,0.0,0.0,0.0,0.0,0.0,0.0,0.0,0.0,0.0,0.0,0.0,0.0,0.0,0.0,0.0,0.0,0.0,0.0,0.0,0.0,0.0,0.0,0.0,4.144,4.2754,4.4118,4.4914,4.6468,4.7498,4.7517,4.8313,4.8825,4.8825,4.8843,4.9185,4.9943,4.9242,4.9564,5.1237,5.1275,5.1654,5.2468,5.2449,5.2449,5.2449,5.2411,5.2393,5.2393,5.2393,5.2393,5.2393,5.2393,5.1957,5.118,5.0341,4.9981,4.981,4.8104,4.7441,4.7441,4.7441,4.7416,4.7403,0.0,0.0,0.0,0.0,0.0,0.0,0.0,0.0,3.1031,3.166,3.4355,3.6969,3.8872,4.1935,4.4044,4.4496,4.3228,4.2195,4.1712,0.0,0.0,0.0,0.0,0.0,4.3624,4.4688,4.5728,4.677,4.7621,4.8179,4.8411,4.9049,4.9645,5.0186,4.9606,4.9664,5.0128,4.8662,4.7604,4.6619,4.357,4.1955,4.1134,0.0,0.0,0.0,0.0,0.0,0.0,0.0,0.0,0.0,0.0,0.0,0.0,0.0,0.0,0.0,0.0,0.0,0.0,0.0,0.0,0.0,0.0,0.0,0.0,0.0,0.0,0.0,0.0,0.0,0.0,0.0,0.0,4.4131,4.391,4.5331,4.6702,4.7555,4.8578,4.9469,5.0081,5.0896,5.1369,5.1369,5.1964,5.2153,5.1736,5.1502,5.1888,5.298,5.2999,5.3397,5.4193,5.3624,5.334,5.3321,5.2696,5.2393,5.2393,5.2393,5.2393,5.2393,5.2393,5.2279,5.2051,5.1805,5.171,5.149,4.9223,4.8332,4.8332,4.8332,4.7934,4.7403,0.0,0.0,0.0,0.0,0.0,0.0,0.0,0.0,3.112,3.199,3.5136,3.7949,3.9625,4.2553,4.4546,4.4901,4.3377,4.2245,4.1875,0.0,0.0,0.0,0.0,4.391,4.5228,4.6353,4.7367,4.8198,4.903,4.9629,5.002,5.0887,5.1544,5.1966,5.1505,5.1544,5.1869,5.0167,4.9451,4.9216,4.6437,4.4762,4.3697,4.1496,4.0307,3.9629,3.8347,3.7593,3.7173,3.6656,0.0,0.0,0.0,0.0,0.0,0.0,0.0,0.0,0.0,0.0,0.0,0.0,0.0,0.0,0.0,0.0,0.0,0.0,0.0,0.0,0.0,0.0,0.0,0.0,4.5672,4.7359,4.8439,4.9102,4.9822,5.0701,5.1838,5.2881,5.3719,5.4219,5.4484,5.4484,5.4655,5.4674,5.4503,5.4181,5.4219,5.4731,5.475,5.4806,5.4901,5.4446,5.4193,5.42,5.3681,5.3454,5.3454,5.3454,5.3454,0.0,5.3454,5.3264,5.2942,5.2942,5.2942,0.0,0.0,0.0,0.0,0.0,4.9728,4.8988,0.0,0.0,0.0,0.0,0.0,0.0,0.0,0.0,3.1158,3.2126,3.5193,3.789,3.9491,4.1989,4.3827,4.4509,4.3064,4.181,0.0,0.0,0.0,4.2613,4.4096,4.5274,4.6121,4.7833,4.9087,4.9838,5.0747,5.1583,5.236,5.325,5.3656,5.3656,5.3656,5.3656,5.3536,5.1888,5.1192,5.1057,4.9475,4.8118,4.6801,4.4434,4.3376,4.2956,4.1265,4.0138,3.9435,3.9319,0.0,0.0,0.0,0.0,0.0,0.0,0.0,0.0,0.0,0.0,0.0,0.0,0.0,0.0,0.0,0.0,0.0,0.0,0.0,0.0,0.0,0.0,0.0,0.0,4.8814,5.1311,5.3675,5.3504,5.3395,5.4048,5.5432,5.6645,5.7467,5.7562,5.7562,5.7562,5.6891,5.6739,5.7365,0.0,0.0,0.0,0.0,5.5962,5.5185,5.5185,5.5148,5.5053,5.5053,5.5053,5.5034,5.4939,5.4996,5.5166,5.4977,5.456,5.3973,5.3878,5.384,5.3745,5.2885,5.2544,5.2525,5.2449,5.1957,5.1331,0.0,0.0,0.0,0.0,0.0,0.0,0.0,0.0,3.1368,3.2933,3.557,3.7681,3.8719,4.112,4.2447,4.1897,4.09,4.0528,0.0,4.1594,4.2674,4.4414,4.5409,4.6269,4.7038,4.9374,5.0603,5.067,5.224,5.3072,5.327,5.4136,5.4542,5.4542,5.4542,5.4542,5.4484,5.344,5.2995,5.2917,5.1877,5.0121,4.7963,4.666,4.6131,4.5859,4.4076,4.3723,4.3982,4.3167,4.2243,4.1379,4.1054,0.0,0.0,0.0,0.0,0.0,0.0,0.0,0.0,0.0,0.0,0.0,0.0,0.0,0.0,0.0,0.0,0.0,0.0,0.0,0.0,4.9146,5.2107,5.4597,5.5791,5.6991,5.7465,5.6762,5.6967,5.7505,5.8377,5.8453,5.8453,5.8453,5.8301,5.7979,5.7422,5.7251,0.0,5.7175,5.7175,5.7081,5.691,5.691,5.6588,5.5943,0.0,0.0,5.5925,5.5223,5.564,5.6834,5.5489,5.5204,5.5659,5.4958,5.4674,5.4598,5.3764,5.3461,5.3359,5.2658,5.2298,5.2165,0.0,0.0,0.0,0.0,0.0,0.0,0.0,0.0,3.1758,3.2636,3.5036,3.6989,3.7849,3.9839,4.0912,4.0483,4.0054,0.0,4.1654,4.2972,4.4286,4.5595,4.7223,4.8271,4.8635,5.0719,5.1722,5.1605,5.3353,5.4184,5.4175,5.5006,5.5393,5.5393,5.5393,5.5393,5.5354,5.4503,5.4155,5.4039,5.2728,5.1432,5.0167,4.8817,4.7984,4.7435,4.6522,4.6147,4.5971,4.5465,4.4737,4.389,4.287,4.1409,3.9782,0.0,0.0,0.0,0.0,0.0,0.0,0.0,0.0,0.0,0.0,0.0,0.0,0.0,0.0,4.493,0.0,0.0,5.0894,5.2587,5.4961,5.692,5.7787,5.8966,5.9375,5.8326,5.8647,5.9112,5.955,5.9512,5.949,5.9581,5.9505,5.9299,5.8978,5.8947,5.8725,5.8227,5.8208,5.7939,5.7403,5.7403,5.7194,5.6796,5.6796,5.6796,5.6796,5.6341,5.6607,5.7346,5.6512,5.6398,5.6747,5.5906,5.5546,5.547,5.4636,5.4295,5.4257,5.3814,5.3397,5.3056,0.0,0.0,0.0,0.0,0.0,0.0,0.0,0.0,0.0,0.0,3.4588,3.6265,3.697,3.8394,3.9312,0.0,0.0,4.0541,4.2298,4.4035,4.546,4.6515,4.8788,5.0094,5.0248,5.1918,5.2792,5.2822,5.439,5.5112,5.5098,5.5715,5.6008,5.6008,5.6008,5.6008,5.5969,5.5316,5.5026,5.4909,5.3328,5.2593,5.2283,5.0751,4.959,4.8688,4.836,4.7601,4.6776,4.6748,4.6162,4.5241,4.4086,4.3386,4.2564,4.0402,4.0,0.0,0.0,0.0,0.0,0.0,0.0,0.0,0.0,0.0,4.436,4.526,4.6763,4.8358,4.9772,5.2097,5.4293,5.5799,5.7593,5.8977,5.9516,6.0296,6.045,5.9469,6.0028,6.0502,6.0502,6.0356,6.0321,6.0489,6.0349,6.0328,6.0495,6.0502,6.0123,5.933,5.9285,5.8876,5.8004,5.8004,5.7909,5.7776,5.7776,5.7776,5.7764,5.7593,5.7688,5.7985,5.7833,5.7586,5.7206,5.656,5.6218,5.599,5.528,5.4985,5.4949,5.4916,5.4484,5.3935,0.0,0.0,0.0,0.0,0.0,0.0,0.0,0.0,0.0,0.0,0.0,0.0,0.0,0.0,0.0,0.0,3.8941,4.0541,4.2298,4.4035,4.5733,4.7372,4.9143,5.0426,5.1131,5.2855,5.4051,5.4709,5.5605,5.6052,5.6032,5.6005,5.6008,5.6008,5.6008,5.6008,5.5988,5.5892,5.5872,5.5795,5.4871,5.4039,5.325,5.2283,5.1362,5.0399,4.8914,4.7805,4.7044,4.6923,4.6307,4.5789,4.6944,4.5817,4.3972,4.3665,0.0,4.0341,4.0149,4.0682,4.1474,4.2248,4.3239,4.458,0.0,0.0,4.8965,5.0581,5.1647,5.2573,5.353,5.5304,5.6949,5.7834,6.0047,6.1403,6.0723,6.1378,6.1584,6.0695,6.0545,6.0502,6.0502,6.0482,6.0476,6.0502,6.0482,6.0476,6.0502,6.0502,6.045,6.0335,6.0335,6.0265,6.0149,6.0149,5.9785,5.9083,5.9083,5.9083,5.9064,5.8298,5.8751,6.0111,5.9409,5.8202,5.6766,5.6689,5.6223,5.5572,5.5477,5.5314,5.5149,5.4982,5.4837,5.4769,0.0,0.0,0.0,0.0,0.0,0.0,0.0,0.0,0.0,0.0,0.0,0.0,0.0,0.0,0.0,0.0,3.8395,4.0035,4.2258,4.4504,4.6515,4.8213,5.0427,5.1765,5.2105,5.3828,5.4604,5.4367,5.5662,5.6013,5.5447,5.5917,5.6068,5.6008,5.6008,5.6008,5.6008,5.6008,5.5737,5.5238,5.4387,5.3521,5.2593,5.1254,5.021,4.9355,4.8643,4.7831,0.0,0.0,4.677,4.6576,4.7137,4.625,4.4899,4.4315,4.3444,0.0,4.2717,4.3328,0.0,0.0,4.5801,4.7634,4.9182,5.0267,5.1402,5.3051,5.4101,5.5133,5.6395,5.8166,5.9708,0.0,6.2011,6.2725,6.1846,6.2039,6.1769,6.0441,6.0631,6.0853,6.0853,6.0739,6.0721,6.0847,6.0739,6.0721,6.0847,6.0853,6.0809,6.0681,6.0675,6.0621,6.0502,6.0502,6.0329,6.0009,6.0009,6.0009,5.999,5.9613,5.9843,6.0482,6.0137,5.9581,5.8878,5.8399,5.7709,5.6961,5.6954,5.6311,5.5339,5.5149,5.5,5.4901,0.0,0.0,0.0,0.0,0.0,0.0,0.0,0.0,0.0,0.0,0.0,0.0,0.0,0.0,0.0,0.0,3.7732,3.9215,4.1536,4.4133,4.634,4.8037,5.0367,5.1853,5.2322,5.358,5.4138,5.3921,5.5124,5.5334,5.4643,5.5204,5.5426,5.5358,5.5565,5.5659,5.5659,5.5659,5.5335,5.4716,5.3846,5.2825,5.1679,5.0248,4.8856,4.7676,4.7676,4.698,0.0,0.0,4.6051,4.6076,4.6221,4.5827,4.5209,4.4718,4.4636,4.472,4.4778,0.0,0.0,4.6559,4.8572,5.0816,5.191,5.3099,5.4347,5.5716,5.6757,5.776,5.8881,6.0181,0.0,6.2254,6.3129,6.3405,6.2525,6.239,6.1771,6.0093,6.019,6.0499,6.075,6.0837,6.0932,6.1089,6.0972,6.0957,6.1089,6.1099,6.1027,6.0885,6.0885,6.0801,6.0669,6.0663,6.0663,6.0663,6.0663,6.0663,6.0663,6.0663,6.0663,6.0663,6.0663,6.0528,6.0284,5.9713,5.8944,5.817,5.8167,5.7389,5.6259,5.6108,5.5631,5.5071,0.0,0.0,0.0,0.0,0.0,0.0,0.0,0.0,0.0,0.0,0.0,0.0,0.0,0.0,0.0,0.0,3.6832,3.8063,3.9761,4.2338,4.4563,4.6301,4.8018,4.9717,5.1394,5.1483,5.2328,5.4007,5.3983,5.3969,5.3939,5.3764,5.3687,5.3709,5.4498,5.4832,5.4832,5.4832,5.4813,5.4716,5.3846,5.2472,5.0844,5.0012,4.8101,4.5881,4.5881,0.0,0.0,0.0,4.3417,4.3553,4.44,4.4648,0.0,4.5522,4.5758,0.0,0.0,0.0,4.8519,4.9366,5.1497,5.3803,5.5462,5.7172,5.8666,5.9551,6.0378,6.0959,6.1017,6.1055,6.1389,6.2254,6.3129,6.3405,6.2525,6.239,6.1771,6.0093,5.9188,5.9014,0.0,6.063,6.1094,6.1099,6.1094,6.1094,6.1099,6.1099,6.1094,6.1089,6.1089,6.1089,6.1084,6.1084,6.1084,6.1084,6.1084,6.1084,6.1084,6.1084,6.1084,6.1084,6.1084,6.064,5.9929,5.989,5.9368,5.8575,5.8575,5.8428,5.8214,5.8209,5.7055,5.5486,0.0,0.0,0.0,0.0,0.0,0.0,0.0,0.0,0.0,0.0,0.0,0.0,0.0,0.0,0.0,0.0,0.0,0.0,3.8922,4.1948,4.4212,4.5382,4.8153,4.9949,5.0515,5.1104,5.1696,5.2268,5.2826,5.3086,5.3052,5.3552,5.3743,5.3688,5.3958,5.4061,5.4079,5.4079,5.3372,5.2259,5.1969,5.0797,4.9026,4.7053,4.5777,4.4717,0.0,0.0,0.0,0.0,0.0,0.0,4.3456,0.0,0.0,4.5397,0.0,0.0,0.0,0.0,5.2124,5.3532,5.4963,5.6472,5.8197,5.9029,5.9556,5.9846,5.9653,5.9261,5.8696,5.9048,5.9725,6.0596,6.2419,6.3405,6.2525,6.2897,6.2206,5.9362,5.9285,0.0,0.0,0.0,0.0,6.106,6.1099,6.1099,6.1099,6.1099,6.1099,6.1099,6.1099,6.1099,6.1099,6.1099,6.1099,6.1099,6.1099,6.1099,6.1099,6.1099,6.1099,6.1099,6.1099,6.0944,6.0692,6.0692,6.0209,5.9517,6.0054,5.9543,5.8573,5.9152,5.8597,5.7442,0.0,0.0,0.0,0.0,0.0,0.0,0.0,0.0,0.0,0.0,0.0,0.0,0.0,0.0,0.0,0.0,0.0,0.0,0.0,4.0484,4.226,4.3098,4.5557,4.7021,4.7332,4.7899,4.8333,4.8652,4.9824,5.0384,5.037,5.1519,5.2003,5.1931,5.2211,5.2334,5.2341,5.2312,5.1285,4.965,4.934,4.7996,4.6012,4.437,4.3559,0.0,0.0,0.0,0.0,0.0,0.0,0.0,0.0,0.0,0.0,0.0,0.0,0.0,0.0,5.2859,5.4793,5.6495,5.7579,5.8599,6.0016,6.0325,6.0248,5.9962,5.9208,5.8337,5.7458,5.7501,5.8062,5.9246,6.0813,6.1896,6.1926,6.2162,6.1529,5.9324,5.9285,0.0,0.0,0.0,0.0,6.1041,6.1099,6.1099,6.1099,6.1099,6.1099,6.1099,6.1099,6.1099,6.1099,6.1099,6.1099,6.1099,6.1099,6.1099,6.1099,6.1099,6.1099,6.1099,6.1099,6.1099,6.1099,6.1099,6.0809,6.0383,6.0905,6.0441,5.9556,6.0112,5.9783,5.889,0.0,0.0,0.0,0.0,0.0,0.0,0.0,0.0,0.0,0.0,0.0,0.0,0.0,0.0,0.0,0.0,0.0,0.0,0.0,3.8083,0.0,3.9702,4.0601,4.1499,4.2317,4.2337,4.2767,4.3626,4.5286,4.6129,4.6196,4.7734,4.8434,4.8485,4.9239,4.9582,4.9573,4.9521,4.8546,4.6968,4.6136,4.4327,4.2123,4.2034,0.0,0.0,0.0,0.0,0.0,0.0,0.0,0.0,0.0,0.0,0.0,0.0,0.0,5.125,5.2206,5.4291,5.6626,5.8357,5.9382,6.0151,6.0925,6.1079,6.0789,5.988,5.9014,5.8125,0.0,0.0,5.6437,5.8183,5.8589,5.9246,6.0925,6.0518,6.0016,0.0,0.0,0.0,0.0,0.0,0.0,6.1099,0.0,6.1099,6.1099,6.1099,6.1118,6.1176,6.1118,6.1118,6.1176,6.1118,6.1099,6.1099,6.1099,6.1099,6.1099,6.1099,6.1099,6.1099,6.1099,6.1099,6.1099,6.1099,6.1099,6.1099,6.1099,6.1099,6.1099,6.1099,6.0615,5.9846,0.0,0.0,0.0,0.0,0.0,0.0,0.0,0.0,0.0,0.0,0.0,0.0,0.0,0.0,0.0,0.0,0.0,0.0,0.0,0.0,0.0,0.0,0.0,0.0,0.0,0.0,0.0,4.2728,4.3177,4.3725,4.4371,4.4771,4.4977,4.498,4.5199,4.5248,4.5213,4.5186,4.4558,4.3553,0.0,4.2442,4.1099,0.0,0.0,0.0,0.0,0.0,0.0,0.0,0.0,0.0,0.0,0.0,4.7138,0.0,0.0,5.3304,5.5427,5.7424,5.93,6.1002,6.1118,6.0847,6.106,6.0634,5.959,5.7443,5.6341,5.5296,0.0,0.0,0.0,5.6399,5.8294,0.0,6.1829,6.1887,0.0,0.0,0.0,5.9653,5.9885,5.9904,0.0,0.0,6.1466,6.1099,6.1099,6.1099,6.1408,6.2042,6.1442,6.1403,6.2061,6.1423,6.1099,6.1099,6.1099,6.1099,6.1099,6.1099,6.1099,6.1099,6.1099,6.1099,6.1099,6.1099,6.1099,6.1099,6.1099,6.1099,6.1099,6.1099,6.0963,6.077,0.0,0.0,0.0,0.0,0.0,0.0,0.0,0.0,0.0,0.0,0.0,0.0,0.0,0.0,0.0,0.0,0.0,0.0,0.0,0.0,0.0,0.0,0.0,0.0,0.0,0.0,0.0,0.0,0.0,0.0,4.148,4.2202,4.2562,4.2553,4.2558,4.2532,4.2492,4.2498,0.0,0.0,0.0,0.0,0.0,0.0,0.0,0.0,0.0,0.0,0.0,0.0,0.0,4.4075,4.5316,4.7115,4.9204,5.1405,0.0,5.5567,5.7385,5.9397,6.1137,6.1693,6.1751,6.1389,6.0267,5.9653,5.8608,5.6012,5.4813,0.0,0.0,0.0,0.0,0.0,0.0,0.0,6.1481,6.1829,6.193,0.0,6.1838,0.0,6.1568,6.1568,6.1954,0.0,6.2162,6.1834,6.222,6.224,6.2472,6.2955,6.2124,6.1713,6.1829,6.1345,6.1099,6.1099,6.1099,6.1099,6.1099,6.1099,6.1099,6.1099,0.0,6.1099,6.1099,6.1099,6.1099,6.1099,6.1099,6.1099,6.1099,6.1099,6.1099,6.1099,0.0,0.0,0.0,0.0,0.0,0.0,0.0,0.0,0.0,0.0,0.0,0.0,0.0,0.0,0.0,0.0,0.0,0.0,0.0,0.0,0.0,0.0,0.0,0.0,0.0,0.0,0.0,0.0,0.0,0.0,0.0,0.0,0.0,0.0,0.0,0.0,0.0,0.0,0.0,0.0,0.0,0.0,0.0,0.0,0.0,0.0,0.0,0.0,0.0,0.0,4.4166,4.5371,4.6941,4.9262,5.1734,5.3362,5.5567,5.7651,5.855,6.0557,6.2216,6.1461,6.1751,6.1601,5.915,5.8415,5.7525,5.4987,0.0,0.0,5.2186,0.0,5.2941,5.4677,0.0,5.7535,6.0963,6.135,6.1911,6.3676,6.3773,6.3695,6.3695,6.3695,6.3753,6.385,6.3168,6.3013,6.3676,6.3695,6.3657,6.3521,6.2781,6.1984,6.1118,6.1099,6.1099,6.1099,6.1099,6.1099,6.1099,6.1099,6.1099,6.1099,0.0,0.0,6.1099,6.1099,6.1099,6.1099,6.1099,6.1099,6.1099,6.1099,6.1099,6.1099,0.0,0.0,0.0,0.0,0.0,0.0,0.0,0.0,0.0,0.0,3.5906,3.5938,0.0,0.0,0.0,0.0,0.0,0.0,0.0,0.0,0.0,0.0,0.0,0.0,0.0,0.0,0.0,0.0,0.0,0.0,0.0,0.0,0.0,0.0,0.0,0.0,0.0,0.0,0.0,0.0,0.0,0.0,0.0,0.0,0.0,0.0,0.0,0.0,0.0,0.0,4.537,4.7927,4.8933,5.1486,5.431,5.5273,5.6902,5.8569,5.944,6.1002,6.2351,6.2216,6.1751,6.0847,5.9014,5.7482,0.0,0.0,0.0,5.2167,5.1289,5.2298,0.0,5.5524,0.0,0.0,0.0,0.0,6.282,0.0,0.0,0.0,0.0,0.0,0.0,0.0,0.0,6.4295,6.3734,6.3695,6.3366,6.2646,6.2486,6.1984,6.1118,6.1099,6.1099,6.1099,6.1099,6.1099,6.1099,6.1099,6.1099,6.1099,6.1099,0.0,6.1099,6.1099,6.1099,6.1099,6.1099,6.1099,6.1099,6.1099,6.1099,6.1099,0.0,0.0,0.0,0.0,0.0,0.0,0.0,3.5834,3.5857,3.5898,3.5909,3.5903,3.5937,3.5941,3.5963,0.0,0.0,0.0,0.0,0.0,0.0,0.0,0.0,0.0,0.0,0.0,0.0,0.0,0.0,0.0,0.0,0.0,0.0,0.0,0.0,0.0,0.0,0.0,0.0,0.0,0.0,0.0,0.0,0.0,0.0,0.0,0.0,0.0,0.0,0.0,4.5352,4.8596,4.9443,5.1738,5.4465,5.6162,5.7598,5.8879,6.017,6.1776,6.2859,6.195,6.1403,6.0422,5.7849,0.0,0.0,0.0,0.0,5.1487,5.0995,0.0,0.0,0.0,0.0,0.0,0.0,0.0,0.0,0.0,0.0,0.0,0.0,0.0,0.0,0.0,0.0,6.5436,6.503,6.5011,6.4624,6.3787,6.3304,6.2665,6.179,6.1331,6.1099,6.1099,6.1099,6.1099,6.1099,6.1099,6.1099,6.1099,6.1099,0.0,6.1099,6.1099,6.1099,6.1099,6.1099,6.1099,6.1099,6.1099,6.1099,6.1099,0.0,0.0,0.0,0.0,0.0,0.0,0.0,3.5795,3.5828,3.5864,3.5887,3.5874,3.5907,3.5901,3.5914,0.0,0.0,0.0,0.0,0.0,0.0,0.0,0.0,0.0,0.0,0.0,0.0,0.0,0.0,0.0,0.0,0.0,0.0,0.0,0.0,0.0,0.0,0.0,0.0,0.0,0.0,0.0,0.0,0.0,0.0,0.0,0.0,0.0,0.0,0.0,4.4541,4.7855,4.8654,5.116,5.4202,5.6413,5.7798,5.8976,6.0634,6.2253,6.3079,6.153,6.0874,5.9834,5.6761,5.4656,0.0,0.0,5.1053,5.1092,5.0984,0.0,0.0,0.0,0.0,0.0,0.0,0.0,0.0,0.0,0.0,0.0,0.0,0.0,0.0,0.0,0.0,0.0,6.6205,6.6031,6.5571,6.4759,6.3889,6.2994,6.2138,6.1442,6.1099,6.1099,6.1099,6.1099,6.1099,6.1099,6.1099,6.1099,6.1099,0.0,0.0,6.1099,6.1099,6.1099,6.1099,6.1099,6.1099,6.1099,6.1099,6.1099,0.0,0.0,0.0,0.0,0.0,0.0,0.0,3.5795,3.5797,3.5801,3.5801,3.5821,3.5887,3.5901,3.5908,0.0,0.0,0.0,0.0,0.0,0.0,0.0,0.0,0.0,0.0,0.0,0.0,0.0,0.0,0.0,0.0,0.0,0.0,0.0,0.0,0.0,0.0,0.0,0.0,0.0,0.0,0.0,0.0,0.0,0.0,0.0,0.0,0.0,0.0,0.0,0.0,4.5282,4.6087,5.0184,5.4896,5.5985,0.0,0.0,6.0634,6.1882,6.2466,6.1518,6.0186,5.8608,5.6709,0.0,0.0,5.1373,5.1185,5.1187,5.1178,5.1875,0.0,0.0,0.0,0.0,0.0,0.0,0.0,0.0,0.0,0.0,0.0,0.0,0.0,0.0,0.0,0.0,6.6205,6.5513,6.4701,6.385,6.2975,6.21,6.1234,6.1137,6.1099,6.1099,6.1099,6.1099,6.1099,6.1099,6.1099,6.1099,6.1099,0.0,0.0,6.1099,6.1099,6.1099,6.1099,6.1099,6.1099,6.1099,6.1099,6.1099,0.0,0.0,0.0,0.0,0.0,0.0,3.5795,3.5795,3.5795,3.5795,3.5795,3.5803,3.584,3.5872,3.5907,3.5904,0.0,0.0,0.0,0.0,0.0,0.0,0.0,0.0,0.0,0.0,0.0,0.0,0.0,0.0,0.0,0.0,0.0,0.0,0.0,0.0,0.0,0.0,0.0,0.0,0.0,0.0,0.0,0.0,0.0,0.0,0.0,0.0,0.0,0.0,0.0,0.0,4.4675,4.7577,0.0,0.0,5.5897,5.77,5.9899,6.1554,6.2313,6.0934,5.9348,5.7665,5.5916,0.0,0.0,5.1289,5.1239,5.1255,5.1211,5.1472,5.2278,0.0,0.0,0.0,0.0,0.0,0.0,0.0,0.0,0.0,0.0,0.0,0.0,0.0,0.0,0.0,6.5494,6.5624,6.5107,6.3734,6.3366,6.2762,6.1887,6.1369,6.1099,6.1099,6.1099,6.1099,6.1099,6.1099,6.1099,6.1099,6.1099,0.0,0.0,6.1099,6.1099,6.1099,6.1099,6.1099,6.1099,6.1099,6.1099,6.1099,0.0,0.0,0.0,0.0,0.0,3.5795,3.5795,3.5795,3.5795,3.5795,3.5795,3.5795,3.5795,3.5844,3.5873,3.5879,3.5897,0.0,0.0,0.0,0.0,0.0,0.0,0.0,0.0,0.0,0.0,0.0,0.0,0.0,0.0,0.0,0.0,0.0,0.0,0.0,0.0,0.0,0.0,0.0,0.0,0.0,0.0,0.0,0.0,0.0,0.0,0.0,0.0,0.0,0.0,0.0,0.0,0.0,0.0,0.0,5.3993,5.6031,5.8342,6.0255,6.1309,6.0083,5.8345,5.6607,0.0,0.0,5.1325,5.1274,5.1295,5.1324,5.1273,5.1265,5.1825,5.3557,0.0,5.3986,0.0,0.0,0.0,0.0,0.0,0.0,0.0,0.0,0.0,0.0,0.0,0.0,0.0,6.5533,6.5064,6.3366,6.3328,6.2897,6.2022,6.1408,6.1099,6.1099,6.1099,6.1099,6.1099,6.1099,6.1099,6.1099,0.0,0.0,0.0,6.1099,6.1099,6.1099,6.1099,6.1099,6.1099,6.1099,6.1099,6.1099,0.0,0.0,0.0,0.0,0.0,0.0,3.5795,3.5795,3.5795,3.5795,3.5795,3.5795,3.5795,3.5795,3.5797,3.5797,3.5851,0.0,0.0,0.0,0.0,0.0,0.0,0.0,0.0,0.0,3.5992,3.5992,3.5992,0.0,0.0,0.0,0.0,0.0,0.0,0.0,0.0,0.0,0.0,0.0,0.0,0.0,0.0,0.0,0.0,0.0,0.0,0.0,0.0,0.0,0.0,0.0,0.0,0.0,0.0,0.0,5.1791,5.4116,5.5861,5.7663,5.9024,5.9024,5.7158,5.5312,0.0,0.0,5.1406,5.1406,5.1406,5.1406,5.1406,5.1406,5.1951,5.3622,5.3887,0.0,0.0,0.0,0.0,0.0,0.0,0.0,0.0,0.0,0.0,0.0,0.0,0.0,0.0,6.5011,6.4213,6.2467,6.2409,6.2003,6.1118,6.1099,6.1099,6.1099,6.1099,6.1099,6.1099,6.1099,6.1099,0.0,0.0,0.0,0.0,6.1099,6.1099,6.1099,6.1099,6.1099,6.1099,6.1099,6.1099,6.1099,0.0,0.0,0.0,0.0,0.0,0.0,0.0,3.5795,3.5795,3.5795,3.5795,3.5795,3.5795,3.5795,3.5795,3.5795,3.5868,0.0,0.0,0.0,0.0,0.0,0.0,0.0,0.0,0.0,3.5992,3.5992,3.5992,3.5992,3.5992,0.0,0.0,0.0,0.0,0.0,0.0,0.0,0.0,0.0,0.0,0.0,0.0,0.0,0.0,0.0,0.0,0.0,0.0,0.0,0.0,0.0,0.0,0.0,0.0,0.0,0.0,0.0,5.3384,5.5127,5.6324,5.5738,5.4999,5.4258,5.3652,0.0,5.1406,5.1406,5.1406,5.1406,5.1406,5.1406,5.1953,5.3688,5.3961,0.0,0.0,0.0,0.0,0.0,0.0,0.0,0.0,0.0,0.0,0.0,0.0,0.0,0.0,6.3902,6.2975,6.2428,6.239,6.1984,6.1118,6.1099,6.1099,6.1099,6.1099,6.1099,6.1099,6.1099,0.0,0.0,0.0,0.0,0.0,6.1099,6.1099,6.1099,6.1099,6.1099,6.1099,6.1099,6.1099,6.1099,0.0,0.0,0.0,0.0,0.0,0.0,0.0,3.5795,3.5795,3.5795,3.5795,3.5795,3.5795,3.5795,3.5795,3.5795,3.5842,0.0,0.0,0.0,0.0,0.0,0.0,0.0,0.0,3.5992,3.5992,3.5992,3.5992,3.5992,3.5992,3.5992,3.5992,0.0,0.0,0.0,0.0,0.0,0.0,0.0,0.0,0.0,3.6091,0.0,0.0,0.0,0.0,0.0,0.0,0.0,0.0,0.0,0.0,0.0,0.0,0.0,0.0,0.0,0.0,5.2754,5.4199,5.3652,5.3516,0.0,0.0,0.0,5.1406,5.1406,5.1406,5.1406,5.1406,5.1406,5.1855,5.3281,0.0,0.0,0.0,0.0,0.0,0.0,0.0,0.0,0.0,0.0,0.0,0.0,0.0,0.0,0.0,6.349,6.2489,6.2485,6.2103,6.1655,6.1118,6.1099,6.1099,6.1099,6.1099,6.1099,6.1099,6.1099,0.0,0.0,0.0,0.0,0.0,6.1099,6.1099,6.1099,6.1099,6.1099,6.1099,6.1099,6.1099,6.1099,0.0,0.0,0.0,0.0,0.0,0.0,0.0,3.5795,3.5795,3.5795,3.5801,3.5805,3.5805,3.5805,3.5805,3.5805,0.0,0.0,0.0,0.0,0.0,0.0,0.0,0.0,0.0,3.5991,3.5991,3.5992,3.5992,3.5992,3.5992,3.5992,3.5992,3.5992,3.5994,0.0,0.0,0.0,0.0,0.0,0.0,0.0,0.0,0.0,0.0,0.0,0.0,0.0,0.0,0.0,0.0,0.0,0.0,0.0,0.0,0.0,0.0,0.0,0.0,0.0,0.0,0.0,0.0,0.0,0.0,0.0,0.0,5.1387,5.1406,5.1426,5.1484,5.1445,5.1719,0.0,0.0,0.0,0.0,0.0,0.0,0.0,0.0,0.0,0.0,0.0,0.0,0.0,0.0,0.0,0.0,6.359,6.2605,6.2603,6.1645,6.1113,6.1099,6.1099,6.1099,6.1099,6.1099,6.1099,6.1099,6.1099,0.0,0.0,0.0,0.0,0.0,6.1099,6.1099,6.1099,6.1099,6.1099,6.1099,6.1099,6.1099,6.1099,0.0,0.0,0.0,0.0,0.0,0.0,0.0,0.0,0.0,0.0,3.5833,3.5887,3.5887,3.5887,3.5887,0.0,0.0,0.0,0.0,0.0,0.0,0.0,0.0,0.0,0.0,3.5914,3.5941,3.5992,3.5992,3.5992,3.5992,3.5992,3.5992,3.5993,3.6007,3.5992,0.0,0.0,0.0,0.0,0.0,0.0,0.0,0.0,0.0,0.0,3.9078,3.9762,0.0,0.0,0.0,0.0,0.0,0.0,0.0,0.0,4.6303,4.6384,4.6803,0.0,4.8804,4.8807,4.9296,0.0,0.0,0.0,0.0,0.0,0.0,0.0,0.0,0.0,0.0,0.0,0.0,0.0,0.0,0.0,0.0,0.0,0.0,0.0,0.0,0.0,0.0,0.0,0.0,0.0,0.0,6.3048,6.2002,6.2655,6.1754,6.1209,6.1099,6.1099,6.1099,6.1099,6.1099,6.1099,6.1099,6.1099,0.0,0.0,0.0,0.0,6.1099,6.1099,6.1099,6.1099,6.1099,6.1099,6.1099,6.1099,6.1099,6.1099,0.0,0.0,0.0,0.0,0.0,0.0,0.0,0.0,0.0,0.0,0.0,3.5898,3.5866,3.5876,0.0,0.0,0.0,0.0,0.0,0.0,0.0,0.0,0.0,3.5902,3.5907,3.5897,3.5927,3.5992,3.5965,3.5966,3.5992,3.6002,3.6006,3.6006,3.5993,3.5996,0.0,0.0,0.0,0.0,0.0,0.0,0.0,0.0,0.0,0.0,3.9507,4.0093,0.0,3.9956,4.0112,4.0874,0.0,0.0,0.0,0.0,4.6301,4.6302,4.6306,4.723,4.8194,4.82,4.9139,5.0175,0.0,0.0,0.0,0.0,0.0,0.0,0.0,0.0,0.0,0.0,0.0,0.0,0.0,0.0,0.0,0.0,0.0,0.0,0.0,0.0,0.0,0.0,0.0,0.0,0.0,6.2548,6.1739,6.2175,6.1701,6.1361,6.1192,6.1125,6.1099,6.1099,6.1099,6.1099,6.1099,6.1099,6.1099,0.0,0.0,0.0,6.1099,6.1099,6.1099,6.1099,6.1099,6.1099,6.1099,6.1099,6.1099,6.1099,0.0,0.0,0.0,0.0,0.0,0.0,0.0,0.0,0.0,0.0,0.0,0.0,0.0,0.0,0.0,0.0,0.0,0.0,0.0,0.0,0.0,0.0,0.0,3.5893,3.5906,3.5907,3.5922,3.5999,3.6085,3.6144,3.6196,3.6208,3.6113,3.5976,3.5976,3.6054,0.0,0.0,0.0,0.0,0.0,0.0,0.0,0.0,0.0,0.0,0.0,0.0,0.0,3.98,3.98,4.0229,4.2729,0.0,0.0,0.0,0.0,0.0,4.6456,4.7672,4.8852,4.8726,4.986,5.1053,0.0,0.0,0.0,0.0,0.0,0.0,0.0,0.0,0.0,0.0,0.0,0.0,0.0,0.0,0.0,0.0,0.0,0.0,0.0,0.0,0.0,0.0,0.0,0.0,0.0,6.2168,6.1677,6.1616,6.1609,6.1515,6.1356,6.1193,6.1126,6.1099,6.1099,6.1099,6.1099,6.1099,6.1099,0.0,0.0,0.0,6.1099,6.1099,6.1099,6.1099,6.1099,6.1099,6.1099,6.1099,6.1099,6.1099,0.0,0.0,0.0,0.0,0.0,0.0,0.0,0.0,0.0,0.0,0.0,0.0,0.0,0.0,0.0,0.0,0.0,0.0,0.0,0.0,0.0,3.5907,3.5852,3.5845,3.5906,3.5903,3.5929,3.5995,3.6737,3.7089,3.7109,3.7108,3.6674,3.5913,3.5913,3.6321,3.702,0.0,0.0,0.0,0.0,0.0,0.0,0.0,0.0,0.0,0.0,0.0,0.0,3.98,3.98,4.0132,4.2005,0.0,0.0,0.0,0.0,0.0,4.7197,4.8096,4.8647,4.7972,4.8545,4.9487,0.0,0.0,0.0,0.0,0.0,0.0,0.0,0.0,0.0,0.0,0.0,0.0,0.0,0.0,0.0,0.0,0.0,0.0,0.0,0.0,0.0,0.0,0.0,0.0,0.0,6.2168,6.1699,6.1679,6.1623,6.1597,6.1559,6.1364,6.1217,6.1099,6.1099,6.1099,6.1099,6.1099,6.1099,0.0,0.0,6.1099,6.1099,6.1099,6.1099,6.1099,6.1099,6.1099,6.1099,6.1099,6.1099,6.1099,0.0,0.0,0.0,0.0,0.0,0.0,0.0,0.0,0.0,0.0,0.0,0.0,0.0,0.0,0.0,0.0,0.0,0.0,0.0,0.0,0.0,3.5909,3.5868,3.5878,3.5897,3.5908,3.6156,3.6699,3.707,3.7265,3.7283,3.6787,3.63,3.5917,3.638,3.6825,3.7224,3.7706,0.0,0.0,0.0,0.0,0.0,0.0,0.0,0.0,0.0,0.0,0.0,0.0,4.0503,4.0816,4.2552,0.0,0.0,0.0,0.0,0.0,4.6788,4.7822,4.8702,4.8334,4.9262,5.0247,0.0,0.0,0.0,0.0,0.0,0.0,0.0,0.0,0.0,0.0,0.0,0.0,0.0,0.0,0.0,0.0,0.0,0.0,0.0,0.0,0.0,0.0,0.0,0.0,0.0,0.0,6.1699,6.1699,6.1676,6.1645,6.1605,6.1506,6.1381,6.1213,6.113,6.1099,6.1099,6.1099,6.1099,6.1099,0.0,6.1099,6.1099,6.1099,6.1099,6.1099,6.1099,6.1099,6.1099,6.1099,6.1099,6.1099,0.0,0.0,0.0,0.0,0.0,0.0,0.0,0.0,0.0,0.0,0.0,0.0,0.0,0.0,0.0,0.0,0.0,0.0,0.0,0.0,3.5897,3.5904,3.5904,3.5908,3.5895,3.6104,3.6461,3.699,3.7343,3.7439,3.7256,3.6531,3.6093,3.5932,3.6805,3.7312,3.7565,3.8426,3.8798,0.0,0.0,0.0,0.0,0.0,0.0,0.0,0.0,0.0,0.0,0.0,0.0,0.0,0.0,0.0,0.0,4.5793,4.6301,4.634,4.6554,4.7686,4.8798,4.8798,0.0,0.0,0.0,0.0,0.0,0.0,0.0,0.0,0.0,0.0,0.0,0.0,0.0,0.0,0.0,0.0,0.0,0.0,0.0,0.0,0.0,0.0,0.0,0.0,0.0,0.0,0.0,0.0,6.1699,6.1699,6.1699,6.1677,6.1619,6.161,6.1508,6.1315,6.1197,6.1147,6.1147,6.1117,6.1099,6.1099,6.1099,6.1099,6.1099,6.1099,6.1099,6.1099,6.1099,6.1099,6.1099,6.1099,6.1099,6.1099,0.0,0.0,0.0,0.0,0.0,0.0,0.0,0.0,0.0,0.0,0.0,0.0,0.0,0.0,0.0,0.0,0.0,0.0,0.0,0.0,3.5906,3.5898,3.5898,3.5898,3.5898,3.6699,3.6775,3.6083,3.7644,3.7987,3.7208,3.713,3.6671,3.5949,3.6811,3.7653,3.8458,3.9343,3.9716,3.9785,0.0,0.0,0.0,0.0,0.0,0.0,0.0,0.0,0.0,0.0,0.0,0.0,0.0,0.0,4.4036,4.5793,4.6301,4.6475,4.7294,4.8134,4.8798,4.8798,5.0101,0.0,5.1321,5.1971,0.0,0.0,0.0,0.0,0.0,0.0,0.0,0.0,0.0,0.0,0.0,0.0,0.0,0.0,0.0,0.0,0.0,0.0,0.0,0.0,0.0,0.0,0.0,0.0,0.0,6.1699,6.1699,6.1699,6.1699,6.1624,6.1534,6.1381,6.1321,6.1292,6.1285,6.1161,6.1099,6.1099,6.1099,6.1099,6.1099,6.1099,6.1099,6.1099,6.1099,6.1099,6.1099,6.1099,6.1099,6.1099,0.0,0.0,0.0,0.0,0.0,0.0,0.0,0.0,0.0,0.0,0.0,0.0,0.0,0.0,0.0,0.0,0.0,0.0,0.0,3.5956,3.5954,3.5968,3.5967,3.5967,3.5967,3.6299,3.6568,3.6809,3.7403,3.7522,3.7184,3.6653,3.6493,3.6749,3.7619,3.8489,3.9361,4.024,4.0604,4.0643,4.0976,0.0,0.0,0.0,0.0,0.0,0.0,0.0,0.0,0.0,4.0601,4.0913,4.2669,4.3431,4.4036,4.5793,4.6301,4.6379,4.669,4.7764,4.8798,4.8798,5.0116,0.0,0.0,5.2497,5.3359,0.0,0.0,0.0,0.0,0.0,0.0,0.0,0.0,0.0,0.0,0.0,0.0,0.0,0.0,0.0,0.0,0.0,0.0,0.0,0.0,0.0,0.0,0.0,0.0,6.1699,6.1699,6.1699,6.1699,6.1677,6.1631,6.1579,6.1433,6.133,6.1306,6.1244,6.1175,6.1099,6.1099,6.1099,6.1099,6.1099,6.1099,6.1099,6.1099,6.1099,6.1099,6.1099,6.1099,6.1099,0.0,0.0,0.0,0.0,0.0,0.0,0.0,0.0,0.0,0.0,0.0,0.0,0.0,0.0,0.0,0.0,0.0,0.0,3.5992,3.5992,3.5992,3.5992,3.5992,3.5992,3.5992,3.5992,3.6284,3.6888,3.6834,3.6817,3.6818,3.6463,3.6624,3.7245,3.8397,3.9246,3.9851,4.0722,4.1092,4.1107,4.1091,4.1105,0.0,0.0,0.0,0.0,0.0,0.0,0.0,0.0,4.1109,4.1401,4.3158,4.3705,4.4036,4.5793,4.6301,4.6301,4.6301,4.751,4.8799,4.8802,0.0,0.0,5.2103,5.3356,5.4315,0.0,0.0,0.0,0.0,0.0,0.0,0.0,0.0,0.0,0.0,0.0,0.0,0.0,0.0,0.0,0.0,0.0,0.0,0.0,0.0,0.0,0.0,0.0,0.0,0.0,6.1699,6.1699,6.1699,6.1699,6.1699,6.1699,6.1568,6.1452,6.1393,6.1331,6.1248,6.1169,6.1126,6.1099,6.1099,6.1099,6.1099,6.1099,6.1099,6.1099,6.1099,6.1099,6.1099,6.1099,0.0,0.0,0.0,0.0,0.0,0.0,0.0,0.0,0.0,0.0,0.0,0.0,0.0,0.0,0.0,0.0,0.0,0.0,3.6012,3.6012,3.6012,3.6012,3.6012,3.6012,3.6012,3.5992,3.6008,3.6,3.6009,3.6004,3.6024,3.6811,3.7197,3.7285,3.9032,3.9794,3.9862,4.0721,4.1093,4.1091,4.1108,4.1105,0.0,0.0,0.0,0.0,0.0,0.0,0.0,0.0,4.1109,4.1421,4.3158,4.3705,4.4056,4.5793,4.6301,4.6301,4.6301,4.753,4.8801,0.0,0.0,0.0,5.3591,5.4666,5.5546,0.0,0.0,0.0,0.0,0.0,0.0,0.0,0.0,0.0,0.0,0.0,0.0,0.0,0.0,0.0,0.0,0.0,0.0,0.0,0.0,0.0,0.0,0.0,0.0,0.0,6.1699,6.1699,6.1699,6.1699,6.1699,6.1699,6.1699,6.1656,6.1582,6.1393,6.129,6.1299,6.1165,6.1099,6.1099,6.1099,6.1099,6.1099,6.1099,6.1099,6.1099,6.1099,6.1099,6.1099,0.0,0.0,0.0,0.0,0.0,0.0,0.0,0.0,0.0,0.0,0.0,0.0,0.0,0.0,0.0,0.0,0.0,0.0,3.779,3.7243,3.7184,3.781,3.7243,3.691,3.691,3.6305,3.6008,3.6,3.5997,3.5989,3.5953,3.6806,3.7524,3.8156,3.9301,4.0134,4.072,4.0991,4.1101,4.1109,4.1096,4.1095,4.1109,0.0,0.0,0.0,0.0,0.0,0.0,0.0,0.0,0.0,4.3334,4.4114,4.4836,4.5968,4.6729,4.7216,4.7216,4.7983,0.0,0.0,0.0,0.0,0.0,5.4198,0.0,0.0,0.0,0.0,0.0,0.0,0.0,0.0,0.0,0.0,0.0,0.0,0.0,0.0,0.0,0.0,0.0,0.0,0.0,0.0,0.0,0.0,0.0,0.0,0.0,0.0,6.1699,6.1699,6.1699,6.1699,6.1699,6.1699,6.1699,6.1656,6.1604,6.1548,6.1437,6.1306,6.1256,6.1184,6.1099,6.1099,6.1099,6.1099,6.1099,6.1099,6.1099,6.1099,6.1099,6.1099,0.0,0.0,0.0,0.0,0.0,0.0,0.0,0.0,0.0,0.0,0.0,0.0,0.0,0.0,0.0,0.0,0.0,0.0,0.0,3.8102,3.8044,3.8572,3.8102,3.7639,3.7277,3.678,3.6334,3.5954,3.5967,3.6127,3.6443,3.7318,3.8174,3.9048,3.9934,4.0605,4.1105,4.1095,4.1109,4.1109,4.1109,4.1109,4.1109,0.0,0.0,0.0,0.0,0.0,0.0,0.0,0.0,0.0,4.3821,4.4582,4.5167,4.6046,4.6671,4.7081,4.7084,4.7948,0.0,0.0,0.0,0.0,0.0,0.0,0.0,0.0,0.0,0.0,0.0,0.0,0.0,0.0,0.0,0.0,0.0,0.0,0.0,0.0,0.0,0.0,0.0,0.0,0.0,0.0,0.0,0.0,0.0,0.0,0.0,0.0,6.1699,6.1699,6.1699,6.1699,6.1699,6.1699,6.1699,6.1678,6.1647,6.1613,6.151,6.1343,6.1267,6.1167,6.1099,6.1099,6.1099,6.1099,6.1099,6.1099,6.1099,6.1099,6.1099,6.1099,0.0,0.0,0.0,0.0,0.0,0.0,0.0,0.0,0.0,0.0,0.0,0.0,0.0,0.0,0.0,0.0,0.0,0.0,0.0,0.0,3.8747,3.8825,3.8747,3.8289,3.7343,3.7452,3.7068,3.6134,3.6053,3.6439,3.7226,3.8168,3.9039,3.9843,4.07,4.1093,4.1109,4.1109,4.1109,4.1109,4.1187,4.1167,4.1109,4.1187,0.0,0.0,0.0,0.0,0.0,0.0,0.0,0.0,4.4503,4.505,4.5264,4.6066,4.6359,4.6439,4.6525,0.0,0.0,0.0,0.0,0.0,0.0,0.0,0.0,0.0,0.0,0.0,0.0,0.0,0.0,0.0,0.0,0.0,0.0,0.0,0.0,0.0,0.0,0.0,0.0,0.0,0.0,0.0,0.0,0.0,0.0,0.0,0.0,6.1699,6.1699,6.1699,6.1699,6.1699,6.1699,0.0,6.1699,6.1699,6.1699,6.1646,6.1538,6.1381,6.1198,6.1113,6.1099,6.1099,6.1099,6.1099,6.1099,6.1099,6.1099,6.1099,6.1099,6.1099,0.0,0.0,0.0,0.0,0.0,0.0,0.0,0.0,0.0,0.0,0.0,0.0,0.0,0.0,0.0,0.0,0.0,0.0,0.0,0.0,3.9859,4.0524,3.9918,3.9159,3.8326,3.8923,3.8828,3.7949,3.7318,3.7066,3.7224,3.8785,3.9628,3.9835,4.0701,4.1108,4.1109,4.1109,4.1109,4.1167,4.1849,4.1713,4.1167,4.1869,4.1693,0.0,0.0,0.0,0.0,0.0,0.0,0.0,4.4874,4.548,4.6066,4.6242,4.6788,4.7472,4.8145,4.8619,0.0,0.0,0.0,0.0,0.0,0.0,0.0,0.0,0.0,0.0,0.0,0.0,0.0,0.0,0.0,0.0,0.0,0.0,0.0,0.0,0.0,0.0,0.0,0.0,0.0,0.0,0.0,0.0,0.0,0.0,0.0,6.168,6.1699,6.1699,6.1699,6.1699,6.1699,0.0,6.1699,6.1699,6.1699,6.1698,6.1574,6.1386,6.1295,6.12,6.1099,6.1099,6.1099,6.1099,6.1099,6.1099,6.1099,6.1099,6.1099,6.1099,0.0,0.0,0.0,0.0,0.0,0.0,0.0,0.0,0.0,0.0,0.0,0.0,0.0,0.0,0.0,0.0,0.0,0.0,0.0,0.0,4.0803,4.1674,4.1283,4.0839,4.0384,4.0772,4.0372,3.9075,3.9076,3.8846,3.8426,3.9329,3.9992,4.0433,4.0909,4.1101,4.1129,4.1557,4.1713,4.1791,4.2669,4.2494,4.181,4.2689,4.2474,0.0,0.0,0.0,0.0,0.0,0.0,0.0,0.0,0.0,4.6301,4.6301,4.6924,4.7707,4.8149,0.0,0.0,0.0,0.0,0.0,0.0,0.0,0.0,0.0,0.0,0.0,0.0,0.0,0.0,0.0,0.0,0.0,0.0,0.0,0.0,0.0,0.0,0.0,0.0,0.0,0.0,0.0,0.0,0.0,0.0,6.0273,6.0039,6.0488,6.0508,6.0683,6.1074,6.1074,6.1289,6.1699,6.1699,6.1699,6.1699,6.1675,6.1562,6.1405,6.1327,6.1213,6.1099,6.1099,6.1099,6.1099,6.1099,6.1099,6.1099,6.1099,6.1099,6.1099,0.0,0.0,0.0,0.0,0.0,0.0,0.0,0.0,0.0,0.0,0.0,0.0,0.0,0.0,0.0,0.0,0.0,0.0,0.0,0.0,0.0,4.2363,4.2539,4.2587,4.2529,4.2655,4.1949,4.0367,4.1081,4.0992,4.013,3.9985,4.034,4.1089,4.1092,4.1092,4.1147,4.1869,4.2258,4.2473,4.3353,4.3274,4.2728,4.3587,0.0,0.0,0.0,0.0,0.0,4.4757,0.0,0.0,0.0,0.0,4.634,4.6475,4.7041,4.7669,4.7957,0.0,5.0894,0.0,0.0,0.0,0.0,0.0,0.0,0.0,0.0,0.0,0.0,0.0,0.0,0.0,0.0,0.0,0.0,0.0,0.0,0.0,0.0,0.0,0.0,0.0,0.0,0.0,0.0,0.0,6.0351,5.9492,5.9043,5.9199,5.9199,5.959,6.039,6.039,6.084,6.1699,6.1699,6.1699,6.1699,6.1648,6.1549,6.1433,6.1342,6.1256,6.1125,6.1113,6.1099,6.1099,6.1099,6.1099,6.1099,6.1099,6.1099,6.1099,0.0,0.0,0.0,0.0,0.0,0.0,0.0,0.0,0.0,0.0,0.0,0.0,0.0,0.0,0.0,0.0,0.0,0.0,0.0,0.0,0.0,4.2383,4.3066,4.3432,4.3437,4.4118,4.3989,4.2983,4.3106,4.2713,0.0,0.0,4.0887,4.1028,4.1072,4.1093,4.1109,4.1226,4.1713,4.2473,4.3353,4.3626,4.3626,0.0,0.0,0.0,0.0,0.0,0.0,0.0,4.55,0.0,0.0,0.0,0.0,4.7197,4.7509,4.7922,0.0,0.0,0.0,0.0,0.0,0.0,0.0,0.0,0.0,0.0,0.0,0.0,0.0,0.0,0.0,0.0,0.0,0.0,0.0,0.0,0.0,0.0,0.0,0.0,0.0,0.0,0.0,0.0,0.0,0.0,6.0312,5.8926,5.8418,5.918,5.9199,5.959,6.039,6.039,6.084,6.1699,6.1699,6.1699,6.1699,6.1699,6.1651,6.1571,6.1435,6.1345,6.1267,6.1147,6.1099,6.1099,6.1099,6.1099,6.1099,6.1099,6.1099,6.1099,0.0,0.0,0.0,0.0,0.0,0.0,0.0,0.0,0.0,0.0,0.0,0.0,0.0,0.0,0.0,0.0,0.0,0.0,0.0,0.0,0.0,4.3057,4.3875,4.4515,4.495,4.5283,4.5068,4.4234,4.4232,0.0,0.0,4.2365,4.2158,0.0,0.0,0.0,4.2592,4.3079,4.3509,4.3937,4.4816,4.4855,0.0,0.0,0.0,0.0,0.0,0.0,0.0,0.0,0.0,0.0,0.0,0.0,0.0,0.0,4.7919,0.0,5.0357,5.1734,0.0,0.0,0.0,0.0,0.0,0.0,0.0,0.0,0.0,0.0,0.0,0.0,0.0,0.0,0.0,0.0,0.0,0.0,0.0,0.0,0.0,0.0,0.0,0.0,0.0,0.0,0.0,5.7715,5.8926,5.7832,5.7344,5.7734,5.7734,5.8379,5.9707,5.9726,6.039,6.1699,6.1699,6.1699,6.1699,6.1699,6.1655,6.1603,6.1538,6.143,6.1303,6.1229,6.1178,6.1099,6.1099,6.1099,6.1099,6.1099,6.1099,6.1099,0.0,0.0,0.0,0.0,0.0,0.0,0.0,0.0,0.0,0.0,0.0,0.0,0.0,0.0,0.0,0.0,0.0,0.0,0.0,0.0,0.0,4.3564,4.4656,4.5469,4.5985,4.5999,4.5708,4.5106,0.0,0.0,4.2944,4.3572,4.3541,0.0,4.3487,4.3707,0.0,0.0,0.0,4.5069,0.0,0.0,0.0,0.0,0.0,0.0,0.0,0.0,0.0,0.0,0.0,0.0,0.0,0.0,0.0,0.0,0.0,0.0,0.0,0.0,0.0,0.0,0.0,0.0,0.0,0.0,0.0,0.0,0.0,0.0,0.0,0.0,0.0,0.0,0.0,0.0,0.0,0.0,0.0,0.0,0.0,0.0,0.0,0.0,0.0,0.0,0.0,5.6973,5.7851,5.707,5.6601,5.6601,5.6601,5.7441,5.918,5.9629,6.0469,6.1699,6.1699,6.1699,6.1699,6.1699,6.1677,6.162,6.161,6.1512,6.1367,6.1318,6.1237,6.1147,6.1117,6.1099,6.1099,6.1099,6.1099,6.1099,0.0,0.0,0.0,0.0,0.0,0.0,0.0,0.0,0.0,0.0,0.0,0.0,0.0,0.0,4.1109,4.1109,0.0,0.0,0.0,0.0,0.0,4.3603,4.5224,0.0,4.6004,4.5999,4.598,4.5941,0.0,0.0,4.4664,4.4775,4.4795,4.4739,4.4012,4.3707,4.3705,0.0,0.0,0.0,0.0,0.0,0.0,0.0,0.0,0.0,0.0,0.0,0.0,0.0,0.0,0.0,0.0,0.0,0.0,0.0,0.0,0.0,0.0,0.0,0.0,0.0,0.0,0.0,0.0,0.0,0.0,0.0,0.0,0.0,0.0,0.0,0.0,0.0,0.0,0.0,0.0,0.0,0.0,0.0,0.0,0.0,0.0,0.0,0.0,0.0,0.0,5.6973,5.7851,5.707,5.6601,5.6601,5.6601,5.7441,5.918,6.0781,6.1601,6.1699,6.1699,6.1699,6.1699,6.1699,6.1699,6.1699,6.1622,6.1582,6.1569,6.1376,6.1303,6.1281,6.1152,6.1099,6.1099,6.1099,6.1099,6.1099,0.0,0.0,0.0,0.0,0.0,0.0,0.0,0.0,0.0,0.0,0.0,0.0,0.0,4.2693,4.2695,4.2692,4.2691,0.0,0.0,0.0,0.0,4.4373,4.5508,4.6093,4.6004,4.5999,4.5999,0.0,0.0,4.5315,4.4819,4.5404,4.5393,4.4911,4.5238,4.5689,4.6162,4.5617,0.0,0.0,0.0,0.0,0.0,0.0,0.0,0.0,0.0,0.0,0.0,0.0,0.0,0.0,0.0,0.0,4.7451,4.9149,0.0,0.0,0.0,0.0,0.0,0.0,0.0,0.0,0.0,0.0,0.0,0.0,0.0,0.0,0.0,0.0,0.0,0.0,0.0,0.0,0.0,0.0,0.0,0.0,0.0,0.0,0.0,0.0,0.0,0.0,0.0,0.0,5.7051,5.6777,5.6601,5.6601,5.6601,5.7441,5.918,6.0859,6.1699,6.1699,6.1699,6.1699,6.1699,6.1699,6.1699,6.1699,6.1677,6.1647,6.1599,6.1437,6.1349,6.1292,6.1156,6.1099,6.1099,6.1099,6.1099,6.1099,0.0,0.0,0.0,0.0,0.0,0.0,0.0,0.0,0.0,0.0,0.0,0.0,0.0,0.0,4.3603,4.3602,4.36,4.36,4.36,4.4421,4.4869,4.4804,4.5627,4.6062,4.6002,4.5747,4.5727,0.0,0.0,0.0,0.0,4.626,4.642,4.6195,4.6851,4.7304,0.0,0.0,0.0,4.7938,0.0,0.0,4.71,0.0,0.0,0.0,0.0,0.0,0.0,0.0,0.0,0.0,0.0,4.7529,4.866,4.9772,0.0,0.0,0.0,0.0,0.0,0.0,0.0,0.0,0.0,0.0,0.0,0.0,0.0,0.0,0.0,0.0,0.0,0.0,0.0,0.0,0.0,0.0,0.0,0.0,0.0,0.0,0.0,0.0,0.0,0.0,0.0,0.0,5.6601,5.6601,5.6601,5.6601,5.7168,5.8027,5.9199,6.0859,6.1699,6.1699,6.1699,6.1699,6.1699,6.1699,6.1699,6.1699,6.1699,6.1677,6.1622,6.1511,6.1405,6.1324,6.1209,6.1139,6.1099,6.1099,6.1099,6.1099,0.0,0.0,0.0,0.0,0.0,0.0,0.0,0.0,0.0,0.0,0.0,0.0,0.0,0.0,0.0,4.3674,4.3674,4.3674,4.3674,4.4456,4.4904,4.4839,0.0,0.0,0.0,4.5222,4.5222,0.0,0.0,0.0,0.0,0.0,4.7879,4.8703,4.8807,4.837,4.7631,0.0,4.8818,4.8779,0.0,4.8095,4.8701,0.0,0.0,0.0,4.7899,4.7626,0.0,0.0,0.0,0.0,0.0,0.0,5.0104,5.0124,0.0,0.0,0.0,0.0,0.0,0.0,0.0,0.0,0.0,0.0,0.0,0.0,0.0,0.0,0.0,0.0,0.0,0.0,0.0,0.0,0.0,0.0,0.0,0.0,0.0,0.0,0.0,0.0,0.0,0.0,0.0,5.6601,5.6601,5.6601,5.6601,5.6601,5.8281,5.9199,5.916,6.082,6.166,6.166,6.166,6.168,6.1699,6.1699,6.1699,6.1699,6.1699,6.1699,6.1699,6.1622,6.1511,6.1405,6.1324,6.1229,6.1103,6.1099,6.1099,6.1099,0.0,0.0,0.0,0.0,0.0,0.0,0.0,0.0,0.0,0.0,0.0,0.0,0.0,0.0,4.5337,4.5337,4.5337,4.5337,4.5337,4.5553,4.5698,4.567,4.5906,4.601,4.6002,4.5785,4.5785,4.5999,4.5785,4.623,4.7295,4.7374,0.0,0.0,4.9435,4.96,4.9369,4.8965,0.0,0.0,4.8817,4.8603,0.0,0.0,0.0,0.0,0.0,4.7978,0.0,0.0,4.7627,4.8252,0.0,0.0,0.0,0.0,0.0,0.0,5.1407,0.0,0.0,0.0,0.0,0.0,0.0,0.0,0.0,0.0,0.0,0.0,0.0,0.0,0.0,0.0,0.0,0.0,0.0,0.0,0.0,0.0,0.0,0.0,0.0,0.0,0.0,0.0,5.6601,5.6601,5.6597,5.6597,5.6597,5.6597,5.8299,5.8905,5.8261,5.9922,6.0762,6.0762,6.0762,6.1094,6.1699,6.1699,6.1699,6.1699,6.1699,6.1699,6.1699,6.1622,6.1576,6.153,6.1361,6.1281,6.1225,6.113,6.1099,6.1099,0.0,0.0,0.0,0.0,0.0,0.0,0.0,0.0,0.0,0.0,0.0,0.0,0.0,0.0,4.5999,4.5999,4.5999,4.5999,4.5999,4.5999,4.6155,4.6521,4.654,4.6715,4.7087,4.6737,4.6718,4.7087,4.6741,4.7201,4.8387,4.8459,0.0,0.0,0.0,0.0,0.0,0.0,0.0,0.0,4.9695,0.0,0.0,4.8953,4.9168,0.0,0.0,0.0,4.9227,4.8387,4.8641,0.0,0.0,0.0,0.0,0.0,0.0,0.0,0.0,0.0,0.0,0.0,0.0,0.0,0.0,5.0894,0.0,0.0,0.0,0.0,0.0,0.0,0.0,0.0,0.0,0.0,0.0,0.0,0.0,0.0,0.0,0.0,0.0,0.0,0.0,5.6597,5.6599,5.6598,5.6593,5.6593,5.6593,5.6593,5.7943,5.8414,5.7906,5.9237,6.0078,6.039,6.039,6.0859,6.1699,6.1699,6.1699,6.1699,6.1699,6.1699,6.1699,6.1654,6.162,6.1577,6.1408,6.1321,6.1289,6.1152,6.1099,6.1099,0.0,0.0,0.0,0.0,0.0,0.0,0.0,0.0,0.0,0.0,0.0,0.0,0.0,0.0,0.0,0.0,4.6232,4.6291,4.6291,4.6291,4.664,4.7412,4.7431,4.78,4.858,4.7839,4.782,4.8599,4.7874,4.835,4.9895,4.9977,5.0465,0.0,0.0,0.0,0.0,0.0,0.0,5.1336,5.0554,5.071,0.0,0.0,5.0632,0.0,5.0417,5.0163,5.0125,4.9345,4.9539,0.0,0.0,0.0,0.0,0.0,5.1336,0.0,0.0,0.0,0.0,0.0,0.0,0.0,5.0503,5.0329,5.033,0.0,0.0,0.0,0.0,0.0,0.0,0.0,0.0,0.0,0.0,0.0,0.0,0.0,0.0,0.0,0.0,5.6599,5.6598,5.6592,5.6591,5.6591,5.6592,5.6591,5.6591,5.6591,5.7431,5.7842,5.7763,5.8629,5.9451,6.0271,6.0273,6.0762,6.1699,6.1699,6.1699,6.1699,6.1699,6.1699,6.1699,6.1699,6.1656,6.1607,6.1463,6.1384,6.1294,6.1163,6.1117,6.1099,0.0,0.0,0.0,0.0,0.0,0.0,0.0,0.0,0.0,0.0,0.0,0.0,0.0,0.0,0.0,0.0,4.7686,4.8097,4.8097,4.8097,4.8172,4.8347,4.8347,4.8425,4.8599,4.8425,4.8425,4.8599,4.8438,4.8895,4.9895,4.9977,5.0499,0.0,0.0,0.0,0.0,0.0,0.0,5.1394,5.1219,0.0,5.1297,5.0437,5.0632,5.1297,5.0417,5.0554,5.1121,0.0,5.0535,5.0182,0.0,0.0,0.0,0.0,0.0,0.0,0.0,0.0,0.0,0.0,0.0,0.0,5.1206,5.1168,5.1171,0.0,0.0,0.0,0.0,0.0,0.0,0.0,0.0,0.0,0.0,0.0,0.0,0.0,0.0,0.0,0.0,5.6599,5.6597,5.6605,5.6597,5.6595,5.6603,5.6596,5.6593,5.6593,5.7382,5.7502,5.6858,5.7729,5.8572,5.9431,5.9433,6.0234,6.1699,6.1699,6.1699,6.1699,6.1699,6.1699,6.1699,6.1699,6.1699,6.1677,6.1589,6.1487,6.1367,6.1297,6.1192,6.1099,0.0,0.0,0.0,0.0,0.0,0.0,0.0,0.0,0.0,0.0,0.0,0.0,0.0,0.0,0.0,0.0,0.0,0.0,0.0,0.0,4.8794,4.9224,4.9243,4.9457,4.9881,4.9901,4.9901,4.9901,4.9892,5.0116,5.0551,5.064,0.0,0.0,0.0,0.0,0.0,0.0,5.1648,5.202,5.157,0.0,5.1355,5.0905,5.1022,5.1336,5.0905,5.1022,5.1336,5.0905,5.0749,0.0,0.0,5.0749,5.0827,0.0,5.1081,5.0847,0.0,0.0,0.0,5.1394,0.0,0.0,0.0,5.0757,5.074,0.0,0.0,0.0,0.0,0.0,0.0,0.0,0.0,0.0,0.0,0.0,0.0,0.0,0.0,0.0,0.0,5.5695,5.6121,5.6576,5.6608,5.6608,5.6594,5.6608,5.6605,5.6605,5.6982,5.7005,5.6594,5.7037,5.7883,5.9155,5.9178,6.0078,6.1699,6.1699,6.1699,6.1699,6.1699,6.1699,6.1699,6.1699,6.1699,6.1699,6.1621,6.1568,6.1485,6.1346,6.1256,6.1188,0.0,0.0,0.0,0.0,0.0,0.0,0.0,0.0,0.0,0.0,0.0,0.0,0.0,0.0,0.0,0.0,0.0,0.0,0.0,0.0,0.0,5.0134,5.0173,5.05,5.1197,5.1217,5.1217,5.1217,5.1223,5.123,5.1239,5.1348,0.0,0.0,0.0,0.0,0.0,0.0,0.0,5.2625,0.0,5.1609,5.1882,5.1707,5.1648,5.1629,5.1453,5.1394,5.1297,5.0593,0.0,5.1277,5.0574,5.071,0.0,0.0,0.0,0.0,0.0,0.0,0.0,0.0,0.0,5.1221,0.0,0.0,0.0,5.0358,0.0,0.0,0.0,0.0,0.0,0.0,0.0,0.0,0.0,0.0,0.0,0.0,0.0,0.0,0.0,5.4883,5.5523,5.6059,5.641,5.6527,5.6352,5.6507,5.6605,5.6605,5.6605,5.6605,5.6605,5.6596,5.7366,5.8857,5.9098,5.9999,6.1465,6.1621,6.1699,6.1699,6.1699,6.1699,6.1699,6.1699,6.1699,6.1699,6.1647,6.1613,6.1575,6.1422,6.1334,6.1289,4.6242,4.6032,0.0,0.0,0.0,0.0,0.0,0.0,0.0,0.0,0.0,0.0,0.0,0.0,0.0,0.0,0.0,0.0,5.2015,0.0,0.0,5.1128,5.115,5.1189,5.1284,5.1284,5.1284,5.1284,5.129,5.1312,5.1384,5.139,0.0,0.0,5.1393,0.0,0.0,0.0,5.1902,0.0,5.1746,5.2331,0.0,5.2859,5.2547,5.2449,5.1687,5.1394,5.1375,0.0,5.1316,5.1375,0.0,5.0788,0.0,0.0,0.0,0.0,0.0,0.0,0.0,0.0,5.1394,0.0,0.0,0.0,5.126,5.1241,0.0,0.0,0.0,0.0,0.0,0.0,0.0,0.0,0.0,0.0,0.0,0.0,0.0,0.0,0.0,0.0,5.5027,5.4342,5.5727,5.6255,5.5494,5.6177,5.6605,5.6605,5.6605,5.6605,5.6605,5.6596,5.7051,5.7951,5.8803,5.9666,6.0565,6.1347,6.1699,6.1699,6.1699,6.1699,6.1699,6.1699,6.1699,6.1699,6.1699,6.1652,6.1603,6.1572,6.1458,6.1306,4.6982,4.7178,0.0,0.0,0.0,0.0,0.0,0.0,0.0,0.0,0.0,0.0,0.0,0.0,0.0,0.0,0.0,5.185,0.0,0.0,0.0,0.0,0.0,0.0,5.13,5.13,5.13,5.13,5.13,5.1308,5.1344,5.1385,5.1655,0.0,5.1604,0.0,5.2684,0.0,0.0,0.0,0.0,0.0,0.0,5.2663,5.1941,5.1902,5.1531,5.1394,5.1394,0.0,5.1394,0.0,0.0,0.0,0.0,0.0,0.0,0.0,0.0,0.0,0.0,0.0,0.0,0.0,0.0,0.0,5.1394,0.0,0.0,0.0,0.0,0.0,0.0,0.0,0.0,0.0,0.0,0.0,0.0,0.0,0.0,0.0,0.0,0.0,0.0,0.0,0.0,5.5689,5.5319,5.5651,5.6079,5.6585,5.6605,5.6605,5.6605,5.6591,5.7006,5.7813,5.8702,5.9586,6.0428,6.1308,6.1699,6.1699,6.1699,6.1699,6.1699,6.1699,6.1699,6.1699,6.1699,6.1678,6.1652,6.1614,6.1508,6.1353,0.0,0.0,0.0,0.0,0.0,0.0,0.0,0.0,0.0,0.0,0.0,0.0,5.2477,5.2731,0.0,0.0,0.0,5.2763,0.0,0.0,5.1723,0.0,0.0,0.0,0.0,0.0,5.1918,5.1684,5.1918,5.2035,5.2035,5.2099,5.2421,0.0,0.0,5.2468,5.3035,0.0,0.0,5.362,5.3385,5.3678,5.405,5.239,5.1609,5.1394,5.1394,5.1394,5.1394,5.1394,5.1394,0.0,5.1394,0.0,0.0,0.0,0.0,0.0,5.1394,0.0,0.0,0.0,0.0,0.0,0.0,0.0,0.0,0.0,0.0,0.0,0.0,0.0,0.0,0.0,0.0,0.0,0.0,0.0,0.0,0.0,0.0,0.0,0.0,0.0,0.0,5.3678,5.4675,5.5085,5.4616,5.5045,5.5592,5.6216,5.6488,5.6605,5.6605,5.6605,5.6882,5.7477,5.8345,5.9191,6.0075,6.0956,6.1465,6.1699,6.1699,6.1699,6.1699,6.1699,6.1699,6.1699,6.1699,6.1699,6.1699,6.1649,6.1553,6.1441,4.9923,4.9255,0.0,0.0,0.0,0.0,0.0,0.0,0.0,0.0,0.0,0.0,0.0,0.0,0.0,0.0,0.0,5.4587,5.3768,0.0,5.3002,0.0,0.0,5.3022,0.0,0.0,0.0,5.2662,5.35,5.391,5.391,5.391,5.3931,5.395,0.0,5.3932,5.3893,5.3054,5.2723,5.2664,5.1824,5.1492,5.1609,0.0,5.2137,5.1394,5.1394,0.0,0.0,5.1394,5.1394,0.0,0.0,0.0,0.0,0.0,0.0,0.0,0.0,0.0,0.0,5.1394,0.0,0.0,0.0,0.0,5.1394,0.0,0.0,0.0,0.0,0.0,0.0,0.0,0.0,0.0,0.0,0.0,0.0,0.0,0.0,0.0,0.0,0.0,0.0,5.2879,5.4323,5.4557,5.2879,5.4382,5.5319,5.5338,5.6157,5.6605,5.6605,5.6605,5.6605,5.6645,5.7457,5.8306,5.9172,6.0036,6.0898,6.1699,6.1699,6.1699,6.1699,6.1699,6.1699,6.1699,6.1699,6.1699,6.1699,6.1699,6.1652,6.1582,0.0,0.0,0.0,0.0,0.0,0.0,0.0,5.2203,0.0,0.0,0.0,0.0,0.0,0.0,5.6259,0.0,0.0,5.5242,5.4442,5.4008,0.0,0.0,0.0,5.3652,0.0,0.0,0.0,0.0,0.0,5.401,5.401,5.401,5.4303,5.4831,0.0,5.401,0.0,0.0,0.0,0.0,0.0,5.3289,5.2235,0.0,0.0,5.1394,5.1394,5.1394,0.0,5.1394,5.1394,5.1394,5.1394,5.1394,5.1394,5.1394,5.1394,0.0,0.0,0.0,5.2254,5.2254,0.0,0.0,0.0,0.0,0.0,0.0,0.0,0.0,0.0,0.0,0.0,0.0,0.0,0.0,0.0,0.0,0.0,0.0,0.0,0.0,0.0,0.0,0.0,5.2781,5.325,5.3328,5.2723,5.3269,5.4109,5.526,5.5592,5.602,5.6585,5.6605,5.6605,5.6624,5.8004,5.8813,5.9152,6.0602,6.1425,6.1699,6.1699,6.1699,6.1699,6.1699,6.1699,6.1699,6.1699,6.1699,6.1699,6.1699,6.1654,6.1575,5.1863,0.0,0.0,0.0,0.0,0.0,0.0,0.0,0.0,0.0,5.5365,0.0,5.7253,0.0,5.7768,0.0,5.7408,5.6664,5.5292,5.5047,0.0,5.3566,5.4307,0.0,0.0,0.0,0.0,0.0,0.0,5.4926,5.4926,5.4926,5.522,5.5747,0.0,5.4575,5.4068,0.0,5.4616,0.0,0.0,5.4167,0.0,0.0,5.2136,5.1863,0.0,5.1668,5.1394,5.1394,5.1394,5.1394,5.1394,5.1609,5.1804,5.1492,5.1843,5.237,5.2625,5.2937,0.0,5.2781,5.2703,0.0,5.1609,0.0,0.0,0.0,0.0,0.0,0.0,0.0,0.0,0.0,0.0,0.0,0.0,0.0,0.0,0.0,0.0,0.0,0.0,0.0,5.4303,5.2801,5.2996,5.2898,0.0,0.0,5.3367,5.4792,5.5143,5.5728,5.6585,5.6605,5.6605,5.6605,5.7687,5.8361,5.8722,6.0131,6.0936,6.125,6.1562,6.1699,6.1699,6.1699,6.1699,6.1699,6.1699,6.1699,6.1699,6.1699,6.1677,6.1618,0.0,0.0,0.0,0.0,5.2215,0.0,0.0,0.0,5.5102,0.0,5.5874,5.6616,5.7321,5.8213,5.8714,5.853,5.922,0.0,5.6416,5.6896,0.0,0.0,5.5252,5.492,5.2253,0.0,0.0,0.0,0.0,0.0,5.6605,5.6583,5.6583,5.6605,5.6622,0.0,5.4068,5.4987,5.4362,5.284,5.3756,5.4108,5.4068,5.4108,5.358,5.282,5.2781,5.2235,5.1511,5.1472,5.1453,5.1453,5.1453,5.2,5.2488,5.1746,5.2663,5.3776,5.3035,5.3425,5.3873,5.3035,0.0,0.0,0.0,0.0,5.1453,0.0,0.0,0.0,0.0,0.0,0.0,0.0,0.0,0.0,0.0,0.0,0.0,0.0,0.0,0.0,0.0,5.5453,5.5376,5.2898,5.3424,5.3151,0.0,0.0,5.3054,5.3971,5.4791,5.5669,5.6585,5.6605,5.6605,5.6605,5.6644,5.7124,5.7999,5.88,5.9645,6.0508,6.1348,6.1699,6.1699,6.1699,6.1699,6.1699,6.1699,6.1699,6.1699,6.1699,6.1699,6.1699,5.282,5.3211,5.36,0.0,5.3522,5.3873,0.0,0.0,0.0,0.0,5.9088,5.9967,6.0161,6.0784,6.0948,6.0302,5.9722,0.0,0.0,0.0,0.0,5.6207,5.6832,5.652,5.5082,5.6022,0.0,5.5667,0.0,0.0,5.6605,5.6446,5.6469,5.6623,0.0,0.0,5.4108,5.5611,5.5259,5.3795,5.5317,5.5532,0.0,0.0,5.5396,5.4557,5.3893,5.3522,5.3229,5.2586,5.2371,5.2371,5.2371,5.2078,5.1941,5.3014,5.319,5.3269,5.4343,5.4792,5.4909,5.4694,5.4636,5.4226,0.0,0.0,0.0,0.0,0.0,0.0,0.0,0.0,0.0,0.0,0.0,0.0,0.0,0.0,0.0,0.0,0.0,0.0,0.0,5.3815,5.3425,5.2742,5.2312,5.1863,0.0,0.0,0.0,5.3951,5.4225,5.5064,5.6585,5.6605,5.6605,5.6605,5.7211,5.7942,5.8812,5.967,6.0538,6.1385,6.16,6.1699,6.1699,6.1699,6.1699,6.1699,6.1699,6.1699,6.1699,6.1699,6.1699,6.1699,5.3933,0.0,0.0,5.5009,0.0,0.0,5.5703,0.0,0.0,5.8691,5.9766,0.0,6.045,6.1053,6.1258,6.0811,6.0181,0.0,0.0,0.0,0.0,5.7066,5.7183,5.6687,5.5382,5.564,0.0,5.5682,0.0,0.0,5.7112,5.6653,5.6674,0.0,0.0,5.6733,0.0,5.6093,5.5941,5.5218,5.6111,0.0,0.0,5.641,5.6294,5.5806,5.5318,5.4653,5.3932,5.3424,5.3269,5.3269,5.3269,5.319,5.3229,5.3815,5.4186,5.4538,5.5143,5.5573,5.5786,5.5397,5.5299,5.4948,5.3582,5.2976,5.2566,0.0,0.0,0.0,0.0,0.0,0.0,0.0,0.0,0.0,0.0,0.0,0.0,0.0,0.0,0.0,0.0,5.3112,5.2957,5.2196,5.237,0.0,0.0,0.0,0.0,5.3405,5.3795,5.4654,5.602,5.6411,5.6605,5.6605,5.7055,5.7725,5.8555,5.9433,6.0319,6.1147,6.1521,6.1698,6.1699,6.1699,6.1699,6.1699,6.1699,6.1699,6.1699,6.1699,6.1699,6.1699,0.0,0.0,0.0,0.0,0.0,0.0,0.0,5.7232,0.0,5.8757,0.0,5.9713,5.9682,6.0318,6.0719,6.0629,0.0,6.0297,5.9788,5.9529,5.8738,5.73,5.7156,5.6365,5.4795,5.4734,0.0,0.0,0.0,0.0,5.7621,5.6892,5.6951,0.0,0.0,0.0,0.0,5.6381,5.6267,5.6212,5.6278,5.6392,5.6558,5.6583,5.6605,5.6605,5.6605,5.5629,5.4321,5.4205,5.4166,5.4166,5.4166,5.4615,5.5026,5.4498,5.5336,5.6294,5.5651,5.602,5.641,5.567,5.5475,5.5241,5.4361,5.3502,5.284,5.2723,5.202,5.1394,0.0,0.0,0.0,0.0,0.0,0.0,0.0,0.0,0.0,0.0,0.0,0.0,0.0,0.0,0.0,0.0,0.0,0.0,0.0,0.0,0.0,5.2703,5.3541,5.442,5.5299,0.0,5.6644,5.6761,5.6761,5.7236,5.8162,5.8924,5.9748,6.0614,6.1363,6.1697,6.1697,6.1699,6.1699,6.1699,6.1699,6.1699,6.1699,6.1699,6.1699,6.1699,0.0,0.0,0.0,0.0,0.0,5.7725,5.8211,5.8863,5.9394,5.9661,6.0767,6.1296,6.0648,6.1178,6.1371,6.0801,6.0597,0.0,0.0,0.0,0.0,5.9083,5.846,5.7656,5.6652,5.5478,5.5204,0.0,0.0,0.0,0.0,0.0,0.0,0.0,0.0,0.0,5.6434,5.6338,0.0,5.4252,5.5701,5.632,5.6379,5.6531,5.6605,5.6605,5.6605,5.639,5.6039,5.5318,5.5065,5.5065,5.5065,5.4674,5.4478,5.5766,5.5845,5.5651,5.6216,5.6488,5.6566,5.6411,5.6372,5.6138,5.528,5.44,5.3561,5.2859,5.202,5.1394,5.1394,0.0,0.0,0.0,0.0,0.0,0.0,0.0,0.0,0.0,0.0,0.0,0.0,0.0,0.0,0.0,0.0,0.0,0.0,0.0,0.0,0.0,5.3541,0.0,0.0,0.0,5.6938,5.7582,5.7582,5.8422,5.9947,6.0103,6.0656,6.1485,6.163,6.1694,6.1697,6.1699,6.1699,6.1699,6.1699,6.1699,6.1699,6.1699,6.1699,6.1699,0.0,0.0,0.0,0.0,0.0,0.0,0.0,5.9775,0.0,5.9831,6.0305,6.0533,6.0217,6.0785,6.1045,6.0725,6.0578,6.0533,6.0639,6.0553,6.015,5.9324,5.8594,0.0,5.6956,5.5427,5.5343,5.6764,0.0,0.0,0.0,0.0,0.0,0.0,0.0,5.7154,0.0,0.0,0.0,5.44,5.5683,5.6244,5.632,5.6527,5.6605,5.6605,5.6605,5.6605,5.6546,5.6118,5.5962,5.5962,5.5962,5.5689,5.5512,5.6351,5.6294,5.6079,5.6488,5.6605,5.6605,5.6605,5.6605,5.6488,5.6079,5.5298,5.442,5.3541,5.2684,5.1941,5.1472,5.1394,0.0,0.0,0.0,0.0,0.0,0.0,0.0,0.0,0.0,0.0,0.0,0.0,0.0,0.0,0.0,0.0,0.0,0.0,0.0,0.0,0.0,0.0,0.0,0.0,0.0,5.7798,5.7798,5.8714,6.0393,6.0393,6.0884,6.1709,6.1704,6.1691,6.1694,6.1699,6.1699,6.1699,6.1699,6.1699,6.1699,6.1699,6.1699,6.1699,0.0,5.869,0.0,0.0,5.9205,0.0,5.9546,6.0412,6.0806,6.0016,5.978,5.9713,5.9793,6.0286,6.0597,6.0597,6.0552,6.0532,6.0545,6.0485,6.0138,5.9464,5.8713,5.7921,5.7127,5.5502,5.5379,0.0,0.0,0.0,0.0,0.0,0.0,0.0,0.0,0.0,0.0,0.0,5.5544,5.4887,5.573,5.6135,5.627,5.6469,5.6558,5.6605,5.6605,5.6605,5.6605,5.6605,5.6605,5.6605,5.6605,5.6605,5.6605,5.6605,5.6605,5.6605,5.6605,5.6605,5.6605,5.6605,5.6605,5.6605,5.6605,5.5923,5.5104,5.442,5.358,5.2703,5.1843,5.1687,0.0,0.0,0.0,0.0,0.0,0.0,0.0,0.0,0.0,0.0,0.0,0.0,0.0,0.0,0.0,0.0,0.0,0.0,0.0,0.0,0.0,5.4283,5.4283,0.0,5.7094,5.807,5.807,5.8987,6.0686,6.0686,6.1055,6.1701,6.1701,6.1709,6.1692,6.1698,6.1699,6.1699,6.1699,6.1699,6.1699,6.1699,6.1699,6.1699,0.0,0.0,0.0,0.0,0.0,0.0,5.9683,6.0993,6.1641,6.072,6.0594,6.0564,6.0514,6.0559,6.0597,6.0597,6.0591,6.0623,6.0692,6.0623,6.0572,6.0545,5.9726,5.8881,5.8081,5.6434,5.5379,0.0,0.0,0.0,0.0,0.0,0.0,0.0,0.0,0.0,0.0,5.5682,5.5439,5.4612,5.5543,5.6001,5.6131,5.6266,5.6443,5.6605,5.6605,5.6605,5.6605,5.6605,5.6605,5.6605,5.6605,5.6605,5.6605,5.6605,5.6605,5.6605,5.6605,5.6605,5.6605,5.6605,5.6605,5.6605,5.6605,5.5923,5.528,5.5202,5.4478,5.362,5.2742,5.2586,5.2586,0.0,0.0,0.0,0.0,0.0,0.0,0.0,0.0,0.0,0.0,0.0,0.0,0.0,0.0,0.0,0.0,0.0,0.0,5.2586,0.0,5.5182,5.5182,5.6118,5.7405,5.8986,5.8986,5.9884,6.1582,6.1582,6.1621,6.1699,6.1694,6.1707,6.1697,6.1699,6.1699,6.1699,6.1699,6.1699,6.1699,6.1699,6.1699,6.1699,0.0,0.0,0.0,0.0,0.0,0.0,0.0,6.2417,6.2692,6.2303,6.1847,6.1528,6.1503,6.1036,6.0691,6.0654,6.0667,6.0642,6.0648,6.0617,6.061,6.0642,5.9804,5.9209,5.8938,5.7789,5.713,0.0,0.0,0.0,0.0,0.0,0.0,0.0,0.0,5.5396,5.5432,5.5706,5.5893,5.6095,5.7071,5.7544,5.7684,5.7807,5.7957,5.803,5.7504,5.7328,5.725,5.6761,5.6605,5.6605,5.6605,5.6605,5.6605,5.6605,5.6605,5.6605,5.6605,5.6605,5.6605,5.6605,5.6605,5.6605,5.6605,5.6333,5.5923,5.5416,5.4615,5.3893,5.3541,5.3483,5.3308,0.0,0.0,0.0,0.0,0.0,0.0,0.0,0.0,0.0,0.0,0.0,0.0,0.0,0.0,0.0,0.0,0.0,0.0,5.3463,0.0,5.4771,5.5299,5.6645,5.7914,5.9103,5.963,6.0528,6.1699,6.1699,6.1704,6.1692,6.1702,6.1691,6.1697,6.1699,6.1699,6.1699,6.1699,6.1699,6.1699,6.1699,6.1699,6.1699,6.2499,0.0,6.2704,0.0,6.3468,6.3295,6.3295,6.3525,6.3679,6.3679,6.3185,6.2653,6.2153,6.1556,6.1058,6.076,6.0722,6.0717,6.0667,6.0661,6.0661,6.0661,6.0072,0.0,5.9428,5.8871,5.8402,5.8071,5.8368,0.0,0.0,0.0,0.0,0.0,5.5242,5.5348,5.5856,5.6002,5.6593,5.7431,5.8162,5.851,5.8663,5.8784,5.8912,5.8963,5.8396,5.8187,5.8109,5.7522,5.7151,5.6918,5.6663,5.6605,5.6605,5.6605,5.6605,5.6605,5.6605,5.6605,5.6605,5.6605,5.6605,5.6605,5.6605,5.6605,5.6429,5.5806,5.5181,5.4693,5.4439,5.4381,5.4186,5.3562,0.0,0.0,0.0,0.0,0.0,0.0,0.0,5.2351,5.1824,0.0,0.0,0.0,0.0,0.0,0.0,0.0,0.0,0.0,0.0,0.0,0.0,5.7095,5.8246,5.9103,5.9983,6.0861,6.1699,6.1699,6.1704,6.1694,6.1702,6.169,6.1696,6.1698,6.1699,6.1699,6.1699,6.1699,6.1699,6.1699,6.1699,6.1699,6.4243,6.3872,6.3564,6.4436,6.3872,6.3295,6.3295,6.4025,6.4589,6.4589,6.4589,6.3935,6.2287,6.2095,6.1749,6.0877,6.08,6.08,6.08,6.08,6.08,0.0,0.0,6.0377,5.9531,5.9492,5.8665,5.7022,0.0,0.0,5.4746,0.0,5.4851,5.4748,5.5548,5.5827,5.5766,5.6618,5.7497,5.8294,5.83,5.8377,5.852,5.864,5.8782,5.8927,5.9044,5.9084,5.9084,5.9064,5.8499,5.7641,5.686,5.6605,5.6605,5.6605,5.6605,5.6605,5.6605,5.6605,5.6605,5.6605,5.6605,5.6605,5.6605,5.6605,5.6605,5.6585,5.6585,5.6313,5.5436,5.528,5.528,5.526,0.0,0.0,0.0,0.0,0.0,0.0,5.4206,5.4577,5.284,0.0,0.0,0.0,0.0,0.0,0.0,0.0,0.0,5.401,5.4831,0.0,5.6585,5.7387,5.8246,5.9103,5.9983,6.0861,6.1699,6.1699,6.1699,6.1701,6.1693,6.1702,6.1709,6.1695,6.1698,6.1699,6.1699,6.1699,6.1699,6.1699,6.1699,6.1699,6.4378,6.4378,6.4455,6.532,6.5263,6.507,6.507,6.5301,6.5493,6.5493,6.5493,6.5051,6.3935,6.3262,6.2589,0.0,6.1691,6.1422,0.0,6.0806,6.0806,6.0806,6.0806,6.0671,6.0396,6.0396,5.9819,5.8704,0.0,0.0,0.0,5.8022,5.7713,5.7175,5.742,5.7827,5.8319,5.8588,5.9204,5.9992,5.9992,6.0073,6.0209,6.0252,6.0448,6.0596,6.0057,5.9908,5.9905,5.9299,5.8928,5.8635,5.8381,5.7522,5.6605,5.6605,5.6605,5.6605,5.6605,5.6605,5.6605,5.6605,5.6605,5.6605,5.6605,5.6605,5.6605,5.6605,5.6605,5.6527,5.6235,5.6196,5.5981,5.5397,5.4343,0.0,0.0,0.0,0.0,0.0,5.2292,5.2429,0.0,5.2859,0.0,0.0,0.0,0.0,0.0,0.0,0.0,0.0,5.4576,0.0,5.7406,5.8265,5.9124,6.0002,6.086,6.1426,6.1699,6.1699,6.1699,6.1699,6.1693,6.1702,6.1709,6.1695,6.1698,6.1699,6.1699,6.1699,6.1699,6.1699,6.1699,6.1699,6.4916,6.5089,6.5263,6.5801,6.5904,6.5904,6.5904,6.5904,6.5891,6.5865,6.5885,6.5679,6.5109,6.459,0.0,6.223,6.2095,6.1729,6.0864,6.0806,6.0806,6.0806,6.0806,6.0806,6.0806,6.0806,0.0,5.9992,6.0204,5.9877,5.905,5.905,5.8781,5.8313,5.8627,5.9031,5.9511,5.9858,6.03,6.0806,6.0806,6.0853,6.0928,6.0988,6.1127,6.1253,6.0835,6.0746,6.0734,6.0249,5.9865,5.9591,5.9591,5.8654,5.7464,5.7153,5.7055,5.6977,5.6683,5.6605,5.6605,5.6605,5.6605,5.6605,5.6605,5.6605,5.6605,5.6605,5.6605,5.6605,5.6605,5.6605,5.641,5.5884,5.4771,5.3815,5.3269,0.0,0.0,0.0,0.0,0.0,0.0,5.2684,0.0,0.0,0.0,0.0,0.0,0.0,0.0,5.4791,5.4596,0.0,5.7778,5.8654,5.9533,6.0412,6.127,6.1699,6.1699,6.1699,6.1699,6.1699,6.1708,6.1697,6.1706,6.1693,6.1697,6.1699,6.1699,6.1699,6.1699,6.1699,6.1699,6.1699,6.5743,6.5904,6.5904,0.0,6.5904,0.0,6.5904,6.5904,6.5878,6.5826,6.5859,6.5878,6.5807,6.5801,6.4826,6.2403,0.0,0.0,0.0,6.0806,6.0806,6.0806,6.0806,6.0806,6.0806,6.0806,6.0806,6.0806,5.9992,5.9204,5.8467,5.8467,5.8467,5.8511,5.9261,5.9588,5.9646,6.0454,6.0806,6.0806,6.0806,6.0806,6.081,6.0943,6.0988,6.1048,6.1349,6.1473,6.1495,6.163,6.1145,6.0486,6.0486,5.9921,5.9103,5.8168,5.7894,5.7738,5.6976,5.6722,5.6683,5.6683,5.6644,5.6605,5.6605,5.6605,5.6605,5.6605,5.6605,5.6605,5.6605,5.6605,5.6585,5.6527,5.5102,5.3971,5.3912,0.0,0.0,0.0,0.0,0.0,0.0,5.3463,5.3288,0.0,0.0,0.0,0.0,0.0,5.4987,5.4127,5.4947,5.6197,5.7875,5.8752,5.963,6.049,6.1309,6.1699,6.1699,6.1699,6.1699,6.1699,6.1699,6.1706,6.1698,6.1705,6.1693,6.1697,6.1699,6.1699,6.1699,6.1699,6.1699,6.1699,0.0,0.0,6.5904,6.5904,6.5904,6.5904,6.5904,6.5904,6.5897,6.5878,6.5891,6.5891,6.5878,6.5288,6.4397,6.3121,6.3025,6.2397,6.0902,6.0806,6.0806,6.0806,6.0806,6.0806,6.0806,6.0806,6.0806,6.0806,6.0589,6.0396,6.0204,6.0204,6.0204,6.0223,6.0416,6.0492,6.0517,6.0704,6.0806,6.0806,6.0806,6.0806,6.0793,6.085,6.0917,6.1011,6.1081,6.1178,6.1282,6.1313,6.1286,6.1231,6.1231,6.1174,6.0782,5.924,5.8791,5.8752,5.8557,5.8011,5.7523,5.7523,5.7055,5.6605,5.6605,5.6605,5.6605,5.6605,5.6605,5.6605,5.6605,5.6605,5.6372,5.5728,5.4693,5.3776,5.3094,5.2645,0.0,0.0,5.3289,5.3698,5.3698,5.3289,5.3386,0.0,0.0,0.0,0.0,5.5708,5.5884,5.5026,5.5845,5.7094,5.8772,5.9651,6.0529,6.1387,6.1602,6.1699,6.1699,6.1699,6.1699,6.1699,6.1699,6.1706,6.1698,6.17,6.1709,6.1697,6.1698,6.1699,6.1699,6.1699,6.1699,6.1699,6.5904,6.5904,6.5904,6.5904,6.5872,6.5852,6.5852,6.5801,6.5755,6.5722,6.5742,6.5748,6.5722,6.5319,6.4731,6.3918,6.3186,6.2204,6.0896,6.0806,6.0806,6.0806,6.0806,6.0806,6.0806,6.0806,6.0806,6.0806,6.0806,6.0806,6.0806,6.0806,6.0806,6.0806,6.0806,6.0806,6.0806,6.0806,6.0806,6.0806,6.0806,6.0806,6.0806,6.0806,6.0847,6.0927,6.0983,6.1051,6.1128,6.1184,6.1339,6.149,6.149,6.159,6.1504,6.0567,6.0001,5.9611,5.9201,5.8752,5.8382,5.8382,5.7777,5.7153,5.7153,5.686,5.6605,5.6605,5.6605,5.6605,5.6605,5.6605,5.6313,5.5436,5.4576,5.3698,5.282,5.2703,0.0,5.2703,5.3463,5.401,5.401,5.3933,5.4128,5.4654,5.5005,0.0,5.5299,5.6489,5.6762,5.5923,5.6704,5.7972,5.969,6.0568,6.1231,6.1699,6.1699,6.1699,6.1699,6.1699,6.1699,6.1699,6.1699,6.1703,6.1691,6.1696,6.1703,6.1691,6.1696,6.1698,6.1699,6.1699,6.1699,6.1699,6.5885,6.5878,6.5853,6.5885,6.5826,6.5773,6.5773,6.5662,6.558,6.5523,6.5566,6.558,6.5523,6.5451,6.5111,6.4346,6.2912,6.175,6.1037,6.0998,6.0935,6.0794,6.0788,6.0788,6.0788,6.08,6.0806,6.0806,6.0806,6.0806,6.0806,6.0806,6.0806,6.0806,6.0806,6.0806,6.0806,6.0806,6.0806,6.0806,6.0806,6.0806,6.0806,6.0806,6.0806,6.081,6.0928,6.0974,6.0978,6.1108,6.1279,6.1426,6.1441,6.1551,6.1668,6.1697,6.1172,6.0432,5.9689,5.9396,5.9259,5.9123,5.8538,5.7992,5.7992,5.7465,5.6976,5.6976,5.6878,5.6781,5.6781,5.6683,5.6313,5.5436,5.4576,5.3698,5.282,0.0,5.2898,5.2898,5.3776,5.438,5.438,5.4947,5.5045,5.4439,5.5766,5.6333,5.5709,5.7154,5.7738,5.719,5.7836,5.8968,6.0588,6.1328,6.1699,6.1699,6.1699,6.1699,6.1699,6.1699,6.1699,6.1699,6.1699,6.1699,6.1699,6.1692,6.1697,6.1699,6.1693,6.1697,6.1697,6.1699,6.1699,6.1699,6.58,6.5722,6.5675,6.58,6.5708,6.5634,6.5634,6.5608,6.5594,6.5587,6.5594,6.5594,6.5587,6.4987,6.4227,6.3391,6.2413,6.1857,6.1897,6.1903,6.1533,6.0748,6.0729,6.0729,6.0729,6.0777,6.0806,6.0806,6.0806,6.0806,6.0806,6.0806,6.0806,6.0806,6.0806,6.0806,6.0806,6.0806,6.0806,6.0806,6.0806,6.0806,6.0806,6.0806,6.0806,6.0806,6.0827,6.0819,6.0825,6.0864,6.0963,6.1098,6.1202,6.139,6.1547,6.1666,6.1602,6.1465,6.1328,6.0762,6.0022,5.9279,5.9006,5.8908,5.8908,5.8791,5.8713,5.8713,5.8128,5.7601,5.7601,5.7055,5.6313,5.5436,5.4576,5.3698,5.282,0.0,5.3795,5.3795,5.5219,5.6195,5.6195,5.565,5.5553,5.6156,5.6449,5.684,5.7388,5.8363,5.9181,5.9788,5.9924,6.0471,6.1485,6.1621,6.1699,6.1699,6.1699,6.1699,6.1699,6.1699,6.1699,6.1699,6.1699,6.1699,6.1699,6.1702,6.1708,6.1699,6.1707,6.1694,6.1697,6.1699,6.1699,6.1699,6.5688,6.5641,6.5608,6.5688,6.5613,6.5544,6.5544,6.5528,6.5479,6.5479,6.5479,6.5479,6.5479,6.476,6.4149,6.3775,6.294,6.2323,6.2004,6.1549,6.1108,6.071,6.0673,6.0654,6.0691,6.0722,6.0753,6.0753,6.0788,6.0788,6.0753,6.0788,6.0806,6.0806,6.0806,6.0806,6.0806,6.0806,6.0806,6.0806,6.0806,6.0806,6.0806,6.0806,6.0806,6.0804,6.0888,6.0911,6.0911,6.0911,6.0997,6.1112,6.1099,6.1282,6.1519,6.1578,6.1636,6.1699,6.1699,6.1407,6.0997,6.0606,6.0157,5.9807,5.9807,5.9435,5.9103,5.9103,5.8772,5.8499,5.8499,5.8205,5.7522,5.6216,5.5279,0.0,0.0,5.3756,5.4166,5.4635,5.6216,5.725,5.725,5.7309,5.7504,5.7913,5.7952,5.8108,5.848,5.9339,5.9983,6.0393,6.0861,6.1289,6.1699,6.1699,6.1699,6.1699,6.1699,6.1699,6.1699,6.1699,6.1699,6.1699,6.1699,6.1699,6.1699,6.1699,6.1703,6.1709,6.17,6.1708,6.1694,6.1698,6.1699,6.1699,6.5573,6.5559,6.5552,6.5573,6.5516,6.5472,6.5472,6.544,6.5394,6.5394,6.5394,6.5394,6.5394,6.4848,6.4335,6.4004,6.336,6.2573,6.1632,6.0929,6.0591,6.0642,6.061,6.0604,6.0648,6.0679,6.0685,6.0686,6.0734,6.0759,6.0697,6.074,6.0794,6.0806,6.0806,6.0806,6.0806,6.0806,6.0806,6.0806,6.0806,6.0806,6.0806,6.0806,6.0806,6.081,6.0927,6.0949,6.0954,6.0983,6.1051,6.1108,6.1068,6.1205,6.1404,6.1476,6.1591,6.1699,6.1699,6.1699,6.1699,6.1699,6.1192,6.0705,6.0705,6.0177,5.9708,5.9708,5.9533,5.9396,5.9396,5.924,5.8674,5.7386,0.0,0.0,0.0,5.4888,5.5123,5.5807,5.7192,5.8109,5.8109,5.8713,5.9103,5.9103,5.9299,5.9396,5.9396,6.0237,6.0705,6.0705,6.1348,6.1699,6.1699,6.1699,6.1699,6.1699,6.1699,6.1699,6.1699,6.1699,6.1699,6.1699,6.1699,6.1699,6.1699,6.1699,6.1699,6.1701,6.1694,6.1702,6.1708,6.1695,6.1698,6.1699,6.5494,6.5462,6.544,6.5494,6.5462,6.5402,6.5402,6.5402,6.5394,6.5394,6.5394,6.5394,6.5394,6.5356,6.4688,6.314,6.2937,6.224,6.0697,6.049,6.0444,6.0512,6.0512,6.0512,6.0519,6.0648,6.066,6.061,6.0667,6.0697,6.0691,6.0717,6.0734,6.0806,6.0806,6.0806,6.0806,6.0806,6.0806,6.0806,6.0806,6.0806,6.0806,6.0806,6.0806,6.0806,6.0804,6.081,6.0825,6.0954,6.0918,6.0872,6.112,6.112,6.109,6.1412,6.1591,6.1699,6.1699,6.1699,6.1699,6.1699,6.1641,6.1602,6.1602,6.1543,6.1504,6.1504,6.086,6.0295,6.0295,5.963,5.9064,5.8947,0.0,0.0,5.7524,5.7523,5.7544,5.7603,5.8441,5.9006,5.9006,5.9064,5.9103,5.9103,5.9846,6.0295,6.0295,6.1133,6.1602,6.1602,6.168,6.1699,6.1699,6.1699,6.1699,6.1699,6.1699,6.1699,6.1699,6.1699,6.1699,6.1699,6.1699,6.1699,6.1699,6.1699,6.1699,6.1701,6.1694,6.1698,6.1701,6.1694,6.1697,6.1698,6.544,6.5417,6.5402,6.544,6.5417,6.5394,6.5394,6.5394,6.5394,6.5394,6.5394,6.5394,6.5394,6.4955,6.4408,6.3751,6.272,6.1829,6.1215,6.0697,6.041,6.0438,6.0438,6.0458,6.0499,6.0552,6.0571,6.0539,6.061,6.0623,6.0584,6.0623,6.0655,6.068,6.068,6.0704,6.0747,6.0747,6.0752,6.0806,6.0806,6.0806,6.0806,6.0806,6.0806,6.0804,6.089,6.0918,6.0933,6.0974,6.1015,6.1042,6.0964,6.1028,6.1162,6.1428,6.1535,6.1591,6.1671,6.1699,6.1699,6.1699,6.1699,6.1699,6.1699,6.1699,6.1699,6.1699,6.1446,6.1211,6.1211,6.0938,6.0548,5.9983,0.0,5.8616,5.8616,5.8148,5.7992,5.8538,5.9378,5.9905,5.9905,6.0392,6.0704,6.0704,6.1016,6.1211,6.1211,6.1524,6.1699,6.1699,6.1699,6.1699,6.1699,6.1699,6.1699,6.1699,6.1699,6.1699,6.1699,6.1699,6.1699,6.1699,6.1699,6.1699,6.1699,6.1699,6.1699,6.1699,6.1705,6.1692,6.1699,6.169,6.1695,6.1698,6.5394,6.5394,6.5394,6.5394,6.5394,6.5394,6.5394,6.5394,6.5394,6.5394,6.5394,6.5394,6.5394,6.4898,6.4485,6.4217,6.3109,6.2299,6.2032,6.123,6.0663,6.0415,6.0396,6.0417,6.0465,6.0492,6.0492,6.0465,6.0539,6.0545,6.0505,6.0552,6.0578,6.0597,6.0597,6.0629,6.066,6.0685,6.0735,6.0777,6.0794,6.0806,6.0806,6.0806,6.0806,6.0804,6.0906,6.0943,6.0934,6.0998,6.1033,6.1068,6.0959,6.104,6.123,6.1379,6.1446,6.153,6.1664,6.1699,6.1699,6.1699,6.1699,6.1699,6.1699,6.1699,6.1699,6.1699,6.1699,6.1699,6.1699,6.1699,6.1504,6.092,6.0314,5.9923,5.9923,5.9396,5.9241,5.9845,6.0431,6.0803,6.0803,6.1348,6.1699,6.1699,6.1699,6.1699,6.1699,6.1699,6.1699,6.1699,6.1699,6.1699,6.1699,6.1699,6.1699,6.1699,6.1699,6.1699,6.1699,6.1699,6.1699,6.1699,6.1699,6.1699,6.1699,6.1699,6.1699,6.1699,6.1699,6.1705,6.1694,6.1703,6.1691,6.1696,6.5394,6.5394,6.5394,6.5394,6.5394,6.5394,6.5394,6.5394,6.5394,6.5394,6.5394,6.5394,6.5394,6.5394,6.507,6.4275,6.4198,6.3835,6.2961,6.2089,6.1249,6.0453,6.0415,6.0396,6.0396,6.0465,6.0465,6.0396,6.0465,6.0499,6.0499,6.0499,6.0532,6.0597,6.0597,6.0597,6.0604,6.066,6.0691,6.0717,6.0777,6.0806,6.0806,6.0806,6.0806,6.0806,6.0806,6.0806,6.0821,6.0949,6.0917,6.0853,6.1128,6.1209,6.1209,6.1209,6.1345,6.153,6.1664,6.1698,6.1698,6.1699,6.1699,6.1699,6.1699,6.1699,6.1699,6.1699,6.1699,6.1699,6.1699,6.1699,6.1699,6.1699,6.1699,6.1699,6.1699,6.1699,6.1699,6.1699,6.1699,6.1699,6.1699,6.1699,6.1699,6.1699,6.1699,6.1699,6.1699,6.1699,6.1699,6.1699,6.1699,6.1699,6.1699,6.1699,6.1699,6.1699,6.1699,6.1699,6.1699,6.1699,6.1699,6.1699,6.1699,6.1699,6.1699,6.1699,6.1699,6.1699,6.1699,6.1699,6.1701,6.1694,6.1703,6.169,6.5394,6.5394,6.5394,6.5394,6.5394,6.5394,6.5394,6.5394,6.5394,6.5394,6.5394,6.5394,6.5394,6.5394,6.5299,6.505,6.4523,6.3835,6.2961,6.2655,6.2414,6.2166,6.1027,6.0396,6.0396,6.0417,6.0417,6.0396,6.0417,6.0431,6.0431,6.0431,6.0438,6.0458,6.0458,6.0485,6.0532,6.0558,6.0591,6.0642,6.0691,6.0722,6.0728,6.0788,6.0806,6.0806,6.0806,6.0806,6.0812,6.0847,6.0896,6.0974,6.1143,6.1132,6.1074,6.1177,6.124,6.1339,6.1506,6.1551,6.1584,6.1689,6.1699,6.1699,6.1699,6.1699,6.1699,6.1699,6.1699,6.1699,6.1699,6.1699,6.1699,6.1699,6.1699,6.1699,6.1699,6.1699,6.1699,6.1699,6.1699,6.1699,6.1699,6.1699,6.1699,6.1699,6.1699,6.1699,6.1699,6.1699,6.1699,6.1699,6.1699,6.1699,6.1699,6.1699,6.1699,6.1699,6.1699,6.1699,6.1699,6.1699,6.1699,6.1699,6.1699,6.1699,6.1699,6.1699,6.1699,6.1699,6.1699,6.1699,6.1701,6.1694,6.1703,6.169,6.5394,6.5394,6.5394,6.5394,6.5394,6.5394,6.5394,6.5394,6.5394,6.5394,6.5394,6.5394,6.5394,6.5394,6.5394,6.5394,6.4955,6.4447,6.3923,6.3599,6.3408,6.3408,6.2108,6.123,6.0874,6.0874,6.0721,6.0396,6.0396,6.0396,6.0396,6.0396,6.0396,6.0396,6.0396,6.0417,6.0458,6.0485,6.0525,6.0571,6.0623,6.0686,6.0697,6.0753,6.0783,6.0806,6.0806,6.0806,6.0806,6.0806,6.088,6.1001,6.1099,6.1108,6.1112,6.1269,6.133,6.1348,6.1473,6.1537,6.1586,6.1602,6.1663,6.1699,6.1699,6.1699,6.1699,6.1699,6.1699,6.1699,6.1699,6.1699,6.1699,6.1699,6.1699,6.1699,6.1699,6.1699,6.1699,6.1699,6.1699,6.1699,6.1699,6.1699,6.1699,6.1699,6.1699,6.1699,6.1699,6.1699,6.1699,6.1699,6.1699,6.1699,6.1699,6.1699,6.1699,6.1699,6.1699,6.1699,6.1699,6.1699,6.1699,6.1699,6.1699,6.1699,6.1699,6.1699,6.1699,6.1699,6.1699,6.1699,6.1701,6.1708,6.1697,6.1706,6.5394,6.5394,6.5394,6.5394,6.5394,6.5394,6.5394,6.5394,6.5394,6.5394,6.5394,6.5394,6.5394,6.5394,6.5394,6.5394,6.5394,6.5394,6.5394,6.4714,6.4313,6.4313,6.3541,6.2712,6.186,6.1765,6.1325,6.0511,6.0511,6.0472,6.0396,6.0396,6.0396,6.0396,6.0396,6.0396,6.0403,6.0465,6.0492,6.0499,6.0565,6.0636,6.0679,6.071,6.0747,6.0794,6.08,6.0806,6.0806,6.0806,6.0888,6.0998,6.1016,6.1108,6.1237,6.1441,6.149,6.149,6.149,6.1582,6.1634,6.1539,6.1595,6.1693,6.1698,6.1699,6.1699,6.1699,6.1699,6.1699,6.1699,6.1699,6.1699,6.1699,6.1699,6.1699,6.1699,6.1699,6.1699,6.1699,6.1699,6.1699,6.1699,6.1699,6.1699,6.1699,6.1699,6.1699,6.1699,6.1699,6.1699,6.1699,6.1699,6.1699,6.1699,6.1699,6.1699,6.1699,6.1699,6.1699,6.1699,6.1699,6.1699,6.1699,6.1699,6.1699,6.1699,6.1699,6.1699,6.1699,6.1699,6.1699,6.1699,6.1699,6.1707,6.1699,6.5394,6.5394,6.5394,6.5394,6.5394,6.5394,6.5394,6.5394,6.5394,6.5394,6.5394,6.5394,6.5394,6.5394,6.5394,6.5394,6.5394,6.5394,6.5394,6.5242,6.5146,6.5146,6.4955,6.4477,6.3644,6.2968,6.2197,6.1344,6.1344,6.1027,6.0396,6.0396,6.0396,6.0396,6.0396,6.0396,6.0396,6.0417,6.0417,6.0424,6.0492,6.0532,6.0539,6.0654,6.0703,6.0741,6.0788,6.0806,6.0806,6.0806,6.0821,6.0888,6.1091,6.1181,6.1237,6.1441,6.149,6.149,6.149,6.1409,6.1356,6.16,6.1593,6.1576,6.1689,6.1699,6.1699,6.1699,6.1699,6.1699,6.1699,6.1699,6.1699,6.1699,6.1699,6.1699,6.1699,6.1699,6.1699,6.1699,6.1699,6.1699,6.1699,6.1699,6.1699,6.1699,6.1699,6.1699,6.1699,6.1699,6.1699,6.1699,6.1699,6.1699,6.1699,6.1699,6.1699,6.1699,6.1699,6.1699,6.1699,6.1699,6.1699,6.1699,6.1699,6.1699,6.1699,6.1699,6.1699,6.1699,6.1699,6.1699,6.1699,6.1699,6.1707,6.17,6.5394,6.5394,6.5394,6.5394,6.5394,6.5394,6.5394,6.5394,6.5394,6.5394,6.5394,6.5394,6.5394,6.5394,6.5394,6.5394,6.5394,6.5394,6.5394,6.5394,6.5394,6.5394,6.5394,6.5203,6.4791,6.4325,6.3484,6.2223,6.2223,6.1784,6.0969,6.0969,6.0778,6.0396,6.0396,6.0396,6.0396,6.0396,6.0396,6.0403,6.0438,6.0472,6.0505,6.0584,6.061,6.0667,6.0735,6.0777,6.0806,6.0806,6.0806,6.085,6.1042,6.1147,6.1237,6.1441,6.1541,6.1584,6.1521,6.1468,6.1447,6.1456,6.1526,6.1602,6.1674,6.1699,6.1699,6.1699,6.1699,6.1699,6.1699,6.1699,6.1699,6.1699,6.1699,6.1699,6.1699,6.1699,6.1699,6.1699,6.1699,6.1699,6.1699,6.1699,6.1699,6.1699,6.1699,6.1699,6.1699,6.1699,6.1699,6.1699,6.1699,6.1699,6.1699,6.1699,6.1699,6.1699,6.1699,6.1699,6.1699,6.1699,6.1699,6.1699,6.1699,6.1699,6.1699,6.1699,6.1699,6.1699,6.1699,6.1699,6.1699,6.1699,6.1707,6.17,6.5394,6.5394,6.5394,6.5394,6.5394,6.5394,6.5394,6.5394,6.5394,6.5394,6.5394,6.5394,6.5394,6.5394,6.5394,6.5394,6.5394,6.5394,6.5394,6.5394,6.5394,6.5394,6.5394,6.5394,6.5394,6.5394,6.4649,6.3121,6.3121,6.2682,6.1822,6.1822,6.1382,6.0606,6.0606,6.053,6.0396,6.0396,6.0396,6.0396,6.0396,6.0431,6.0485,6.0499,6.0532,6.0591,6.0667,6.0735,6.0788,6.08,6.0806,6.0827,6.0954,6.107,6.1199,6.1393,6.1551,6.1634,6.153,6.1582,6.1604,6.1345,6.1485,6.1668,6.1697,6.1699,6.1699,6.1699,6.1699,6.1699,6.1699,6.1699,6.1699,6.1699,6.1699,6.1699,6.1699,6.1699,6.1699,6.1699,6.1699,6.1699,6.1699,6.1699,6.1699,6.1699,6.1699,6.1699,6.1699,6.1699,6.1699,6.1699,6.1699,6.1699,6.1699,6.1699,6.1699,6.1699,6.1699,6.1699,6.1699,6.1699,6.1699,6.1699,6.1699,6.1699,6.1699,6.1699,6.1699,6.1699,6.1699,6.1699,6.1699,6.1699,6.1706,6.1697,6.5394,6.5394,6.5394,6.5394,6.5394,6.5394,6.5394,6.5394,6.5394,6.5394,6.5394,6.5394,6.5394,6.5394,6.5394,6.5394,6.5394,6.5394,6.5394,6.5394,6.5394,6.5394,6.5394,6.5394,6.5394,6.5394,6.4955,6.4026,6.4026,6.3579,6.2712,6.2712,6.2261,6.144,6.144,6.1039,6.0396,6.0396,6.0396,6.0396,6.0396,6.0403,6.0417,6.0479,6.0505,6.0525,6.0591,6.0661,6.0716,6.0788,6.0806,6.0827,6.0954,6.1016,6.1059,6.1195,6.1387,6.1526,6.1495,6.1519,6.1541,6.1607,6.1586,6.1569,6.1668,6.1699,6.1699,6.1699,6.1699,6.1699,6.1699,6.1699,6.1699,6.1699,6.1699,6.1699,6.1699,6.1699,6.1699,6.1699,6.1699,6.1699,6.1699,6.1699,6.1699,6.1699,6.1699,6.1699,6.1699,6.1699,6.1699,6.1699,6.1699,6.1699,6.1699,6.1699,6.1699,6.1699,6.1699,6.1699,6.1699,6.1699,6.1699,6.1699,6.1699,6.1699,6.1699,6.1699,6.1699,6.1699,6.1699,6.1699,6.1699,6.1699,6.1701,6.1704,6.5394,6.5394,6.5394,6.5394,6.5394,6.5394,6.5394,6.5394,6.5394,6.5394,6.5394,6.5394,6.5394,6.5394,6.5394,6.5394,6.5394,6.5394,6.5394,6.5394,6.5394,6.5394,6.5394,6.5394,6.5394,6.5394,6.5222,6.4867,6.4867,6.4439,6.3618,6.3618,6.3159,6.233,6.233,6.186,6.1077,6.1077,6.0816,6.0396,6.0396,6.0396,6.0403,6.0431,6.0444,6.0458,6.0565,6.0673,6.0771,6.0794,6.0806,6.0804,6.0867,6.0943,6.1016,6.1062,6.1285,6.149,6.149,6.1547,6.1618,6.159,6.1593,6.1618,6.159,6.1657,6.1699,6.1699,6.1699,6.1699,6.1699,6.1699,6.1699,6.1699,6.1699,6.1699,6.1699,6.1699,6.1699,6.1699,6.1699,6.1699,6.1699,6.1699,6.1699,6.1699,6.1699,6.1699,6.1699,6.1699,6.1699,6.1699,6.1699,6.1699,6.1699,6.1699,6.1699,6.1699,6.1699,6.1699,6.1699,6.1699,6.1699,6.1699,6.1699,6.1699,6.1699,6.1699,6.1699,6.1699,6.1699,6.1699,6.1699,6.1699,6.1699,6.1701]}]]